[[{"header":{"parameterUnit":"m.s-1","parameterCategory":1,"la1":31.0,"la2":29.5877,"lo1":-88.7671,"lo2":-86.6584,"dy":0.0162,"dx":0.0185,"nx":115,"ny":88,"refTime":"2023-08-17T06:00:00:Z","depth":0,"parameterNumber":2,"parameterNumberName":"U-component_of_WINDS"},"data":[0.0,0.0,0.0,0.0,0.0,0.0,0.0,0.0,0.0,0.0,0.0,0.0,0.0,0.0,0.0,0.0,0.0,0.0,0.0,0.0,0.0,0.0,0.0,0.0,0.0,0.0,0.0,0.0,0.0,0.0,0.0,0.0,0.0,0.0,0.0,0.0,0.0,0.0,0.0,0.0,0.0,0.0,0.0,0.0,0.0,0.0,0.0,0.0,0.0,0.0,0.0,0.0,0.0,0.0,0.0,0.0,0.0,0.0,0.0,0.0,0.0,0.0,0.0,0.0,0.0,0.0,0.0,0.0,0.0,0.0,0.0,0.0,0.0,0.0,0.0,0.0,0.0,0.0,0.0,0.0,0.0,0.0,0.0,0.0,0.0,0.0,0.0,0.0,0.0,0.0,0.0,0.0,0.0,0.0,0.0,0.0,0.0,0.0,0.0,0.0,0.0,0.0,0.0,0.0,0.0,0.0,0.0,0.0,0.0,0.0,0.0,0.0,0.0,0.0,0.0,0.0,0.0,0.0,0.0,0.0,0.0,0.0,0.0,0.0,0.0,0.0,0.0,0.0,0.0,0.0,0.0,0.0,0.0,0.0,0.0,0.0,0.0,0.0,0.0,0.0,0.0,0.0,0.0,0.0,0.0,0.0,0.0,0.0,0.0,0.0,0.0,0.0,0.0,0.0,0.0,0.0,0.0,0.0,0.0,0.0,0.0,0.0,0.0,0.0,0.0,0.0,0.0,0.0,0.0,0.0,0.0,0.0,0.0,0.0,0.0,0.0,0.0,0.0,0.0,0.0,0.0,0.0,0.0,0.0,0.0,0.0,0.0,0.0,0.0,0.0,0.0,0.0,0.0,0.0,0.0,0.0,0.0,0.0,0.0,0.0,0.0,0.0,0.0,0.0,0.0,0.0,0.0,0.0,0.0,0.0,0.0,0.0,0.0,0.0,0.0,0.0,0.0,0.0,0.0,0.0,0.0,0.0,0.0,0.0,0.0,0.0,0.0,0.0,0.0,0.0,0.0,0.0,0.0,0.0,0.0,0.0,0.0,0.0,0.0,0.0,0.0,0.0,0.0,0.0,0.0,0.0,0.0,0.0,0.0,0.0,0.0,0.0,0.0,0.0,0.0,0.0,0.0,0.0,0.0,0.0,0.0,0.0,0.0,0.0,0.0,0.0,0.0,0.0,0.0,0.0,0.0,0.0,0.0,0.0,0.0,0.0,0.0,0.0,0.0,0.0,0.0,0.0,0.0,0.0,0.0,0.0,0.0,0.0,0.0,0.0,0.0,0.0,0.0,0.0,0.0,0.0,0.0,0.0,0.0,0.0,0.0,0.0,0.0,0.0,0.0,0.0,0.0,0.0,0.0,0.0,0.0,0.0,0.0,0.0,0.0,0.0,0.0,0.0,0.0,0.0,0.0,0.0,0.0,0.0,0.0,0.0,0.0,0.0,0.0,0.0,0.0,0.0,0.0,0.0,0.0,0.0,0.0,0.0,0.0,0.0,0.0,0.0,0.0,0.0,0.0,0.0,0.0,0.0,0.0,0.0,0.0,0.0,0.0,0.0,0.0,0.0,0.0,0.0,0.0,0.0,0.0,0.0,0.0,0.0,0.0,0.0,0.0,0.0,0.0,0.0,0.0,0.0,0.0,0.0,0.0,0.0,0.0,0.0,0.0,0.0,0.0,0.0,0.0,0.0,0.0,0.0,0.0,0.0,0.0,0.0,0.0,0.0,0.0,0.0,0.0,0.0,0.0,0.0,0.0,0.0,0.0,0.0,0.0,0.0,0.0,0.0,0.0,0.0,0.0,0.0,0.0,0.0,0.0,0.0,0.0,0.0,0.0,0.0,0.0,0.0,0.0,0.0,0.0,0.0,0.0,0.0,0.0,0.0,0.0,0.0,0.0,0.0,0.0,0.0,0.0,0.0,0.0,0.0,0.0,0.0,0.0,0.0,0.0,0.0,0.0,0.0,0.0,0.0,0.0,0.0,0.0,0.0,0.0,0.0,0.0,0.0,0.0,0.0,0.0,0.0,0.0,0.0,0.0,0.0,0.0,0.0,0.0,0.0,0.0,0.0,0.0,0.0,0.0,0.0,0.0,0.0,0.0,0.0,0.0,0.0,0.0,0.0,0.0,0.0,0.0,0.0,0.0,0.0,0.0,0.0,0.0,0.0,0.0,0.0,0.0,0.0,0.0,0.0,0.0,0.0,0.0,0.0,0.0,0.0,0.0,0.0,0.0,0.0,0.0,0.0,0.0,0.0,0.0,0.0,0.0,0.0,0.0,0.0,0.0,0.0,0.0,0.0,0.0,0.0,0.0,0.0,0.0,0.0,0.0,0.0,0.0,0.0,0.0,0.0,0.0,0.0,0.0,0.0,0.0,0.0,0.0,0.0,0.0,0.0,0.0,0.0,0.0,0.0,0.0,0.0,0.0,0.0,0.0,0.0,0.0,0.0,0.0,0.0,0.0,0.0,0.0,0.0,0.0,0.0,0.0,0.0,0.0,0.0,0.0,0.0,0.0,0.0,0.0,0.0,0.0,0.0,0.0,0.0,0.0,0.0,0.0,0.0,0.0,0.0,0.0,0.0,0.0,0.0,0.0,0.0,0.0,0.0,0.0,0.0,0.0,0.0,0.0,0.0,0.0,0.0,0.0,0.0,0.0,0.0,0.0,0.0,0.0,0.0,0.0,0.0,0.0,0.0,0.0,0.0,0.0,0.0,0.0,0.0,0.0,0.0,0.0,0.0,0.0,0.0,0.0,0.0,0.0,0.0,0.0,0.0,0.0,0.0,0.0,0.0,0.0,0.0,0.0,0.0,0.0,0.0,0.0,0.0,0.0,0.0,0.0,0.0,0.0,0.0,0.0,0.0,0.0,0.0,0.0,0.0,0.0,0.0,0.0,0.0,0.0,0.0,0.0,0.0,0.0,0.0,0.0,0.0,0.0,0.0,0.0,0.0,0.0,0.0,0.0,0.0,0.0,0.0,0.0,0.0,0.0,0.0,0.0,0.0,0.0,0.0,0.0,0.0,0.0,0.0,0.0,0.0,0.0,0.0,0.0,0.0,0.0,0.0,0.0,0.0,0.0,0.0,0.0,0.0,0.0,0.0,0.0,0.0,0.0,0.0,0.0,0.0,0.0,0.0,0.0,0.0,0.0,0.0,0.0,0.0,0.0,0.0,0.0,0.0,0.0,0.0,0.0,0.0,0.0,0.0,0.0,0.0,0.0,0.0,0.0,0.0,0.0,0.0,0.0,0.0,0.0,0.0,0.0,0.0,0.0,0.0,0.0,0.0,0.0,0.0,0.0,0.0,0.0,0.0,0.0,0.0,0.0,0.0,0.0,0.0,0.0,0.0,0.0,0.0,0.0,0.0,0.0,0.0,0.0,0.0,0.0,0.0,0.0,0.0,0.0,0.0,0.0,0.0,0.0,0.0,0.0,0.0,0.0,0.0,0.0,0.0,0.0,0.0,0.0,0.0,0.0,0.0,0.0,0.0,0.0,0.0,0.0,0.0,0.0,0.0,0.0,0.0,0.0,0.0,0.0,0.0,0.0,0.0,0.0,0.0,0.0,0.0,0.0,0.0,0.0,0.0,0.0,0.0,0.0,0.0,0.0,0.0,0.0,0.0,0.0,0.0,0.0,0.0,0.0,0.0,0.0,0.0,0.0,0.0,0.0,0.0,0.0,0.0,0.0,0.0,0.0,0.0,0.0,0.0,0.0,0.0,0.0,0.0,0.0,0.0,0.0,0.0,0.0,0.0,0.0,0.0,0.0,0.0,0.0,0.0,0.0,0.0,0.0,0.0,0.0,0.0,0.0,0.0,0.0,0.0,0.0,0.0,0.0,0.0,0.0,0.0,0.0,0.0,0.0,0.0,0.0,0.0,0.0,0.0,0.0,0.0,0.0,0.0,0.0,0.0,0.0,0.0,0.0,0.0,0.0,0.0,0.0,0.0,0.0,0.0,0.0,0.0,0.0,0.0,0.0,0.0,0.0,0.0,0.0,0.0,0.0,0.0,0.0,0.0,0.0,0.0,0.0,0.0,0.0,0.0,0.0,0.0,0.0,0.0,0.0,0.0,0.0,0.0,0.0,0.0,0.0,0.0,0.0,0.0,0.0,0.0,0.0,0.0,0.0,0.0,0.0,0.0,0.0,0.0,0.0,0.0,0.0,0.0,0.0,0.0,0.0,0.0,0.0,0.0,0.0,0.0,0.0,0.0,0.0,0.0,0.0,0.0,0.0,0.0,0.0,0.0,0.0,0.0,-2.556,0.0,0.0,0.0,0.0,0.0,0.0,0.0,0.0,0.0,0.0,0.0,0.0,0.0,0.0,0.0,0.0,0.0,0.0,0.0,0.0,0.0,0.0,0.0,0.0,0.0,0.0,0.0,0.0,0.0,0.0,0.0,0.0,0.0,0.0,0.0,0.0,0.0,0.0,0.0,0.0,0.0,0.0,0.0,0.0,0.0,0.0,0.0,0.0,0.0,0.0,0.0,0.0,0.0,0.0,0.0,0.0,0.0,0.0,0.0,0.0,0.0,0.0,0.0,0.0,0.0,0.0,0.0,0.0,0.0,0.0,0.0,0.0,0.0,0.0,0.0,0.0,0.0,0.0,0.0,0.0,0.0,0.0,0.0,0.0,0.0,0.0,0.0,0.0,0.0,0.0,0.0,0.0,0.0,0.0,0.0,0.0,0.0,0.0,0.0,0.0,0.0,0.0,0.0,0.0,0.0,0.0,0.0,0.0,0.0,0.0,-2.4746,-2.5504,-2.5051,-2.5137,-2.5834,0.0,0.0,0.0,0.0,0.0,0.0,0.0,0.0,0.0,0.0,0.0,0.0,0.0,0.0,0.0,0.0,0.0,0.0,0.0,0.0,0.0,0.0,0.0,0.0,0.0,0.0,0.0,0.0,0.0,0.0,0.0,0.0,0.0,0.0,0.0,0.0,0.0,0.0,0.0,0.0,0.0,0.0,0.0,0.0,0.0,0.0,0.0,0.0,0.0,0.0,0.0,0.0,0.0,0.0,0.0,0.0,0.0,0.0,0.0,0.0,0.0,0.0,0.0,0.0,0.0,0.0,0.0,0.0,0.0,0.0,0.0,0.0,0.0,0.0,0.0,0.0,0.0,0.0,0.0,0.0,0.0,0.0,0.0,0.0,0.0,0.0,0.0,0.0,0.0,0.0,0.0,0.0,0.0,0.0,0.0,0.0,0.0,0.0,0.0,0.0,0.0,0.0,0.0,0.0,0.0,0.0,0.0,0.0,0.0,0.0,0.0,0.0,-2.6617,-2.6693,-2.7328,0.0,0.0,0.0,0.0,0.0,0.0,0.0,0.0,0.0,0.0,0.0,0.0,0.0,0.0,0.0,0.0,0.0,0.0,0.0,0.0,0.0,0.0,0.0,0.0,0.0,0.0,0.0,0.0,0.0,0.0,0.0,0.0,0.0,0.0,0.0,0.0,0.0,0.0,0.0,0.0,0.0,0.0,0.0,0.0,0.0,0.0,0.0,0.0,0.0,0.0,0.0,0.0,0.0,0.0,0.0,0.0,0.0,0.0,0.0,0.0,0.0,0.0,0.0,0.0,0.0,0.0,0.0,0.0,0.0,0.0,0.0,0.0,0.0,0.0,0.0,0.0,0.0,0.0,0.0,0.0,0.0,0.0,0.0,0.0,0.0,0.0,0.0,0.0,0.0,0.0,0.0,0.0,0.0,0.0,0.0,0.0,0.0,0.0,0.0,0.0,0.0,0.0,0.0,0.0,0.0,0.0,0.0,0.0,0.0,0.0,-2.7911,-3.1038,-3.1066,0.0,-3.1314,0.0,0.0,0.0,0.0,0.0,0.0,0.0,0.0,0.0,0.0,0.0,0.0,0.0,0.0,0.0,0.0,0.0,0.0,0.0,0.0,0.0,0.0,0.0,0.0,0.0,0.0,0.0,0.0,0.0,0.0,0.0,0.0,0.0,0.0,0.0,0.0,0.0,0.0,0.0,0.0,0.0,0.0,0.0,0.0,0.0,0.0,0.0,0.0,0.0,0.0,0.0,0.0,0.0,0.0,0.0,0.0,0.0,0.0,0.0,0.0,0.0,0.0,0.0,0.0,0.0,0.0,0.0,0.0,0.0,0.0,0.0,0.0,0.0,0.0,0.0,0.0,0.0,0.0,0.0,0.0,0.0,0.0,0.0,0.0,0.0,0.0,0.0,0.0,0.0,0.0,0.0,0.0,0.0,0.0,0.0,0.0,0.0,0.0,0.0,0.0,0.0,0.0,0.0,0.0,0.0,0.0,0.0,0.0,0.0,0.0,-2.8429,-3.0747,-3.0809,-3.0243,0.0,0.0,0.0,0.0,0.0,0.0,0.0,0.0,0.0,0.0,0.0,0.0,0.0,0.0,0.0,0.0,0.0,0.0,0.0,0.0,0.0,0.0,0.0,0.0,0.0,0.0,0.0,0.0,0.0,0.0,0.0,0.0,0.0,0.0,0.0,0.0,0.0,0.0,0.0,0.0,0.0,0.0,0.0,0.0,0.0,0.0,0.0,0.0,0.0,0.0,0.0,0.0,0.0,0.0,0.0,0.0,0.0,0.0,0.0,0.0,0.0,0.0,0.0,0.0,0.0,0.0,0.0,0.0,0.0,0.0,0.0,0.0,0.0,0.0,0.0,0.0,0.0,0.0,0.0,0.0,0.0,0.0,0.0,0.0,0.0,0.0,0.0,0.0,0.0,0.0,0.0,0.0,0.0,0.0,0.0,0.0,0.0,0.0,0.0,0.0,0.0,0.0,0.0,0.0,0.0,0.0,0.0,0.0,0.0,0.0,-2.9514,-3.0099,-3.2008,-3.1127,-2.9973,-2.882,0.0,0.0,0.0,0.0,0.0,0.0,0.0,0.0,0.0,0.0,0.0,0.0,0.0,0.0,0.0,0.0,0.0,0.0,0.0,0.0,0.0,0.0,0.0,0.0,0.0,0.0,0.0,0.0,0.0,0.0,0.0,0.0,0.0,0.0,0.0,0.0,0.0,0.0,0.0,0.0,0.0,0.0,0.0,0.0,0.0,0.0,0.0,0.0,0.0,0.0,0.0,0.0,0.0,0.0,0.0,0.0,0.0,0.0,0.0,0.0,0.0,0.0,0.0,0.0,0.0,0.0,0.0,0.0,0.0,0.0,0.0,0.0,0.0,0.0,0.0,0.0,0.0,0.0,0.0,0.0,0.0,0.0,0.0,0.0,0.0,0.0,0.0,0.0,0.0,0.0,0.0,0.0,0.0,0.0,0.0,0.0,0.0,0.0,0.0,0.0,0.0,0.0,0.0,0.0,0.0,0.0,0.0,0.0,-3.5669,-3.3567,-3.388,-3.6846,-3.3366,-3.2008,0.0,0.0,0.0,0.0,0.0,0.0,0.0,0.0,0.0,0.0,0.0,0.0,0.0,0.0,0.0,0.0,0.0,0.0,0.0,0.0,0.0,0.0,0.0,0.0,0.0,0.0,0.0,0.0,0.0,0.0,0.0,0.0,0.0,0.0,0.0,0.0,0.0,0.0,0.0,0.0,0.0,0.0,0.0,0.0,0.0,0.0,0.0,0.0,0.0,0.0,0.0,0.0,0.0,0.0,0.0,0.0,0.0,0.0,0.0,0.0,0.0,0.0,0.0,0.0,0.0,0.0,0.0,0.0,0.0,0.0,0.0,0.0,0.0,0.0,0.0,0.0,0.0,0.0,0.0,0.0,0.0,0.0,0.0,0.0,0.0,0.0,0.0,0.0,0.0,0.0,0.0,0.0,0.0,0.0,0.0,0.0,0.0,0.0,0.0,0.0,0.0,0.0,0.0,0.0,0.0,0.0,0.0,0.0,0.0,-3.1574,-3.2271,-3.366,-3.5679,-3.2963,-3.1821,0.0,0.0,0.0,0.0,0.0,0.0,0.0,0.0,0.0,0.0,0.0,0.0,0.0,0.0,0.0,0.0,0.0,0.0,0.0,0.0,0.0,0.0,0.0,0.0,0.0,0.0,0.0,0.0,0.0,0.0,0.0,0.0,0.0,0.0,0.0,0.0,0.0,0.0,0.0,0.0,0.0,0.0,0.0,0.0,0.0,0.0,0.0,0.0,0.0,0.0,0.0,0.0,0.0,0.0,0.0,0.0,0.0,0.0,0.0,0.0,0.0,0.0,0.0,0.0,0.0,0.0,0.0,0.0,0.0,0.0,0.0,0.0,0.0,0.0,0.0,0.0,0.0,0.0,0.0,0.0,0.0,0.0,0.0,0.0,0.0,0.0,0.0,0.0,0.0,0.0,0.0,0.0,0.0,0.0,0.0,0.0,0.0,0.0,0.0,0.0,0.0,0.0,0.0,0.0,0.0,0.0,0.0,0.0,0.0,-3.1055,0.0,-3.4697,-3.5162,-3.3016,-3.1526,0.0,0.0,0.0,0.0,0.0,0.0,0.0,0.0,0.0,0.0,0.0,0.0,0.0,0.0,0.0,0.0,0.0,0.0,0.0,0.0,0.0,0.0,0.0,0.0,0.0,0.0,0.0,0.0,0.0,0.0,0.0,0.0,0.0,0.0,0.0,0.0,0.0,0.0,0.0,0.0,0.0,0.0,0.0,0.0,0.0,0.0,0.0,0.0,0.0,0.0,0.0,0.0,0.0,0.0,0.0,0.0,0.0,0.0,0.0,0.0,0.0,0.0,0.0,0.0,0.0,0.0,0.0,0.0,0.0,0.0,0.0,0.0,0.0,0.0,0.0,0.0,0.0,0.0,0.0,0.0,0.0,0.0,0.0,0.0,0.0,0.0,0.0,0.0,0.0,0.0,0.0,0.0,0.0,0.0,0.0,0.0,0.0,0.0,0.0,0.0,0.0,0.0,0.0,0.0,0.0,0.0,0.0,0.0,-3.1856,-3.513,-3.6966,-3.7241,-3.6038,-3.3634,-3.1338,0.0,0.0,0.0,0.0,0.0,0.0,0.0,0.0,0.0,0.0,0.0,0.0,0.0,0.0,0.0,0.0,0.0,0.0,0.0,0.0,0.0,0.0,0.0,0.0,0.0,0.0,0.0,0.0,0.0,0.0,0.0,0.0,0.0,0.0,0.0,0.0,0.0,0.0,0.0,0.0,0.0,0.0,0.0,0.0,0.0,0.0,0.0,0.0,0.0,0.0,0.0,0.0,0.0,0.0,0.0,0.0,0.0,0.0,0.0,0.0,0.0,0.0,0.0,0.0,0.0,0.0,0.0,0.0,0.0,0.0,0.0,0.0,0.0,0.0,0.0,0.0,0.0,0.0,0.0,0.0,0.0,0.0,0.0,0.0,0.0,0.0,0.0,0.0,0.0,0.0,0.0,0.0,0.0,0.0,0.0,0.0,0.0,0.0,0.0,0.0,0.0,0.0,0.0,0.0,0.0,0.0,0.0,0.0,0.0,-3.2161,-3.3916,-3.5995,-3.7972,-3.3458,-3.1843,0.0,0.0,0.0,0.0,0.0,0.0,0.0,0.0,0.0,0.0,0.0,0.0,0.0,0.0,0.0,0.0,0.0,0.0,0.0,0.0,0.0,0.0,0.0,0.0,0.0,0.0,0.0,0.0,0.0,0.0,0.0,0.0,0.0,0.0,0.0,0.0,0.0,0.0,0.0,0.0,0.0,0.0,0.0,0.0,0.0,0.0,0.0,0.0,0.0,0.0,0.0,0.0,0.0,0.0,0.0,0.0,0.0,0.0,0.0,0.0,0.0,0.0,0.0,0.0,0.0,0.0,0.0,0.0,0.0,0.0,0.0,0.0,0.0,0.0,0.0,0.0,0.0,0.0,0.0,0.0,0.0,0.0,0.0,0.0,0.0,0.0,0.0,0.0,0.0,0.0,0.0,0.0,0.0,0.0,0.0,0.0,0.0,0.0,0.0,0.0,0.0,0.0,0.0,0.0,0.0,0.0,0.0,0.0,0.0,-3.3459,-3.5283,-3.7074,-3.8721,-3.4445,-3.274,-3.3933,0.0,0.0,0.0,0.0,0.0,0.0,0.0,0.0,0.0,0.0,0.0,0.0,0.0,0.0,0.0,0.0,0.0,0.0,0.0,0.0,0.0,0.0,0.0,0.0,0.0,0.0,0.0,0.0,0.0,0.0,0.0,0.0,0.0,0.0,0.0,0.0,0.0,0.0,0.0,0.0,0.0,0.0,0.0,0.0,0.0,0.0,0.0,0.0,0.0,0.0,0.0,0.0,0.0,0.0,0.0,0.0,0.0,0.0,0.0,0.0,0.0,0.0,0.0,0.0,0.0,0.0,0.0,0.0,0.0,0.0,0.0,0.0,0.0,0.0,0.0,0.0,0.0,0.0,0.0,0.0,0.0,0.0,0.0,0.0,0.0,0.0,0.0,0.0,0.0,0.0,0.0,0.0,0.0,0.0,0.0,0.0,0.0,0.0,0.0,0.0,0.0,0.0,0.0,0.0,0.0,0.0,0.0,0.0,-3.7908,-4.0223,-4.0358,-3.8328,-3.6502,-3.3964,0.0,0.0,0.0,0.0,0.0,0.0,0.0,0.0,0.0,0.0,0.0,0.0,0.0,0.0,0.0,0.0,0.0,0.0,0.0,0.0,0.0,0.0,0.0,0.0,0.0,0.0,0.0,0.0,0.0,0.0,0.0,0.0,0.0,0.0,0.0,0.0,0.0,0.0,0.0,0.0,0.0,0.0,0.0,0.0,0.0,0.0,0.0,0.0,0.0,0.0,0.0,0.0,0.0,0.0,0.0,0.0,0.0,0.0,0.0,0.0,0.0,0.0,0.0,0.0,0.0,0.0,0.0,0.0,0.0,0.0,0.0,0.0,0.0,0.0,0.0,0.0,0.0,0.0,0.0,0.0,0.0,0.0,0.0,0.0,0.0,0.0,0.0,0.0,0.0,0.0,0.0,0.0,0.0,0.0,0.0,0.0,0.0,0.0,0.0,0.0,0.0,0.0,0.0,0.0,0.0,0.0,0.0,0.0,0.0,-3.8153,-4.1735,-4.3132,-4.1948,-3.7855,-3.5182,0.0,0.0,0.0,0.0,0.0,0.0,0.0,0.0,0.0,0.0,0.0,0.0,0.0,0.0,0.0,0.0,0.0,0.0,0.0,0.0,0.0,0.0,0.0,0.0,0.0,0.0,0.0,0.0,0.0,0.0,0.0,0.0,0.0,0.0,0.0,0.0,0.0,0.0,0.0,0.0,0.0,0.0,0.0,0.0,0.0,0.0,0.0,0.0,0.0,0.0,0.0,0.0,0.0,0.0,0.0,0.0,0.0,0.0,0.0,0.0,0.0,0.0,0.0,0.0,0.0,0.0,0.0,0.0,0.0,0.0,0.0,0.0,0.0,0.0,0.0,0.0,0.0,0.0,0.0,0.0,0.0,0.0,0.0,0.0,0.0,0.0,0.0,0.0,0.0,0.0,0.0,0.0,0.0,0.0,0.0,0.0,0.0,0.0,0.0,0.0,0.0,0.0,0.0,0.0,0.0,0.0,0.0,0.0,-3.8102,-3.9885,-4.3222,-4.4708,-4.4273,-4.0654,-3.7469,0.0,0.0,0.0,0.0,0.0,0.0,0.0,0.0,0.0,0.0,0.0,0.0,0.0,0.0,0.0,0.0,0.0,0.0,0.0,0.0,0.0,0.0,0.0,0.0,0.0,0.0,0.0,0.0,0.0,0.0,0.0,0.0,0.0,0.0,0.0,0.0,0.0,0.0,0.0,0.0,0.0,0.0,0.0,0.0,0.0,0.0,0.0,0.0,0.0,0.0,0.0,0.0,0.0,0.0,0.0,0.0,0.0,0.0,0.0,0.0,0.0,0.0,0.0,0.0,0.0,0.0,0.0,0.0,0.0,0.0,0.0,0.0,0.0,0.0,0.0,0.0,0.0,0.0,0.0,0.0,0.0,0.0,0.0,0.0,0.0,0.0,0.0,0.0,0.0,0.0,0.0,0.0,0.0,0.0,0.0,0.0,0.0,0.0,0.0,0.0,0.0,0.0,0.0,0.0,0.0,0.0,0.0,0.0,-3.912,-4.1855,-4.4122,-4.5273,-4.5306,-4.3575,-3.987,0.0,0.0,0.0,0.0,0.0,0.0,0.0,0.0,0.0,0.0,0.0,0.0,0.0,0.0,0.0,0.0,0.0,0.0,0.0,0.0,0.0,0.0,0.0,0.0,0.0,0.0,0.0,0.0,0.0,0.0,0.0,0.0,0.0,0.0,0.0,0.0,0.0,0.0,0.0,0.0,0.0,0.0,0.0,0.0,0.0,0.0,0.0,0.0,0.0,0.0,0.0,0.0,0.0,0.0,0.0,0.0,0.0,0.0,0.0,0.0,0.0,0.0,0.0,0.0,0.0,0.0,0.0,0.0,0.0,0.0,0.0,0.0,0.0,0.0,0.0,0.0,0.0,0.0,0.0,0.0,0.0,0.0,0.0,0.0,0.0,0.0,0.0,0.0,0.0,0.0,0.0,0.0,0.0,0.0,0.0,0.0,0.0,0.0,0.0,0.0,0.0,0.0,0.0,0.0,0.0,0.0,0.0,0.0,-3.7809,-3.9598,-4.2749,-4.4651,-4.5098,-4.2141,-3.8515,0.0,0.0,0.0,0.0,0.0,0.0,0.0,0.0,0.0,0.0,0.0,0.0,0.0,0.0,0.0,0.0,0.0,0.0,0.0,0.0,0.0,0.0,0.0,0.0,0.0,0.0,0.0,0.0,0.0,0.0,0.0,0.0,0.0,0.0,0.0,0.0,0.0,0.0,0.0,0.0,0.0,0.0,0.0,0.0,0.0,0.0,0.0,0.0,-3.2122,0.0,0.0,0.0,0.0,0.0,0.0,0.0,0.0,0.0,0.0,0.0,0.0,0.0,0.0,0.0,0.0,0.0,0.0,0.0,0.0,0.0,0.0,0.0,0.0,0.0,0.0,0.0,0.0,0.0,0.0,0.0,0.0,0.0,0.0,0.0,0.0,0.0,0.0,0.0,0.0,0.0,0.0,0.0,0.0,0.0,0.0,0.0,0.0,0.0,0.0,0.0,0.0,0.0,0.0,0.0,0.0,0.0,0.0,0.0,-3.7824,-4.024,-4.2391,-4.3913,-4.4795,-4.1766,-3.8463,0.0,0.0,0.0,0.0,0.0,0.0,0.0,0.0,0.0,0.0,0.0,0.0,0.0,0.0,0.0,0.0,0.0,0.0,0.0,0.0,0.0,0.0,0.0,0.0,0.0,0.0,0.0,0.0,0.0,0.0,0.0,0.0,0.0,0.0,0.0,0.0,0.0,0.0,0.0,0.0,0.0,0.0,0.0,0.0,0.0,0.0,0.0,0.0,0.0,0.0,0.0,0.0,0.0,0.0,0.0,0.0,0.0,0.0,0.0,0.0,0.0,0.0,0.0,0.0,0.0,0.0,0.0,0.0,0.0,0.0,0.0,0.0,0.0,0.0,0.0,0.0,0.0,0.0,0.0,0.0,0.0,0.0,0.0,0.0,0.0,0.0,0.0,0.0,0.0,0.0,0.0,0.0,0.0,0.0,0.0,0.0,0.0,0.0,0.0,0.0,0.0,0.0,0.0,0.0,0.0,0.0,0.0,-3.5582,-3.8246,-4.1264,-4.2243,-4.3248,-4.4524,-4.1745,-3.8801,-3.5919,0.0,0.0,0.0,0.0,0.0,0.0,0.0,0.0,0.0,0.0,0.0,0.0,0.0,0.0,0.0,0.0,0.0,0.0,0.0,0.0,0.0,0.0,0.0,0.0,0.0,0.0,0.0,0.0,0.0,0.0,0.0,0.0,0.0,0.0,0.0,0.0,0.0,0.0,-2.7737,-2.8962,0.0,0.0,0.0,0.0,0.0,0.0,0.0,0.0,-3.4144,0.0,0.0,0.0,0.0,0.0,0.0,0.0,0.0,0.0,0.0,0.0,0.0,0.0,0.0,0.0,0.0,0.0,0.0,0.0,0.0,0.0,0.0,0.0,0.0,0.0,0.0,0.0,0.0,0.0,0.0,0.0,0.0,0.0,0.0,0.0,0.0,0.0,0.0,0.0,0.0,0.0,0.0,0.0,0.0,0.0,0.0,0.0,0.0,0.0,0.0,0.0,0.0,0.0,0.0,0.0,0.0,-3.3457,-3.548,-3.7563,-3.9715,-4.152,-4.2784,-4.3446,-4.095,-3.8312,-3.5653,0.0,0.0,0.0,0.0,0.0,0.0,0.0,0.0,0.0,0.0,0.0,0.0,0.0,0.0,0.0,0.0,0.0,0.0,0.0,0.0,0.0,0.0,0.0,0.0,0.0,0.0,0.0,0.0,0.0,0.0,0.0,0.0,0.0,0.0,0.0,0.0,0.0,0.0,0.0,-3.1461,-3.3318,0.0,0.0,0.0,0.0,0.0,0.0,0.0,0.0,-3.5484,0.0,0.0,0.0,0.0,0.0,0.0,0.0,0.0,0.0,0.0,0.0,0.0,0.0,0.0,0.0,0.0,0.0,0.0,0.0,0.0,0.0,0.0,0.0,0.0,0.0,0.0,0.0,0.0,0.0,0.0,0.0,0.0,0.0,0.0,0.0,0.0,0.0,0.0,0.0,0.0,0.0,0.0,0.0,0.0,0.0,0.0,0.0,0.0,0.0,0.0,0.0,0.0,0.0,0.0,0.0,-3.3066,-3.531,-3.7434,-3.9379,-4.1025,-4.2013,-4.2252,-3.9768,-3.7315,0.0,0.0,0.0,0.0,0.0,0.0,0.0,0.0,0.0,0.0,0.0,0.0,0.0,0.0,0.0,0.0,0.0,0.0,0.0,0.0,0.0,0.0,0.0,0.0,0.0,0.0,0.0,0.0,0.0,0.0,0.0,0.0,0.0,0.0,0.0,0.0,0.0,0.0,0.0,0.0,-3.1759,-3.3149,-3.2424,0.0,0.0,0.0,0.0,0.0,0.0,-3.6299,-3.6363,0.0,0.0,0.0,0.0,0.0,0.0,0.0,0.0,0.0,0.0,0.0,0.0,0.0,0.0,0.0,0.0,0.0,0.0,0.0,0.0,0.0,0.0,0.0,0.0,0.0,0.0,0.0,0.0,0.0,0.0,0.0,0.0,0.0,0.0,0.0,0.0,0.0,0.0,0.0,0.0,0.0,0.0,0.0,0.0,0.0,0.0,0.0,0.0,0.0,0.0,0.0,0.0,0.0,0.0,0.0,-3.2347,-3.507,-3.7375,-3.917,-4.0636,-4.1324,-4.1145,-3.8721,-3.6417,0.0,0.0,0.0,0.0,0.0,0.0,0.0,0.0,0.0,0.0,0.0,0.0,0.0,0.0,0.0,0.0,0.0,0.0,0.0,0.0,0.0,0.0,0.0,0.0,0.0,0.0,0.0,0.0,0.0,0.0,0.0,0.0,0.0,0.0,0.0,0.0,0.0,0.0,0.0,0.0,0.0,-3.3457,-3.3051,-3.4472,0.0,0.0,0.0,0.0,-3.7023,-3.7802,0.0,0.0,0.0,0.0,0.0,0.0,0.0,0.0,0.0,0.0,0.0,0.0,0.0,0.0,0.0,0.0,0.0,0.0,0.0,0.0,0.0,0.0,0.0,0.0,0.0,0.0,0.0,0.0,0.0,0.0,0.0,0.0,0.0,0.0,0.0,0.0,0.0,0.0,0.0,0.0,0.0,0.0,0.0,0.0,0.0,0.0,0.0,0.0,0.0,0.0,0.0,0.0,0.0,0.0,0.0,0.0,-3.1719,-3.4831,-3.7135,-3.8512,-4.0397,-4.1115,-4.0516,-3.8482,-3.6207,0.0,0.0,0.0,0.0,0.0,0.0,0.0,0.0,0.0,0.0,0.0,0.0,0.0,0.0,0.0,0.0,0.0,0.0,0.0,0.0,0.0,0.0,0.0,0.0,0.0,0.0,0.0,0.0,0.0,0.0,0.0,0.0,0.0,0.0,0.0,0.0,0.0,0.0,0.0,0.0,0.0,-3.7483,-3.552,-3.7652,-3.9039,0.0,0.0,-3.7571,-3.7675,-3.912,0.0,0.0,0.0,0.0,0.0,0.0,0.0,0.0,0.0,0.0,0.0,0.0,0.0,0.0,0.0,0.0,0.0,0.0,0.0,0.0,0.0,0.0,0.0,0.0,0.0,0.0,0.0,0.0,0.0,0.0,0.0,0.0,0.0,0.0,0.0,0.0,0.0,0.0,0.0,0.0,0.0,0.0,0.0,0.0,0.0,0.0,0.0,0.0,0.0,0.0,0.0,0.0,0.0,0.0,0.0,-3.0582,-3.1541,-3.4442,-3.6387,-3.7315,-3.8871,-3.9349,-3.8721,-3.6417,-3.4472,0.0,0.0,0.0,0.0,0.0,0.0,0.0,0.0,0.0,0.0,0.0,0.0,0.0,0.0,0.0,0.0,0.0,0.0,0.0,0.0,0.0,0.0,0.0,0.0,0.0,0.0,0.0,0.0,0.0,0.0,0.0,0.0,0.0,0.0,0.0,0.0,0.0,0.0,0.0,0.0,0.0,0.0,-3.5723,-3.7411,0.0,0.0,0.0,-3.8205,-3.8351,0.0,0.0,0.0,0.0,0.0,0.0,0.0,0.0,0.0,0.0,0.0,0.0,0.0,0.0,0.0,0.0,0.0,0.0,0.0,0.0,0.0,0.0,0.0,0.0,0.0,0.0,0.0,0.0,0.0,0.0,0.0,0.0,0.0,0.0,0.0,0.0,0.0,0.0,0.0,0.0,0.0,0.0,0.0,0.0,0.0,0.0,0.0,0.0,0.0,0.0,0.0,0.0,0.0,0.0,0.0,0.0,0.0,-3.1539,-3.3814,-3.5489,-3.6477,-3.7584,-3.7823,-3.7165,-3.4921,0.0,0.0,0.0,0.0,0.0,0.0,0.0,0.0,0.0,0.0,0.0,0.0,0.0,0.0,0.0,0.0,0.0,0.0,0.0,0.0,0.0,0.0,0.0,0.0,0.0,0.0,0.0,-2.2712,0.0,0.0,0.0,0.0,0.0,0.0,0.0,0.0,0.0,0.0,0.0,0.0,0.0,0.0,-3.6157,-3.632,-3.7601,-3.828,0.0,0.0,-3.8744,-3.855,-3.8904,-3.8122,0.0,0.0,0.0,0.0,0.0,0.0,0.0,0.0,0.0,0.0,0.0,0.0,0.0,0.0,0.0,0.0,0.0,0.0,0.0,0.0,0.0,0.0,0.0,0.0,0.0,0.0,0.0,0.0,0.0,0.0,0.0,0.0,0.0,0.0,0.0,0.0,0.0,0.0,0.0,0.0,0.0,0.0,0.0,0.0,0.0,0.0,0.0,0.0,0.0,0.0,0.0,0.0,0.0,0.0,0.0,-3.1452,-3.2916,-3.4562,-3.6417,-3.7135,-3.7165,-3.6567,-3.516,-3.3784,0.0,0.0,0.0,0.0,0.0,0.0,0.0,0.0,0.0,0.0,0.0,0.0,0.0,0.0,0.0,0.0,0.0,0.0,0.0,0.0,0.0,0.0,0.0,0.0,0.0,0.0,0.0,0.0,0.0,0.0,0.0,0.0,0.0,0.0,0.0,0.0,0.0,0.0,0.0,0.0,0.0,-3.7822,-3.8344,-3.9684,-4.0577,0.0,0.0,-3.911,-3.7871,-3.9146,-3.8742,-3.4328,0.0,0.0,0.0,0.0,0.0,0.0,0.0,0.0,0.0,0.0,0.0,0.0,0.0,0.0,0.0,0.0,0.0,0.0,0.0,0.0,0.0,0.0,0.0,0.0,0.0,0.0,0.0,0.0,0.0,0.0,0.0,0.0,0.0,0.0,0.0,0.0,0.0,0.0,0.0,0.0,0.0,0.0,0.0,0.0,0.0,0.0,0.0,0.0,0.0,0.0,0.0,0.0,0.0,-2.9564,-3.1509,-3.2437,-3.3873,-3.5789,-3.6118,-3.6118,-3.5878,-3.4592,-3.3066,0.0,0.0,0.0,0.0,0.0,0.0,0.0,0.0,0.0,0.0,0.0,0.0,0.0,0.0,0.0,0.0,0.0,0.0,0.0,0.0,0.0,0.0,0.0,0.0,0.0,0.0,0.0,0.0,-2.34,-2.358,-2.4388,0.0,0.0,0.0,0.0,0.0,0.0,0.0,0.0,0.0,0.0,-3.6275,-3.7778,-3.8428,0.0,0.0,-3.8172,-3.794,-3.7096,-3.7158,-3.6507,-3.3903,-3.3125,0.0,0.0,0.0,0.0,0.0,0.0,0.0,0.0,0.0,0.0,0.0,0.0,0.0,0.0,0.0,0.0,0.0,0.0,0.0,0.0,0.0,0.0,0.0,0.0,0.0,0.0,0.0,0.0,0.0,0.0,0.0,0.0,0.0,0.0,0.0,0.0,0.0,0.0,0.0,0.0,0.0,0.0,0.0,0.0,0.0,0.0,0.0,0.0,0.0,0.0,0.0,0.0,-2.9445,-3.1779,-3.2078,-3.3305,-3.5459,-3.5489,-3.5489,-3.5459,-3.4382,-3.2946,0.0,0.0,0.0,0.0,0.0,0.0,0.0,0.0,0.0,0.0,0.0,0.0,0.0,0.0,0.0,0.0,0.0,0.0,0.0,0.0,0.0,0.0,0.0,0.0,0.0,0.0,0.0,0.0,-2.4118,-2.4358,-2.5495,0.0,0.0,0.0,0.0,0.0,0.0,0.0,0.0,0.0,0.0,-3.5492,-3.7514,-3.7782,-3.7614,-3.7404,-3.7404,-3.7255,-3.6836,-3.6058,-3.4981,-3.3455,0.0,0.0,0.0,0.0,0.0,0.0,0.0,0.0,0.0,0.0,0.0,0.0,0.0,0.0,0.0,0.0,0.0,0.0,0.0,0.0,0.0,0.0,0.0,0.0,0.0,0.0,0.0,0.0,0.0,0.0,0.0,0.0,0.0,0.0,0.0,0.0,0.0,0.0,0.0,0.0,0.0,0.0,0.0,0.0,0.0,0.0,0.0,0.0,0.0,0.0,0.0,0.0,0.0,-2.9235,-3.2407,-3.1898,-3.2856,-3.54,-3.5489,-3.5489,-3.5489,-3.4831,-3.3814,-3.2467,0.0,0.0,0.0,0.0,0.0,0.0,0.0,0.0,0.0,0.0,0.0,0.0,0.0,0.0,0.0,0.0,0.0,0.0,0.0,0.0,0.0,0.0,0.0,0.0,0.0,0.0,-2.6363,-2.5375,-2.4851,0.0,0.0,0.0,0.0,0.0,0.0,0.0,0.0,0.0,0.0,-3.4622,-3.6148,-3.8072,-3.8332,-3.8482,-3.914,-3.8182,-3.7375,-3.7315,-3.6297,-3.4831,0.0,0.0,0.0,0.0,0.0,0.0,0.0,0.0,0.0,0.0,0.0,0.0,0.0,0.0,0.0,0.0,0.0,0.0,0.0,0.0,0.0,0.0,0.0,0.0,0.0,0.0,0.0,-4.0087,-4.0087,0.0,0.0,0.0,0.0,0.0,0.0,0.0,0.0,0.0,0.0,0.0,-3.7058,-3.8241,0.0,0.0,0.0,0.0,0.0,0.0,0.0,0.0,0.0,0.0,0.0,0.0,-2.9654,-3.2347,-3.2287,-3.3245,-3.5429,-3.5489,-3.5489,-3.5489,-3.4831,-3.3425,-3.124,0.0,0.0,0.0,0.0,0.0,0.0,0.0,0.0,0.0,0.0,0.0,0.0,0.0,0.0,0.0,0.0,0.0,0.0,0.0,0.0,0.0,0.0,0.0,0.0,0.0,-2.6752,0.0,0.0,0.0,0.0,0.0,0.0,0.0,0.0,0.0,0.0,0.0,-3.0894,-3.2931,-3.4534,-3.5908,-3.6985,-3.7135,-3.7195,0.0,0.0,0.0,0.0,0.0,0.0,0.0,0.0,0.0,0.0,0.0,0.0,0.0,0.0,-2.93,-2.7867,-2.7271,-2.6878,-2.6611,0.0,0.0,0.0,0.0,0.0,0.0,0.0,0.0,0.0,0.0,0.0,0.0,0.0,0.0,0.0,0.0,-4.1271,0.0,0.0,0.0,0.0,0.0,0.0,0.0,0.0,-3.9343,-3.9406,-3.8121,-3.9349,-3.8344,0.0,-3.5523,-3.3696,0.0,0.0,0.0,0.0,0.0,0.0,0.0,0.0,-3.0133,-3.2407,-3.2527,-3.3484,-3.54,-3.5489,-3.5489,-3.5489,-3.4382,-3.2856,-3.0911,-2.8786,-2.732,0.0,0.0,0.0,0.0,0.0,0.0,0.0,0.0,0.0,0.0,0.0,0.0,0.0,0.0,0.0,0.0,0.0,0.0,0.0,0.0,0.0,0.0,0.0,-2.7965,0.0,0.0,0.0,0.0,0.0,0.0,0.0,0.0,0.0,-2.9608,-3.0135,-3.1197,-3.3265,-3.4272,-3.5127,-3.6143,0.0,0.0,0.0,0.0,0.0,0.0,0.0,-3.4026,-3.317,-3.2213,-3.14,-3.1061,-3.0432,-2.9999,-2.9792,0.0,0.0,-2.7846,-2.7444,-2.7318,-2.7318,-2.7293,-2.7369,-2.7573,-2.7523,-2.7595,0.0,0.0,0.0,0.0,0.0,0.0,0.0,0.0,-4.2003,-4.2692,0.0,-4.161,0.0,0.0,0.0,0.0,0.0,0.0,0.0,0.0,-4.1152,-4.1,-3.8942,-3.9614,-3.8372,-3.5764,-3.6746,-3.5968,-3.3395,-3.0911,0.0,0.0,0.0,0.0,0.0,0.0,-3.0582,-3.2497,-3.2587,-3.3544,-3.54,-3.5489,-3.5489,-3.5459,-3.3604,-3.2258,-3.1569,-3.0223,-2.8637,-2.6811,-2.7829,0.0,0.0,0.0,0.0,0.0,0.0,0.0,0.0,0.0,0.0,0.0,0.0,0.0,0.0,0.0,0.0,0.0,0.0,0.0,0.0,-2.8757,0.0,0.0,0.0,0.0,0.0,0.0,0.0,0.0,0.0,0.0,-3.1073,-3.2022,-3.2873,-3.408,0.0,0.0,0.0,0.0,-3.5379,-3.6283,-3.6447,-3.6417,-3.6387,-3.5058,-3.3609,-3.2371,0.0,0.0,-2.9101,-2.9402,-2.9603,-2.9051,-2.9001,-2.9101,-2.9628,-2.9176,-2.875,-2.88,-2.8021,-2.7598,-2.7903,-2.7476,-2.6992,-5.1242,0.0,0.0,0.0,0.0,-4.5866,-4.6309,-4.78,-4.6522,-4.5771,-4.5297,-4.391,0.0,0.0,0.0,0.0,0.0,0.0,-3.9208,-3.9057,-4.0621,-4.0696,-3.9524,-4.0196,-3.919,-3.6896,-3.6776,-3.5639,-3.3514,-3.2258,-3.133,-3.0702,0.0,0.0,0.0,0.0,-3.121,-3.3095,-3.3664,-3.4412,-3.5489,-3.5489,-3.5489,-3.5489,-3.4023,-3.2916,-3.2258,-3.0073,-2.8846,-2.8697,-2.729,0.0,0.0,0.0,0.0,0.0,0.0,0.0,0.0,0.0,0.0,0.0,0.0,0.0,0.0,0.0,0.0,0.0,0.0,0.0,-2.8816,-2.7542,-2.7035,0.0,0.0,0.0,0.0,0.0,0.0,0.0,0.0,0.0,-3.1113,-3.1589,-3.2225,0.0,0.0,-3.5062,-3.479,-3.5091,-3.52,-3.4738,0.0,0.0,0.0,-3.5085,-3.4574,-3.3042,-3.1748,-3.066,-2.9681,-2.9679,-2.9729,-2.9553,-2.9528,-2.9578,-2.9679,-2.8975,-2.8425,-2.8299,-2.8373,-2.8524,-2.8625,-2.87,-2.8725,-5.539,-5.2669,-4.9719,-4.8612,-4.882,-4.7994,-4.83,-4.9355,-4.8031,-4.7462,-4.7327,-4.5737,-4.391,-4.2016,-4.0832,0.0,0.0,0.0,-4.046,-4.0746,-4.1565,-4.1337,-4.032,-4.0672,-3.9596,-3.7404,-3.6776,-3.5878,-3.4651,-3.3754,-3.3095,-3.2647,0.0,0.0,-3.13,-3.1539,-3.2287,-3.3455,-3.4143,-3.4801,-3.5489,-3.5489,-3.537,-3.507,-3.4053,-3.3066,-3.2138,-3.0103,-2.8786,-2.8397,-2.6871,-2.6123,0.0,0.0,0.0,0.0,0.0,0.0,0.0,0.0,0.0,0.0,0.0,-2.5615,-2.4672,0.0,0.0,0.0,-2.5319,-2.6769,-2.8267,-2.6989,0.0,0.0,0.0,0.0,0.0,0.0,0.0,-2.681,-2.7566,-2.8648,-3.0181,-3.0804,-3.15,-3.2894,-3.3846,-3.4233,-3.401,0.0,-3.4839,-3.461,-3.5133,-3.521,-3.444,-3.4347,-3.3704,-3.175,-3.0618,-2.9902,-2.9555,-2.9277,-2.9202,-2.9377,-2.9402,-2.9302,-2.9151,-2.8649,-2.8348,-2.8398,-2.8499,-2.8599,-2.8599,-2.8875,-2.9026,-5.8877,-5.773,-5.2672,-5.0398,-5.0042,-4.9591,-4.9326,-4.9045,-4.7758,-4.8206,-4.9763,-4.7022,-4.6075,-4.6346,-4.3639,0.0,-4.2286,-4.2354,-4.2692,-4.3335,-4.3348,-4.246,-4.0924,-4.0862,-3.9624,-3.7315,-3.6776,-3.6447,-3.6327,-3.516,-3.4562,-3.4532,-3.3365,-3.2706,-3.2617,-3.3185,-3.3514,-3.3574,-3.4233,-3.4861,-3.5489,-3.5459,-3.51,-3.4412,-3.3694,-3.2706,-3.1362,-3.0103,-2.8547,-2.6722,-2.6482,-2.5884,-2.4701,0.0,0.0,0.0,0.0,0.0,0.0,0.0,0.0,0.0,0.0,0.0,0.0,0.0,0.0,0.0,-2.5112,0.0,-2.6525,-2.6862,0.0,0.0,0.0,-2.74,-2.6653,-2.6646,-2.6867,-2.7314,0.0,0.0,-2.8976,0.0,-3.0934,-3.1938,-3.2121,-3.2417,-3.3266,-3.3691,-3.4254,-3.5014,-3.521,-3.4889,-3.3897,-3.2973,-3.1684,-2.9641,-2.8497,-2.8348,-2.8725,-2.8499,-2.8373,-2.8775,-2.8699,-2.8499,-2.8172,-2.8236,-2.8405,-2.8499,-2.8398,-2.8122,-2.8147,-2.8197,-2.8172,-6.0015,-5.9612,-5.7088,-5.5374,-5.4215,-5.3495,-5.3194,-5.3056,-5.1055,-4.983,-4.9154,-4.7327,-4.5669,-4.4181,-4.347,-4.2828,-4.232,-4.2895,-4.2929,-4.2537,-4.2489,-4.1639,-4.0158,-3.9471,-3.8323,-3.6783,-3.6567,-3.6237,-3.5729,-3.5429,-3.525,-3.525,-3.4951,-3.4292,-3.3305,-3.3425,-3.3754,-3.4233,-3.4921,-3.534,-3.5489,-3.4981,-3.4412,-3.3724,-3.2617,-3.139,-3.0073,-2.8809,-2.759,-2.6632,-2.5644,-2.4956,-2.4612,-2.5255,0.0,0.0,0.0,0.0,0.0,0.0,0.0,0.0,0.0,-2.6243,-2.5435,0.0,-2.6422,0.0,-2.4703,-2.5408,-2.7072,-2.615,0.0,0.0,-2.7636,-2.7733,-2.7213,-2.7767,-2.8145,-2.7921,-2.8298,-2.9001,-3.008,-3.008,-3.0231,-3.0884,-3.2146,-3.3078,-3.3028,-3.3198,-3.3454,-3.3587,-3.3303,-3.289,-3.2565,-3.1308,-3.0007,-2.9476,-2.8656,-2.8172,-2.8273,-2.8197,-2.8147,-2.8247,-2.7553,-2.7379,-2.7898,-2.6656,-2.5915,-2.6822,-2.7595,-2.8122,-2.8122,-2.8072,-2.7971,-6.0419,-6.0272,-5.8657,-5.7517,-5.6612,-5.5526,-5.4665,-5.3956,-5.2043,-5.0574,-4.939,-4.7936,-4.6413,-4.4925,-4.4587,-4.4045,-4.3369,-4.3741,-4.3538,-4.2828,-4.2758,-4.1584,-3.9422,-3.8934,-3.7807,-3.6058,-3.6058,-3.5848,-3.5519,-3.5489,-3.5489,-3.5489,-3.5489,-3.513,-3.4412,-3.4382,-3.4562,-3.4921,-3.531,-3.537,-3.504,-3.4681,-3.4023,-3.3066,-3.1779,-3.0462,-2.9175,-2.7859,-2.6961,-2.6602,-2.5884,-2.5375,-2.503,-2.5405,-2.5166,0.0,0.0,0.0,0.0,0.0,0.0,0.0,0.0,0.0,0.0,0.0,-2.5979,-2.5445,-2.5066,-2.5376,-2.6717,-2.5853,-2.5614,-2.6672,-2.7119,-2.7344,-2.7293,-2.795,-2.8325,-2.815,-2.8499,-2.895,-2.9424,-2.9226,-2.9151,-2.9453,-3.0755,-3.1675,-3.1761,-3.2026,-3.2198,-3.2132,-3.1914,-3.1462,-3.1065,-2.9415,-2.8161,-2.804,-2.729,-2.6716,-2.6917,-2.6791,-2.6716,-2.6892,-2.6446,-2.6102,-2.6502,-2.545,-2.4666,-2.5485,-2.6206,-2.659,-2.664,-2.664,-2.654,-6.0346,-6.0126,-5.8621,-5.7997,-5.7867,-5.6224,-5.4828,-5.3653,-5.1907,-5.0676,-4.9729,-4.8477,-4.7462,-4.6616,-4.6007,-4.5297,-4.4587,-4.4553,-4.4147,-4.3436,-4.3301,-4.1743,-3.8905,-3.8809,-3.7651,-3.5584,-3.5489,-3.5489,-3.5489,-3.5489,-3.5489,-3.5489,-3.5489,-3.5489,-3.5489,-3.5489,-3.5489,-3.5489,-3.5489,-3.522,-3.4622,-3.4442,-3.3724,-3.2407,-3.1091,-2.9714,-2.8278,-2.7081,-2.6393,-2.6213,-2.6213,-2.5944,-2.5405,-2.5435,-2.5226,0.0,-2.4761,0.0,0.0,0.0,0.0,0.0,0.0,0.0,0.0,-2.5005,-2.5123,-2.6329,-2.5743,-2.551,-2.5932,-2.573,-2.5636,-2.5711,-2.6214,-2.6861,-2.7344,-2.7752,-2.8027,-2.8102,-2.8474,-2.8499,-2.8251,-2.8075,-2.8122,-2.827,-2.8821,-2.9371,-2.9802,-3.0295,-3.0588,-3.071,-3.0505,-2.9789,-2.9053,-2.7498,-2.6307,-2.6206,-2.5586,-2.5008,-2.5485,-2.5209,-2.5008,-2.5385,-2.5391,-2.5138,-2.4863,-2.4434,-2.4215,-2.4672,-2.4684,-2.4657,-2.4908,-2.5034,-2.4833,-6.0052,-5.9355,-5.84,-5.7997,-5.7831,-5.5704,-5.4995,-5.512,-5.2392,-5.0135,-4.8342,-4.8037,-4.7192,-4.594,-4.5771,-4.5297,-4.4587,-4.4553,-4.4147,-4.3403,-4.2794,-4.1244,-3.8932,-3.827,-3.7121,-3.5554,-3.5489,-3.5489,-3.5489,-3.5489,-3.5489,-3.5489,-3.5489,-3.5489,-3.5489,0.0,0.0,0.0,-3.5489,-3.5429,-3.528,-3.4233,-3.3066,-3.1691,-3.0432,0.0,-2.6333,-2.5914,-2.5285,-2.4238,-2.4148,0.0,0.0,0.0,0.0,0.0,0.0,0.0,0.0,0.0,0.0,0.0,-2.6482,-2.6149,-2.5546,-2.5394,-2.5615,-2.6369,-2.619,-2.5809,-2.5342,-2.5461,-2.5787,-2.6264,-2.6791,-2.7344,-2.7871,-2.7777,-2.7827,-2.8074,-2.7975,-2.795,-2.8024,-2.8122,-2.8072,-2.7996,-2.7839,-2.7576,-2.7316,-2.805,-2.8714,-2.9187,-2.8203,-2.705,-2.6781,-2.5871,-2.5184,-2.5084,-2.5008,-2.4833,-2.4908,-2.4883,-2.4808,-2.4933,-2.462,-2.4419,-2.4693,-2.3954,-2.3516,-2.4066,-2.3401,-2.3201,-2.4531,-2.4808,-2.4833,-6.0162,0.0,-5.851,-5.7997,0.0,-5.5561,-5.4823,-5.4995,-5.1939,-4.983,-4.8477,-4.8477,-4.7631,-4.6244,-4.6244,-4.5635,-4.4553,-4.4181,-4.3572,-4.2828,-4.2083,-4.0775,-3.8878,-3.8155,-3.7175,-3.607,-3.5683,-3.5489,-3.5489,-3.5489,-3.5489,-3.5489,-3.5489,-3.5489,-3.5489,-3.5489,-3.5489,-3.5489,-3.516,-3.4861,-3.4502,-3.3544,-3.2377,-3.1061,0.0,0.0,0.0,0.0,0.0,0.0,0.0,0.0,0.0,0.0,0.0,-2.5166,-2.5734,-2.6093,-2.6123,-2.6722,-2.6961,-2.6632,-2.6574,-2.625,-2.5545,-2.6112,-2.6226,-2.5494,-2.588,-2.5716,-2.4719,-2.4963,-2.5435,-2.5963,-2.6289,-2.6565,-2.6841,-2.7247,-2.7301,-2.6955,-2.7001,-2.7047,-2.6911,-2.6841,-2.6866,-2.6866,-2.664,-2.6364,-2.6181,-2.6483,-2.6883,-2.6982,-2.6254,-2.5484,-2.5395,-2.4912,-2.4406,-2.4406,-2.418,-2.4004,-2.3979,-2.3979,-2.3979,-2.3979,-2.3753,-2.3678,-2.3853,-2.3441,-2.3125,-2.3135,-2.2673,-2.2523,-2.3427,-2.3577,-2.3577,-6.0236,-5.9869,-5.8547,-5.7997,-5.7794,-5.5574,-5.4311,-5.3626,0.0,0.0,0.0,-4.868,-4.7868,-4.6583,-4.6447,-4.5737,-4.4553,-4.3775,-4.2997,-4.2252,-4.1542,-4.04,-3.8941,-3.8246,-3.7499,-3.66,-3.6006,-3.5619,-3.5489,-3.5489,-3.5489,-3.5489,-3.5489,-3.5489,-3.5489,-3.5489,-3.5489,-3.5459,-3.4951,-3.4352,-3.3664,-3.3036,-3.2048,-3.0731,-2.9535,-2.8517,-2.764,-2.6542,-2.6363,-2.722,-2.723,-2.723,-2.723,-2.728,-2.6752,-2.5734,-2.5704,-2.5794,-2.5794,-2.6393,-2.6782,-2.6782,-2.6755,-2.6451,-2.5872,-2.6828,-2.6654,-2.4824,-2.5622,-2.5657,-2.4351,-2.457,-2.4983,-2.541,-2.546,-2.546,-2.5536,-2.6339,-2.6596,-2.5723,-2.6102,-2.6282,-2.5794,-2.5937,-2.5937,-2.5803,-2.5987,-2.5618,-2.5426,-2.535,-2.5214,-2.4734,-2.4532,-2.4456,-2.4456,-2.4155,-2.3879,-2.3828,-2.3452,-2.309,-2.3125,-2.3125,-2.3125,-2.3226,-2.3015,-2.3,-2.3,-2.2874,-2.2673,-2.2261,-2.2078,-2.202,-2.202,-2.202,-2.2171,-5.9612,-5.8327,-5.807,-5.7997,-5.7804,-5.5558,-5.3086,-5.0667,-5.0264,-4.9323,-4.8037,-4.7394,-4.665,-4.5805,-4.5196,-4.479,-4.4519,-4.3775,-4.2997,0.0,-4.1542,-4.04,-3.8908,-3.8799,-3.7987,-3.6661,-3.6508,-3.6102,-3.5554,-3.5489,-3.5489,-3.5489,-3.5489,-3.5489,-3.5489,-3.5489,-3.5489,-3.5489,-3.5429,-3.504,-3.4352,-3.3694,-3.2736,-3.145,-3.0642,-2.9385,-2.7649,-2.746,-2.6841,-2.5944,-2.5884,-2.5884,-2.5884,-2.5944,-2.5794,-2.5644,-2.6123,-2.6452,-2.6482,-2.7051,-2.749,-2.749,-2.7449,-2.7429,-2.7289,-2.6886,-2.6496,-2.6204,-2.6162,-2.5833,-2.5082,-2.4835,-2.4833,-2.4908,-2.4933,-2.4933,-2.4933,-2.546,-2.5661,-2.5043,-2.5887,-2.6257,-2.5744,-2.6554,-2.6919,-2.6527,-2.6191,-2.6051,-2.4672,-2.423,-2.3979,-2.3527,-2.3315,-2.3315,-2.3416,-2.3351,-2.324,-2.319,-2.3201,-2.3125,-2.3125,-2.3125,-2.3125,-2.304,-2.2749,-2.2498,-2.2422,-2.202,-2.1794,-2.1625,-2.1348,-2.1071,-2.1016,-2.1041,-2.1418,-5.9722,-5.8657,-5.818,-5.7997,-5.7804,-5.513,-5.2514,-5.0078,-4.9678,-4.8917,-4.7936,-4.7564,-4.6786,-4.5703,-4.5365,-4.4959,-4.4519,-4.3335,-4.2625,-4.2219,-4.1102,-4.0238,-3.9592,-3.9102,-3.8325,-3.7263,-3.6783,-3.6228,-3.5554,-3.5489,-3.5489,-3.5489,-3.5489,-3.5489,-3.5489,-3.5489,-3.5489,-3.5489,-3.513,-3.4801,-3.4535,-3.3484,-3.2497,-3.1482,-3.0851,-2.9953,-2.8727,-2.8667,-2.8368,-2.7799,-2.741,-2.723,-2.723,-2.6871,-2.6662,-2.6692,-2.6961,-2.7141,-2.7111,-2.743,-2.756,-2.759,-2.7919,-2.7979,-2.759,-2.7306,-2.6945,-2.6525,-2.6049,-2.5622,-2.5123,-2.4643,-2.4356,-2.4381,-2.4632,-2.4556,-2.413,-2.4682,-2.4933,-2.457,-2.5167,-2.5627,-2.5344,-2.619,-2.6501,-2.5845,-2.5599,-2.4847,-2.3714,-2.3527,-2.3452,-2.314,-2.3125,-2.3125,-2.3125,-2.3125,-2.3125,-2.3125,-2.3125,-2.3125,-2.3125,-2.3125,-2.294,-2.2749,-2.2447,-2.2196,-2.1945,-2.1694,-2.1418,-2.1066,-2.0945,-2.0718,-2.0743,-2.0891,-2.1393,-5.9832,-5.8877,-5.8253,-5.7776,-5.7244,-5.4645,-5.2284,-5.0283,-4.9406,-4.8511,-4.7733,-4.7665,-4.6921,-4.5771,-4.5534,-4.5026,-4.4215,-4.2929,-4.2219,-4.1914,-4.0663,-4.0087,-4.0037,-3.942,-3.869,-3.7822,-3.7144,-3.6415,-3.5619,-3.5489,-3.5489,-3.5489,-3.5489,-3.5489,-3.5489,-3.5489,-3.5489,-3.5459,-3.4981,-3.4651,-3.4442,-3.3484,-3.2587,-3.1779,-3.124,-3.0582,-2.9864,-2.9804,-2.9744,-2.9564,-2.9086,-2.8757,-2.8607,-2.8098,-2.779,-2.767,-2.7709,-2.7799,-2.7799,-2.77,-2.756,-2.761,-2.8068,-2.8128,-2.773,-2.776,-2.7505,-2.6817,-2.6101,-2.5543,-2.5308,-2.4664,-2.418,-2.4205,-2.4431,-2.4305,-2.3602,-2.413,-2.452,-2.4191,-2.4745,-2.5248,-2.5236,-2.5754,-2.5967,-2.5327,-2.4474,-2.3753,-2.3276,-2.3125,-2.3125,-2.3125,-2.3125,-2.3125,-2.3125,-2.3125,-2.3125,-2.3125,-2.3125,-2.3125,-2.31,-2.299,-2.2765,-2.2397,-2.2071,-2.1744,-2.1393,-2.1142,-2.0916,-2.0539,-2.0413,-2.0439,-2.0492,-2.069,-2.1192,-5.9501,-5.8217,-5.8033,-5.7152,-5.577,-5.4179,-5.2555,-5.0908,-4.958,-4.8206,-4.6989,-4.6921,-4.6481,-4.5669,-4.4993,-4.4316,-4.3572,-4.2658,-4.1982,-4.1305,-4.046,-4.0087,-4.0087,-4.0003,-3.9209,-3.7937,-3.7706,-3.6906,-3.5554,-3.5489,-3.5489,-3.5489,-3.5489,-3.5489,-3.5489,-3.5489,-3.5489,-3.5489,-3.5459,-3.51,-3.4502,-3.4352,-3.3694,-3.2467,-3.2377,-3.1719,-3.0522,-3.0432,-3.0163,-2.9654,-2.9535,-2.9235,-2.8697,-2.8547,-2.8218,-2.7679,-2.8158,-2.8517,-2.8457,-2.7919,-2.7619,-2.756,-2.779,-2.7739,-2.77,-2.8158,-2.8218,-2.755,-2.6688,-2.6183,-2.6034,-2.5344,-2.4861,-2.4835,-2.4406,-2.4029,-2.3929,-2.4004,-2.414,-2.4253,-2.5205,-2.5667,-2.536,-2.6081,-2.6375,-2.5203,-2.4372,-2.3728,-2.319,-2.3125,-2.3125,-2.3125,-2.3125,-2.3125,-2.3125,-2.3125,-2.3125,-2.3125,-2.3125,-2.304,-2.294,-2.2698,-2.2322,-2.1995,-2.1493,-2.0966,-2.074,-2.0363,-2.0037,-2.0162,-2.0062,-1.9911,-1.9886,-2.0012,-2.0388,-5.9024,-5.7997,-5.7997,-5.7068,-5.5583,-5.4116,-5.2568,-5.1032,-4.9129,-4.7767,-4.6819,-4.6346,-4.5737,-4.5026,-4.4688,-4.4384,-4.4045,-4.3301,-4.2557,-4.1813,-4.1068,-4.0527,-4.0121,-4.0087,-3.9295,-3.7937,-3.7822,-3.6995,-3.5718,-3.5489,-3.5699,-3.5998,-3.5729,-3.5489,-3.5489,-3.5489,-3.5489,-3.5489,-3.5489,-3.537,-3.507,-3.4681,-3.4233,-3.3694,-3.3305,-3.2677,-3.1809,-3.1689,-3.139,-3.0761,-3.0342,-3.0013,-2.9744,-2.9026,-2.8667,-2.8757,-2.9026,-2.8996,-2.8607,-2.8697,-2.8577,-2.8218,-2.8876,-2.9026,-2.8308,-2.9116,-2.9445,-2.88,-2.8016,-2.7655,-2.7849,-2.6862,-2.6039,-2.5897,-2.5129,-2.4356,-2.4029,-2.4448,-2.4632,-2.4472,-2.5751,-2.6378,-2.5547,-2.5398,-2.5196,-2.4538,-2.3912,-2.3401,-2.315,-2.3125,-2.3125,-2.3125,-2.3125,-2.3125,-2.3125,-2.3125,-2.3125,-2.3125,-2.3125,-2.3015,-2.2723,-2.2523,-2.2146,-2.1518,-2.1016,-2.0743,-2.0769,-2.0238,-1.9861,-2.0012,-1.9936,-1.9811,-1.9811,-1.9811,-2.0188,-5.8731,-5.8033,-5.7997,-5.7094,-5.5558,-5.4099,-5.2639,-5.1024,-4.8831,-4.7496,-4.6752,-4.6007,-4.5297,-4.4654,-4.4553,-4.4485,-4.4181,-4.347,-4.2726,-4.1948,-4.1238,-4.0595,-4.0121,-4.029,-3.9462,-3.8026,-3.8014,-3.7277,-3.5954,-3.5789,-3.6028,-3.6357,-3.5998,-3.5699,-3.5519,-3.5489,-3.5489,-3.5489,-3.5489,-3.5489,-3.5429,-3.5011,-3.4681,-3.4472,-3.4023,-3.3455,-3.2826,-3.2796,-3.2497,-3.1839,-3.133,-3.0881,-3.0492,-2.9624,-2.9325,-2.9744,-2.9654,-2.9475,-2.9146,-2.9415,-2.9295,-2.8786,-2.9654,-2.9774,-2.9086,-2.9774,-3.0253,-2.9869,-2.9481,-2.9377,-2.9115,-2.8009,-2.7167,-2.7012,-2.5755,-2.4632,-2.428,-2.4674,-2.47,-2.4516,-2.5848,-2.6803,-2.5827,-2.5018,-2.4341,-2.4124,-2.3583,-2.3125,-2.3125,-2.3125,-2.3125,-2.3125,-2.3125,-2.3125,-2.3125,-2.3125,-2.3125,-2.3125,-2.3125,-2.3,-2.2548,-2.2472,-2.2121,-2.1518,-2.0991,-2.0592,-2.0338,-2.0012,-1.9886,-2.0162,-2.0112,-1.9836,-1.9811,-1.9811,-1.9962,-5.8731,-5.8033,-5.7997,-5.7079,-5.5477,-5.4107,-5.2591,-5.0947,-4.885,-4.7462,-4.6752,-4.5974,-4.5263,-4.4587,-4.4553,-4.4181,-4.3504,-4.2861,-4.2151,-4.1441,-4.0663,-4.0155,-4.0121,-4.0798,-3.996,-3.8155,-3.852,-3.7996,-3.6514,-3.6447,-3.6447,-3.6507,-3.6447,-3.6088,-3.5639,-3.5519,-3.5489,-3.5489,-3.5489,-3.5489,-3.5489,-3.5459,-3.513,-3.4592,-3.4442,-3.4143,-3.3544,-3.3455,-3.3155,-3.2497,-3.2377,-3.1809,-3.0672,-3.0462,-3.0402,-3.0342,-2.9924,-2.9864,-3.0193,-2.9924,-2.9415,-2.8876,-2.9445,-2.9415,-2.8966,-2.9894,-3.0522,-3.0462,-3.0857,-3.0689,-2.952,-2.8526,-2.7866,-2.7682,-2.6,-2.4987,-2.4847,-2.4594,-2.4223,-2.4517,-2.5619,-2.6357,-2.6369,-2.5189,-2.4478,-2.4151,-2.3628,-2.3125,-2.3125,-2.3125,-2.3125,-2.3125,-2.3125,-2.3125,-2.3125,-2.3125,-2.3125,-2.3125,-2.3125,-2.3015,-2.2924,-2.2673,-2.2096,-2.1543,-2.1091,-2.0589,-2.0062,-1.9861,-1.9911,-2.0012,-2.0062,-1.9911,-1.9836,-1.9811,-1.9987,-5.8253,-5.796,-5.7446,-5.6602,-5.5448,-5.4002,-5.2544,-5.0963,-4.8771,-4.7455,-4.6675,-4.5534,-4.4823,-4.4553,-4.4553,-4.4418,-4.4147,-4.3876,-4.3369,-4.2658,-4.232,-4.1948,-4.1508,-4.1339,-4.0562,-3.942,-3.8953,-3.8466,-3.779,-3.7285,-3.7285,-3.7464,-3.6866,-3.6357,-3.6088,-3.5699,-3.5489,-3.5489,-3.5489,-3.5489,-3.5489,-3.5489,-3.537,-3.516,-3.513,-3.4831,-3.4143,-3.4143,-3.3634,-3.2557,-3.2527,-3.2108,-3.13,-3.115,-3.0761,-3.0103,-3.0492,-3.0731,-3.0552,-3.0731,-3.0552,-2.9953,-3.0432,-3.0492,-3.0133,-3.0612,-3.115,-3.121,-3.136,-3.1013,-3.0158,-2.9577,-2.938,-2.9053,-2.7149,-2.5766,-2.5996,-2.5818,-2.5544,-2.5585,-2.6049,-2.6403,-2.6315,-2.5632,-2.4851,-2.4394,-2.4047,-2.3662,-2.3245,-2.3125,-2.3125,-2.3125,-2.3125,-2.3125,-2.3125,-2.3125,-2.3125,-2.3125,-2.31,-2.2874,-2.2723,-2.2623,-2.2146,-2.1619,-2.1112,-2.1066,-2.069,-2.0514,-2.0439,-1.9987,-2.0012,-2.0087,-1.9861,-2.0087,-2.0263,-5.7593,-5.7483,-5.6748,-5.5941,-5.5045,-5.3652,-5.2258,-5.084,-4.8549,-4.7238,-4.6573,-4.5229,-4.4553,-4.4553,-4.4553,-4.4553,-4.4519,-4.4316,-4.391,-4.3403,-4.3166,-4.2794,-4.2286,-4.1779,-4.1137,-4.0446,-3.9612,-3.9062,-3.8804,-3.8395,-3.8219,-3.8272,-3.7494,-3.6896,-3.6477,-3.6028,-3.5759,-3.5549,-3.5489,-3.5489,-3.5489,-3.5489,-3.5489,-3.5489,-3.5489,-3.531,-3.4831,-3.4801,-3.4322,-3.3305,-3.2946,-3.2437,-3.1659,-3.1482,-3.115,-3.0462,-3.1031,-3.136,-3.0971,-3.127,-3.1153,-3.0612,-3.1091,-3.124,-3.0642,-3.115,-3.1422,-3.1482,-3.1482,-3.1219,-3.0837,-3.0658,-3.0389,-2.9515,-2.7845,-2.6818,-2.6887,-2.6979,-2.6934,-2.6832,-2.6578,-2.6611,-2.6707,-2.6176,-2.5494,-2.4738,-2.4509,-2.4015,-2.3305,-2.3125,-2.3125,-2.3125,-2.3125,-2.3125,-2.3125,-2.3125,-2.3125,-2.3125,-2.3125,-2.2874,-2.2723,-2.2598,-2.2297,-2.1744,-2.1518,-2.1543,-2.1473,-2.1272,-2.0844,-2.0213,-2.0288,-2.0464,-2.0439,-2.0514,-2.0589,-5.6859,-5.6748,-5.5941,-5.517,-5.4378,-5.3073,-5.1863,-5.0752,-4.8196,-4.7043,-4.6641,-4.5229,-4.4553,-4.4553,-4.4553,-4.4553,-4.4451,-4.3944,-4.3639,-4.347,-4.2861,-4.2557,-4.2489,-4.2388,-4.182,-4.1058,-4.0383,-3.9881,-3.9596,-3.9462,-3.9154,-3.8562,-3.8332,-3.7674,-3.6567,-3.6477,-3.6118,-3.5699,-3.5549,-3.5489,-3.5489,-3.5489,-3.5489,-3.5489,-3.5489,-3.5489,-3.5429,-3.5459,-3.507,-3.4382,-3.3784,-3.2856,-3.1749,-3.1482,-3.1422,-3.139,-3.1452,-3.1452,-3.1422,-3.1452,-3.1183,-3.0821,-3.118,-3.127,-3.0851,-3.118,-3.1482,-3.1482,-3.1482,-3.1394,-3.1278,-3.1219,-3.045,-2.8282,-2.7939,-2.7584,-2.7373,-2.7721,-2.8176,-2.7969,-2.7241,-2.6899,-2.7203,-2.6811,-2.6068,-2.5467,-2.4738,-2.4073,-2.3424,-2.3185,-2.3125,-2.3125,-2.3125,-2.3125,-2.3125,-2.3125,-2.3125,-2.3125,-2.3125,-2.3025,-2.3,-2.2899,-2.2623,-2.2171,-2.2103,-2.2078,-2.1423,-2.1222,-2.1046,-2.0668,-2.0819,-2.0916,-2.0966,-2.0991,-2.0844,-5.6785,-5.6638,-5.5317,-5.462,-5.4283,-5.3344,-5.2234,-5.0961,-4.8995,-4.7706,-4.6656,-4.5229,-4.4553,-4.4553,-4.4553,-4.4553,-4.4553,-4.4316,-4.4215,-4.4147,-4.3944,-4.3809,-4.3741,-4.3301,-4.2332,-4.1188,-4.0761,-4.0224,-3.9603,-3.9546,-3.9294,-3.902,-3.8601,-3.8212,-3.7734,-3.6956,-3.6357,-3.6178,-3.5729,-3.5489,-3.5489,-3.5489,-3.5489,-3.5489,-3.5489,-3.5489,-3.5489,-3.5489,-3.516,-3.4532,-3.3844,-3.2886,-3.175,-3.1482,-3.1482,-3.1482,-3.1482,-3.1482,-3.1482,-3.1452,-3.1392,-3.127,-3.142,-3.1362,-3.1213,-3.139,-3.1482,-3.1482,-3.1452,-3.1161,-3.0147,-3.0329,-3.024,-2.9538,-2.8335,-2.7903,-2.8216,-2.8316,-2.8111,-2.7842,-2.7491,-2.7386,-2.7408,-2.6967,-2.6443,-2.6068,-2.5133,-2.4221,-2.393,-2.3543,-2.315,-2.3125,-2.3125,-2.3245,-2.3305,-2.3305,-2.3245,-2.3185,-2.3125,-2.3125,-2.3125,-2.31,-2.2824,-2.2657,-2.2614,-2.2286,-2.163,-2.1272,-2.1146,-2.1327,-2.1473,-2.1549,-2.1518,-2.1368,-2.1167,-5.6198,-5.5794,-5.4509,-5.3959,-5.3842,-5.312,-5.2108,-5.0838,-4.9215,-4.7822,-4.6589,-4.5207,-4.4553,-4.4553,-4.4553,-4.4553,-4.4553,-4.4553,-4.4553,-4.4553,-4.4553,-4.4553,-4.4519,-4.4113,-4.2989,-4.1764,-4.1682,-4.1116,-3.999,-3.9879,-3.9737,-3.9391,-3.899,-3.8601,-3.8332,-3.7375,-3.6746,-3.6447,-3.5848,-3.5489,-3.5489,-3.5489,-3.5489,-3.5489,-3.5489,-3.5489,-3.5489,-3.5489,-3.531,-3.4771,-3.3993,-3.2886,-3.1689,-3.1482,-3.1482,-3.1482,-3.1482,-3.1482,-3.1482,-3.1482,-3.1482,-3.1482,-3.1482,-3.1452,-3.1482,-3.1482,-3.1482,-3.1482,-3.1482,-3.1073,-3.024,-2.98,-2.9983,-2.9923,-2.8879,-2.8446,-2.9049,-2.8944,-2.858,-2.8174,-2.7769,-2.7619,-2.7458,-2.7306,-2.6759,-2.6443,-2.5714,-2.4908,-2.4738,-2.4279,-2.3989,-2.3872,-2.4105,-2.4047,-2.3662,-2.3543,-2.3424,-2.3245,-2.3125,-2.3125,-2.3125,-2.3125,-2.2975,-2.2715,-2.2597,-2.2541,-2.1954,-2.1731,-2.1568,-2.1876,-2.2135,-2.2027,-2.1895,-2.1719,-2.1468,-5.5097,-5.4326,-5.3555,-5.3261,-5.314,-5.2445,-5.17,-5.0617,-4.8745,-4.7368,-4.6477,-4.5227,-4.4553,-4.4553,-4.4553,-4.4553,-4.4553,-4.4553,-4.4553,-4.4553,-4.4553,-4.4553,-4.4553,-4.4451,-4.3571,-4.2354,-4.2687,-4.2077,-4.0378,-4.0309,-4.0239,-3.9451,-3.9349,-3.911,-3.8482,-3.7793,-3.7105,-3.6596,-3.5878,-3.5489,-3.5489,-3.5489,-3.5489,-3.5489,-3.5489,-3.5489,-3.5489,-3.5489,-3.5459,-3.522,-3.4113,-3.3006,-3.181,-3.1482,-3.1659,-3.1511,-3.1482,-3.1482,-3.1482,-3.1482,-3.1482,-3.1482,-3.1482,-3.1482,-3.1482,-3.1482,-3.1482,-3.1482,-3.1482,-3.1364,-3.0895,-3.0163,-2.9434,-2.9203,-2.8914,-2.903,-2.9267,-2.9258,-2.9032,-2.8577,-2.8008,-2.756,-2.756,-2.7458,-2.71,-2.6759,-2.6336,-2.5577,-2.5412,-2.5021,-2.5189,-2.4964,-2.4509,-2.4221,-2.3662,-2.3484,-2.3365,-2.3245,-2.3125,-2.3125,-2.3125,-2.3125,-2.31,-2.2841,-2.268,-2.2572,-2.247,-2.2236,-2.2171,-2.2322,-2.2397,-2.2372,-2.2189,-2.1981,-2.1361,-5.4583,-5.4326,-5.3555,-5.3225,-5.3072,-5.2395,-5.1617,-5.0659,-4.8613,-4.728,-4.6411,-4.5158,-4.4553,-4.4553,-4.4553,-4.4553,-4.4553,-4.4553,-4.4553,-4.4553,-4.4553,-4.4553,-4.4553,-4.4553,-4.3698,-4.2323,-4.2266,-4.1428,-3.9849,-3.9809,-3.9696,-3.9409,-3.9409,-3.9349,-3.902,-3.7973,-3.7375,-3.7015,-3.6028,-3.5489,-3.5489,-3.5489,-3.5489,-3.5489,-3.5489,-3.5489,-3.5489,-3.5489,-3.4981,-3.4143,-3.4233,-3.3365,-3.1839,-3.1958,-3.2018,-3.1541,-3.1482,-3.1482,-3.1482,-3.1482,-3.1482,-3.1482,-3.1482,-3.1482,-3.1482,-3.1482,-3.1482,-3.1482,-3.1482,-3.107,-3.0163,-2.9609,-2.8944,-2.8081,-2.834,-2.8369,-2.7851,-2.8199,-2.8757,-2.8547,-2.8008,-2.7709,-2.7509,-2.7262,-2.7078,-2.6997,-2.6229,-2.5356,-2.555,-2.5273,-2.5273,-2.4394,-2.3872,-2.3813,-2.3662,-2.3424,-2.3305,-2.3185,-2.3125,-2.3125,-2.3125,-2.3125,-2.3125,-2.3034,-2.2908,-2.2857,-2.29,-2.2824,-2.2874,-2.2774,-2.2523,-2.2314,-2.2312,-2.212,-2.1156,-5.4509,-5.3849,-5.3408,-5.3225,-5.3115,-5.2344,-5.159,-5.054,-4.865,-4.7258,-4.6342,-4.5166,-4.4553,-4.4553,-4.4553,-4.4553,-4.4553,-4.4553,-4.4553,-4.4553,-4.4553,-4.4553,-4.4553,-4.4553,-4.3856,-4.2645,-4.2205,-4.1295,-4.013,-3.9595,-3.9409,-3.9439,-3.9439,-3.9439,-3.929,-3.8123,-3.7404,-3.7165,-3.6178,-3.5489,-3.5489,-3.5489,-3.5489,-3.5489,-3.5489,-3.5489,-3.5489,-3.5489,-3.4981,-3.4233,-3.4203,-3.3694,-3.2198,-3.2287,-3.2228,-3.1541,-3.1482,-3.1482,-3.1482,-3.1482,-3.1482,-3.1482,-3.1482,-3.1482,-3.1482,-3.1482,-3.1482,-3.1482,-3.13,-3.0832,-3.0367,-2.9987,-2.8914,-2.7541,-2.8049,-2.8361,-2.7422,-2.8419,-2.8793,-2.8607,-2.8278,-2.7859,-2.77,-2.744,-2.7462,-2.7395,-2.6759,-2.6361,-2.6308,-2.5769,-2.5329,-2.4711,-2.4368,-2.4483,-2.4221,-2.3872,-2.3365,-2.3185,-2.3125,-2.3125,-2.3125,-2.3125,-2.3125,-2.3125,-2.3125,-2.3125,-2.3125,-2.3125,-2.3075,-2.2874,-2.2573,-2.2264,-2.208,-2.1677,-2.0768,-5.4509,-5.3225,-5.3225,-5.3225,-5.3078,-5.2344,-5.1573,-5.0524,-4.8575,-4.7192,-4.6288,-4.5089,-4.4609,-4.4553,-4.4553,-4.4553,-4.4553,-4.4553,-4.4553,-4.4553,-4.4553,-4.4553,-4.4553,-4.4553,-4.3914,-4.3047,-4.2332,-4.1593,-4.069,-3.9849,-3.9595,-3.9565,-3.9463,-3.929,-3.8931,-3.7913,-3.7375,-3.7045,-3.6118,-3.5519,-3.5489,-3.5489,-3.5489,-3.5489,-3.5489,-3.5489,-3.5489,-3.5459,-3.519,-3.4622,-3.4592,-3.3933,-3.2856,-3.2647,-3.2377,-3.1869,-3.1661,-3.1631,-3.1482,-3.1482,-3.1482,-3.1482,-3.1482,-3.1482,-3.1482,-3.1482,-3.1482,-3.1482,-3.0971,-3.0944,-3.0917,-3.0705,-2.9395,-2.788,-2.8697,-2.9217,-2.9056,-2.9265,-2.9385,-2.8876,-2.8757,-2.8278,-2.8068,-2.8038,-2.8248,-2.7518,-2.6967,-2.6654,-2.6549,-2.6147,-2.5986,-2.5903,-2.5659,-2.555,-2.4993,-2.4394,-2.3721,-2.3245,-2.3125,-2.3125,-2.3125,-2.3125,-2.3125,-2.3125,-2.3125,-2.3125,-2.3125,-2.3125,-2.3125,-2.2975,-2.2648,-2.2138,-2.1592,-2.087,-2.0027,-5.3518,-5.3225,-5.3225,-5.3225,-5.3078,-5.2344,-5.1536,-5.0648,-4.8621,-4.7169,-4.6266,-4.5142,-4.4609,-4.4553,-4.4553,-4.4553,-4.4553,-4.4553,-4.4553,-4.4553,-4.4553,-4.4553,-4.4553,-4.4553,-4.3739,-4.2831,-4.2925,-4.2205,-4.1028,-4.0485,-4.0347,-4.0178,-3.9244,-3.8631,-3.8512,-3.7554,-3.6686,-3.6567,-3.5908,-3.5579,-3.5549,-3.5519,-3.5489,-3.5489,-3.5489,-3.5489,-3.5489,-3.5489,-3.5429,-3.531,-3.519,-3.4592,-3.3634,-3.3694,-3.3365,-3.2497,-3.2228,-3.2048,-3.1601,-3.1482,-3.1482,-3.1482,-3.1482,-3.1482,-3.1482,-3.1482,-3.1482,-3.1452,-3.139,-3.1061,-3.0731,-3.0163,-2.9555,-2.9182,-2.9618,-3.0253,-3.0073,-2.9774,-2.9744,-2.9774,-2.9205,-2.8547,-2.8397,-2.809,-2.7949,-2.7569,-2.7255,-2.6841,-2.6654,-2.6549,-2.6467,-2.6467,-2.5714,-2.5384,-2.4881,-2.4221,-2.3662,-2.3245,-2.3125,-2.3125,-2.3125,-2.3125,-2.3125,-2.3125,-2.3125,-2.3125,-2.3125,-2.3125,-2.3125,-2.2924,-2.2639,-2.1965,-2.1231,-2.0294,-1.9402,-5.3555,-5.3225,-5.3225,-5.3225,-5.3004,-5.1977,-5.1169,-5.0419,-4.8496,-4.7119,-4.6293,-4.539,-4.4852,-4.4643,-4.4553,-4.4553,-4.4553,-4.4553,-4.4553,-4.4553,-4.4553,-4.4553,-4.444,-4.4179,-4.3562,-4.3075,-4.2707,-4.2045,-4.133,-4.0554,-3.999,-4.01,-3.9204,-3.899,-3.8691,-3.7554,-3.7225,-3.7105,-3.6118,-3.5639,-3.5908,-3.5639,-3.5489,-3.5489,-3.5489,-3.5489,-3.5489,-3.5489,-3.5489,-3.5489,-3.5459,-3.507,-3.4203,-3.4233,-3.3784,-3.2796,-3.2527,-3.2198,-3.1661,-3.1482,-3.1482,-3.1482,-3.1482,-3.1482,-3.1482,-3.1482,-3.1482,-3.145,-3.121,-3.0761,-3.0193,-3.0582,-3.0342,-3.0163,-3.0582,-3.0971,-3.0881,-3.0432,-3.0103,-3.0342,-2.9924,-2.9445,-2.9026,-2.8479,-2.8218,-2.8077,-2.759,-2.7203,-2.7255,-2.7071,-2.6811,-2.652,-2.555,-2.4881,-2.4483,-2.393,-2.3365,-2.3125,-2.3125,-2.3125,-2.3125,-2.3125,-2.3125,-2.3125,-2.3125,-2.3125,-2.3125,-2.3125,-2.31,-2.2949,-2.253,-2.1731,-2.0822,-1.988,-1.8953,-5.3812,-5.3225,-5.3225,-5.3151,-5.2821,-5.161,-5.0875,-5.0281,-4.8387,-4.7079,-4.6318,-4.5699,-4.4858,-4.4495,-4.435,-4.4384,-4.4418,-4.4553,-4.4553,-4.4553,-4.4553,-4.4553,-4.444,-4.4064,-4.3948,-4.4384,-4.3169,-4.2269,-4.1593,-4.0622,-4.02,-3.9707,-3.9301,-3.905,-3.8871,-3.8003,-3.7375,-3.7644,-3.6327,-3.5818,-3.6178,-3.5848,-3.5519,-3.5489,-3.5489,-3.5489,-3.5489,-3.5489,-3.5489,-3.5489,-3.5489,-3.519,-3.4831,-3.4562,-3.4053,-3.2826,-3.2736,-3.2347,-3.1661,-3.1482,-3.1482,-3.1482,-3.1482,-3.1482,-3.1482,-3.1482,-3.1482,-3.139,-3.112,-3.0672,-3.0043,-3.0702,-3.1061,-3.0911,-3.121,-3.1422,-3.142,-3.0941,-3.0582,-3.0642,-3.0223,-2.9684,-2.9385,-2.8936,-2.8786,-2.8547,-2.7979,-2.759,-2.759,-2.7225,-2.6759,-2.6094,-2.4993,-2.4337,-2.3872,-2.3754,-2.3185,-2.3125,-2.3125,-2.3125,-2.3125,-2.3125,-2.3125,-2.3125,-2.3125,-2.3125,-2.3125,-2.3125,-2.3015,-2.289,-2.2396,-2.1633,-2.058,-1.942,-1.844,-5.3335,-5.3225,-5.3225,-5.2821,-5.2197,-5.1867,-5.0949,-4.9687,-4.8335,-4.7157,-4.6341,-4.5267,-4.4456,-4.3842,-4.3606,-4.3606,-4.3842,-4.4248,-4.4553,-4.4553,-4.4553,-4.4553,-4.4497,-4.4236,-4.4327,-4.4327,-4.3502,-4.2645,-4.2205,-4.169,-4.0894,-4.0324,-3.9325,-3.8832,-3.8392,-3.7404,-3.7225,-3.7674,-3.6447,-3.5998,-3.6297,-3.5908,-3.5489,-3.5489,-3.5489,-3.5489,-3.5489,-3.5489,-3.5489,-3.5489,-3.5489,-3.5429,-3.528,-3.525,-3.4532,-3.3604,-3.3215,-3.2736,-3.1691,-3.1482,-3.1482,-3.1482,-3.1482,-3.1482,-3.1482,-3.1482,-3.1482,-3.1452,-3.142,-3.124,-3.1183,-3.1332,-3.1392,-3.1332,-3.1332,-3.1482,-3.1362,-3.1061,-3.0821,-3.1091,-3.0462,-2.9774,-2.9475,-2.9175,-2.8816,-2.8547,-2.8158,-2.7727,-2.7565,-2.6875,-2.5932,-2.5161,-2.4279,-2.3695,-2.3245,-2.3305,-2.3125,-2.3125,-2.3125,-2.3125,-2.3125,-2.3125,-2.3125,-2.3125,-2.3125,-2.3125,-2.3125,-2.3125,-2.3,-2.2849,-2.2247,-2.1543,-2.0118,-1.8725,-1.7628,-5.2601,-5.2527,-5.216,-5.1756,-5.1353,-5.0912,-5.0325,-4.9551,-4.8436,-4.7402,-4.6472,-4.5765,-4.4936,-4.4109,-4.3538,-4.3436,-4.3606,-4.4215,-4.4553,-4.4553,-4.4553,-4.4553,-4.4497,-4.4179,-4.427,-4.4179,-4.3739,-4.3108,-4.2645,-4.2205,-4.1625,-4.0764,-3.9872,-3.9364,-3.8792,-3.8093,-3.7883,-3.7943,-3.6926,-3.6297,-3.6746,-3.6028,-3.5549,-3.5489,-3.5489,-3.5489,-3.5489,-3.5489,-3.5489,-3.5489,-3.5489,-3.5489,-3.54,-3.507,-3.4562,-3.3724,-3.3455,-3.2916,-3.175,-3.1482,-3.1482,-3.1482,-3.1482,-3.1482,-3.1482,-3.1482,-3.1482,-3.1482,-3.1482,-3.1482,-3.1422,-3.1482,-3.1482,-3.1482,-3.1482,-3.1482,-3.145,-3.118,-3.124,-3.127,-3.0342,-2.9714,-2.9594,-2.9235,-2.8786,-2.8487,-2.8218,-2.7914,-2.761,-2.6615,-2.5605,-2.4824,-2.4105,-2.3662,-2.3185,-2.3125,-2.3125,-2.3125,-2.3125,-2.3125,-2.3125,-2.3125,-2.3125,-2.3125,-2.3125,-2.3125,-2.3125,-2.31,-2.2949,-2.2639,-2.174,-2.074,-1.9321,-1.8049,-1.7017,-5.1977,-5.1903,-5.1132,-5.0729,-5.0472,-4.9884,-4.9481,-4.9224,-4.8443,-4.7548,-4.6646,-4.6222,-4.5493,-4.4585,-4.3796,-4.3436,-4.3504,-4.4215,-4.4553,-4.4553,-4.4553,-4.4553,-4.4384,-4.4064,-4.4006,-4.444,-4.4064,-4.3443,-4.3108,-4.2645,-4.1885,-4.1198,-4.0863,-4.0447,-3.9637,-3.8682,-3.8972,-3.8452,-3.7524,-3.6806,-3.6656,-3.6088,-3.5489,-3.5489,-3.5489,-3.5489,-3.5489,-3.5489,-3.5489,-3.5489,-3.5489,-3.5489,-3.54,-3.4861,-3.4173,-3.3604,-3.3395,-3.2647,-3.1898,-3.1482,-3.1482,-3.1482,-3.1482,-3.1482,-3.1482,-3.1482,-3.1482,-3.1482,-3.1482,-3.1482,-3.1482,-3.1482,-3.1482,-3.1482,-3.1482,-3.1509,-3.145,-3.127,-3.1061,-3.0731,-2.9983,-2.9654,-2.9535,-2.8786,-2.8329,-2.8269,-2.803,-2.7897,-2.7469,-2.6587,-2.5632,-2.4768,-2.4105,-2.3636,-2.3305,-2.3125,-2.3125,-2.3125,-2.3125,-2.3125,-2.3125,-2.3125,-2.3125,-2.3125,-2.3125,-2.3125,-2.3125,-2.2975,-2.2749,-2.2197,-2.1165,-2.005,-1.8965,-1.7781,-1.6655,-5.1977,-5.194,-5.1096,-5.0398,-4.9774,-4.9591,-4.9114,-4.8451,-4.7793,-4.747,-4.6936,-4.6055,-4.506,-4.4251,-4.3756,-4.3436,-4.3606,-4.4181,-4.4553,-4.4553,-4.4553,-4.4553,-4.4553,-4.453,-4.4384,-4.4553,-4.444,-4.4006,-4.3562,-4.3229,-4.2645,-4.1853,-4.1162,-4.0554,-4.0109,-3.9094,-3.8452,-3.8272,-3.7195,-3.6334,-3.5979,-3.5674,-3.5519,-3.5554,-3.5489,-3.5489,-3.5489,-3.5489,-3.5489,-3.5489,-3.5489,-3.5489,-3.54,-3.4861,-3.4173,-3.3544,-3.2946,-3.2317,-3.1631,-3.1482,-3.1482,-3.1482,-3.1482,-3.1482,-3.1482,-3.1482,-3.1482,-3.1482,-3.1482,-3.1482,-3.1482,-3.1482,-3.1482,-3.1482,-3.1482,-3.1482,-3.148,-3.133,-3.112,-3.0612,-3.0013,-2.9684,-2.9499,-2.8599,-2.779,-2.782,-2.7769,-2.7646,-2.712,-2.6045,-2.5161,-2.4253,-2.3872,-2.3484,-2.3305,-2.3125,-2.3125,-2.3125,-2.3125,-2.3125,-2.3125,-2.3125,-2.3125,-2.3125,-2.3125,-2.2949,-2.2723,-2.2573,-2.2447,-2.184,-2.0897,-1.9861,-1.8794,-1.7535,-1.6394,-5.0912,-5.1206,-4.9921,-4.9187,-4.8893,-4.8857,-4.8673,-4.8153,-4.7243,-4.6529,-4.5989,-4.4844,-4.3646,-4.3014,-4.3444,-4.3538,-4.3234,-4.4045,-4.4553,-4.4553,-4.4553,-4.4553,-4.4553,-4.4587,-4.4553,-4.4519,-4.4553,-4.4474,-4.4064,-4.3856,-4.341,-4.2109,-4.1559,-4.0826,-4.0239,-3.9395,-3.8822,-3.8182,-3.7233,-3.6641,-3.6505,-3.6006,-3.5653,-3.607,-3.5718,-3.5554,-3.5489,-3.5489,-3.5489,-3.5489,-3.5489,-3.528,-3.4891,-3.4292,-3.3604,-3.2976,-3.2317,-3.178,-3.1511,-3.1482,-3.1482,-3.1482,-3.1482,-3.1482,-3.1482,-3.1482,-3.1482,-3.1482,-3.1482,-3.1482,-3.1482,-3.1482,-3.1482,-3.1482,-3.1482,-3.1482,-3.148,-3.133,-3.1091,-3.0552,-3.0043,-2.9763,-2.9372,-2.8629,-2.8008,-2.7957,-2.7676,-2.72,-2.6299,-2.4983,-2.4184,-2.3458,-2.3305,-2.3185,-2.3185,-2.3125,-2.3125,-2.3125,-2.3125,-2.3125,-2.3125,-2.3125,-2.31,-2.31,-2.3125,-2.2849,-2.2397,-2.2447,-2.2598,-2.1766,-2.0685,-1.9719,-1.8783,-1.7549,-1.6571,-4.9738,-5.0362,-4.893,-4.8306,-4.8306,-4.8306,-4.8196,-4.7864,-4.7004,-4.6163,-4.5249,-4.4155,-4.2817,-4.2106,-4.3267,-4.3606,-4.276,-4.3978,-4.4451,-4.4553,-4.4553,-4.4553,-4.4553,-4.4553,-4.4451,-4.4316,-4.4485,-4.4328,-4.4316,-4.4249,-4.3739,-4.2363,-4.2078,-4.1229,-4.02,-3.9688,-3.9425,-3.8425,-3.7243,-3.6748,-3.6723,-3.6037,-3.591,-3.5943,-3.5846,-3.5489,-3.5489,-3.5489,-3.5489,-3.5489,-3.525,-3.4951,-3.4532,-3.3754,-3.3125,-3.2557,-3.1988,-3.1571,-3.1482,-3.1482,-3.1482,-3.1482,-3.1482,-3.1482,-3.1482,-3.1482,-3.1482,-3.1482,-3.1482,-3.1482,-3.1482,-3.1482,-3.1482,-3.1482,-3.1482,-3.1482,-3.1509,-3.136,-3.124,-3.0911,-3.0423,-2.9766,-2.929,-2.8711,-2.8308,-2.8174,-2.7647,-2.6887,-2.5654,-2.4256,-2.3765,-2.3185,-2.3125,-2.3125,-2.3125,-2.3125,-2.3125,-2.3125,-2.3125,-2.3125,-2.3125,-2.3075,-2.3025,-2.305,-2.3025,-2.2372,-2.1776,-2.2272,-2.2664,-2.1584,-2.0611,-1.9808,-1.885,-1.7641,-1.6869,-4.8893,-4.9591,-4.8673,-4.8306,-4.8269,-4.8306,-4.7865,-4.7167,-4.6983,-4.6282,-4.5164,-4.4471,-4.3083,-4.255,-4.2828,-4.3369,-4.3267,-4.4181,-4.435,-4.4451,-4.4553,-4.4519,-4.4485,-4.4418,-4.4215,-4.3876,-4.3978,-4.3876,-4.3775,-4.4045,-4.3772,-4.3229,-4.2423,-4.1496,-4.0707,-4.0121,-3.9699,-3.8676,-3.7467,-3.6505,-3.6321,-3.5846,-3.5748,-3.5683,-3.5619,-3.5489,-3.5489,-3.5489,-3.5489,-3.5489,-3.5011,-3.4592,-3.4173,-3.3305,-3.2677,-3.2287,-3.1869,-3.1511,-3.1482,-3.1482,-3.1482,-3.1482,-3.1482,-3.1482,-3.1482,-3.1482,-3.1482,-3.1482,-3.1482,-3.1482,-3.1482,-3.1482,-3.1482,-3.1482,-3.1482,-3.1482,-3.1422,-3.136,-3.124,-3.115,-3.0573,-2.9622,-2.9091,-2.8484,-2.809,-2.7927,-2.6949,-2.6133,-2.5121,-2.3975,-2.3654,-2.3305,-2.3125,-2.3125,-2.3125,-2.3125,-2.3125,-2.3125,-2.3125,-2.3125,-2.3125,-2.305,-2.3025,-2.2799,-2.2673,-2.187,-2.1398,-2.2002,-2.2113,-2.1262,-2.0507,-1.971,-1.9206,-1.8369,-1.7701,-4.8489,-4.8746,-4.8416,-4.8012,-4.7572,-4.7572,-4.7131,-4.6286,-4.5512,-4.4201,-4.2946,-4.2752,-4.2175,-4.1546,-4.2151,-4.2455,-4.2219,-4.2828,-4.3369,-4.3775,-4.3876,-4.4147,-4.4215,-4.4147,-4.391,-4.3842,-4.3606,-4.3436,-4.3504,-4.3403,-4.2601,-4.2162,-4.2402,-4.185,-4.1151,-4.0103,-3.9531,-3.9173,-3.8189,-3.7294,-3.7499,-3.6569,-3.6165,-3.6165,-3.5619,-3.5554,-3.5489,-3.5489,-3.5489,-3.531,-3.4801,-3.4352,-3.3873,-3.2946,-3.2377,-3.2018,-3.1601,-3.1511,-3.1482,-3.1482,-3.1482,-3.1482,-3.1482,-3.1482,-3.1482,-3.1482,-3.1482,-3.1482,-3.1482,-3.1482,-3.1482,-3.1482,-3.1482,-3.1482,-3.1482,-3.1482,-3.1362,-3.127,-3.0998,-3.09,-3.0027,-2.9026,-2.8595,-2.8203,-2.784,-2.7539,-2.6443,-2.5384,-2.4394,-2.3721,-2.3484,-2.3305,-2.3185,-2.3125,-2.3125,-2.3125,-2.3125,-2.3125,-2.3125,-2.3075,-2.305,-2.3125,-2.3025,-2.2749,-2.2347,-2.1857,-2.163,-2.1908,-2.1669,-2.1081,-2.0419,-1.9692,-1.9262,-1.9168,-1.8652,-4.7939,-4.7939,-4.7939,-4.7792,-4.7425,-4.7167,-4.6654,-4.5773,-4.4709,-4.2982,-4.123,-4.1742,-4.1319,-4.073,-4.1305,-4.1745,-4.161,-4.2049,-4.2591,-4.2929,-4.3166,-4.3436,-4.3538,-4.3436,-4.3132,-4.3369,-4.2997,-4.2591,-4.2591,-4.2388,-4.2152,-4.2088,-4.2237,-4.1868,-4.0665,-3.979,-3.9314,-3.9178,-3.861,-3.7648,-3.7732,-3.6814,-3.6165,-3.6102,-3.5683,-3.5554,-3.5489,-3.5489,-3.5489,-3.519,-3.4681,-3.4023,-3.3395,-3.2736,-3.2048,-3.1631,-3.1482,-3.1482,-3.1482,-3.1482,-3.1482,-3.1482,-3.1482,-3.1482,-3.1482,-3.1482,-3.1482,-3.1482,-3.1482,-3.1482,-3.1482,-3.1482,-3.1482,-3.1482,-3.1482,-3.1452,-3.1243,-3.112,-3.0809,-3.0528,-2.9539,-2.8651,-2.824,-2.7808,-2.7033,-2.6759,-2.6147,-2.4993,-2.3813,-2.3365,-2.3245,-2.3185,-2.3125,-2.3125,-2.3125,-2.3125,-2.3125,-2.3125,-2.31,-2.2949,-2.2924,-2.2949,-2.2573,-2.192,-2.1625,-2.1741,-2.1458,-2.1096,-2.11,-2.1049,-2.0667,-2.0427,-2.0795,-2.0724,-1.9884,-4.7131,-4.7094,-4.7131,-4.7535,-4.7902,-4.7388,-4.6544,-4.559,-4.4821,-4.3459,-4.1803,-4.1823,-4.1163,-4.0474,-4.0967,-4.1102,-4.1204,-4.1711,-4.2185,-4.2252,-4.232,-4.2388,-4.2455,-4.2422,-4.2286,-4.1644,-4.1644,-4.1677,-4.1474,-4.1711,-4.1842,-4.1909,-4.1795,-4.1521,-4.0019,-3.9903,-3.9544,-3.8953,-3.8251,-3.7358,-3.6477,-3.607,-3.5879,-3.5653,-3.5619,-3.5489,-3.5489,-3.534,-3.528,-3.513,-3.4113,-3.3514,-3.3275,-3.2258,-3.1689,-3.1482,-3.1482,-3.1482,-3.1482,-3.1482,-3.1482,-3.1482,-3.1482,-3.1482,-3.1482,-3.1482,-3.1482,-3.1482,-3.1482,-3.1482,-3.1482,-3.1482,-3.1482,-3.1482,-3.1482,-3.1422,-3.13,-3.0702,-3.0388,-3.0021,-2.9275,-2.8509,-2.8025,-2.7469,-2.6369,-2.5823,-2.555,-2.4654,-2.3458,-2.3125,-2.3125,-2.3125,-2.3125,-2.3125,-2.3125,-2.3125,-2.3125,-2.3125,-2.2975,-2.2749,-2.2523,-2.2372,-2.1845,-2.1117,-2.1046,-2.1176,-2.0592,-1.9987,-2.0618,-2.1378,-2.1725,-2.1782,-2.2238,-2.1956,-2.0781,-4.6324,-4.6287,-4.6324,-4.6471,-4.6581,-4.5847,-4.5076,-4.4342,-4.3941,-4.3101,-4.2015,-4.181,-4.115,-4.0504,-4.029,-4.0527,-4.0561,-4.0595,-4.0967,-4.1542,-4.1576,-4.1948,-4.2016,-4.1779,-4.1644,-4.1644,-4.1474,-4.117,-4.1271,-4.117,-4.0865,-4.0832,-4.1068,-4.0841,-4.0588,-4.0361,-3.9874,-3.9594,-3.8898,-3.8076,-3.7055,-3.6415,-3.5943,-3.5554,-3.5554,-3.5489,-3.5494,-3.5224,-3.4921,-3.4741,-3.3634,-3.2976,-3.2796,-3.1928,-3.1511,-3.1482,-3.1482,-3.1482,-3.1482,-3.1482,-3.1482,-3.1482,-3.1482,-3.1482,-3.1482,-3.1482,-3.1482,-3.1482,-3.1482,-3.1482,-3.1482,-3.1482,-3.1482,-3.1482,-3.1482,-3.1482,-3.127,-3.0372,-2.9738,-2.9432,-2.8839,-2.7876,-2.7254,-2.6881,-2.5988,-2.5106,-2.4794,-2.431,-2.3305,-2.3125,-2.3125,-2.3125,-2.3125,-2.3125,-2.3125,-2.3,-2.2749,-2.2573,-2.2472,-2.2297,-2.2071,-2.182,-2.1568,-2.1066,-2.084,-2.0614,-2.0313,-2.0263,-2.1117,-2.1769,-2.187,-2.17,-2.1499,-2.1332,-2.0828,-4.548,-4.548,-4.548,-4.5296,-4.5076,-4.4782,-4.4232,-4.3571,-4.3463,-4.2847,-4.1979,-4.1768,-4.115,-4.0402,-4.0087,-4.0087,-4.0087,-4.0121,-4.0189,-4.0798,-4.0832,-4.1035,-4.117,-4.1136,-4.1001,-4.117,-4.0798,-4.0392,-4.073,-4.0324,-4.0189,-4.0223,-4.0087,-4.0375,-4.0458,-4.0273,-3.9677,-3.9255,-3.8414,-3.779,-3.6935,-3.6415,-3.6102,-3.5879,-3.5718,-3.5619,-3.5537,-3.5082,-3.4442,-3.4083,-3.3395,-3.2557,-3.2317,-3.1958,-3.1511,-3.1482,-3.1482,-3.1482,-3.1482,-3.1482,-3.1482,-3.1482,-3.1482,-3.1482,-3.1482,-3.1482,-3.1482,-3.1482,-3.1482,-3.1482,-3.1482,-3.1482,-3.1482,-3.1482,-3.1482,-3.1482,-3.0971,-3.0103,-2.9445,-2.9056,-2.8487,-2.7476,-2.6496,-2.6122,-2.5605,-2.4851,-2.4047,-2.3577,-2.316,-2.3075,-2.305,-2.299,-2.2965,-2.294,-2.284,-2.2749,-2.2447,-2.2071,-2.192,-2.182,-2.1468,-2.1192,-2.1091,-2.0966,-2.0539,-2.0263,-2.0388,-2.0639,-2.1041,-2.1368,-2.1543,-2.1223,-2.0734,-2.0651,-2.0676,-4.4672,-4.4672,-4.4672,-4.4232,-4.3718,-4.4305,-4.4158,-4.3497,-4.3497,-4.2847,-4.1853,-4.1853,-4.1241,-4.0353,-4.0138,-4.0087,-4.0087,-4.0087,-4.0121,-4.0155,-4.029,-4.0324,-4.029,-4.0257,-4.0392,-4.0257,-4.0087,-4.0121,-4.0121,-4.0121,-4.0087,-4.0087,-4.0087,-4.0189,-4.0189,-4.0054,-3.9506,-3.8941,-3.8358,-3.7732,-3.6995,-3.6196,-3.629,-3.6165,-3.607,-3.5852,-3.5579,-3.5029,-3.4448,-3.3844,-3.3095,-3.2647,-3.2258,-3.181,-3.1601,-3.1482,-3.1482,-3.1482,-3.1482,-3.1482,-3.1482,-3.1482,-3.1482,-3.1482,-3.1482,-3.1482,-3.1482,-3.1482,-3.1482,-3.1482,-3.1482,-3.1482,-3.1482,-3.1482,-3.1482,-3.118,-3.0642,-2.9983,-2.9301,-2.8786,-2.8098,-2.7211,-2.6176,-2.5605,-2.5273,-2.4257,-2.3559,-2.3382,-2.3,-2.2924,-2.2865,-2.2865,-2.2815,-2.2765,-2.2639,-2.2498,-2.2196,-2.1845,-2.1493,-2.1317,-2.0941,-2.0614,-2.0514,-2.0338,-2.0012,-1.9936,-2.0107,-2.0285,-2.0489,-2.0815,-2.1343,-2.1631,-2.1389,-2.0943,-2.0773,-4.3828,-4.3864,-4.3864,-4.3718,-4.3534,-4.3754,-4.3681,-4.3497,-4.3497,-4.3069,-4.2422,-4.1979,-4.1331,-4.0638,-4.0269,-4.0138,-4.0087,-4.0087,-4.0087,-4.0087,-4.0087,-4.0087,-4.0087,-4.0087,-4.0087,-4.0087,-4.0087,-4.0087,-4.0087,-4.0087,-4.0087,-4.0087,-4.0087,-4.0087,-4.0087,-4.0087,-3.9747,-3.9295,-3.8778,-3.8133,-3.7616,-3.7115,-3.7055,-3.6631,-3.6384,-3.6106,-3.5182,-3.4422,-3.3754,-3.3036,-3.2317,-3.1839,-3.1721,-3.1571,-3.1482,-3.1482,-3.1482,-3.1482,-3.1482,-3.1482,-3.1482,-3.1482,-3.1482,-3.1482,-3.1482,-3.1482,-3.1482,-3.1482,-3.1482,-3.1482,-3.145,-3.145,-3.139,-3.133,-3.124,-3.0821,-3.0283,-2.9744,-2.9092,-2.8495,-2.7808,-2.6846,-2.5851,-2.5412,-2.4937,-2.38,-2.3128,-2.3009,-2.2815,-2.2774,-2.2723,-2.2664,-2.2614,-2.248,-2.2397,-2.2279,-2.1977,-2.1675,-2.1192,-2.0765,-2.0388,-2.0112,-1.9987,-1.9886,-1.9811,-1.9805,-1.9818,-2.0076,-2.0388,-2.0916,-2.1443,-2.1794,-2.1913,-2.1131,-2.0435,-4.3497,-4.3497,-4.3497,-4.3497,-4.3497,-4.3497,-4.3497,-4.3497,-4.3497,-4.3105,-4.2342,-4.1937,-4.1375,-4.0577,-4.0254,-4.0087,-4.0087,-4.0087,-4.0087,-4.0087,-4.0087,-4.0087,-4.0087,-4.0087,-4.0087,-4.0087,-4.0087,-4.0087,-4.0087,-4.0087,-4.0087,-4.0087,-4.0087,-4.0087,-4.0087,-4.0087,-4.0087,-3.9714,-3.9315,-3.8854,-3.8414,-3.8076,-3.7557,-3.7053,-3.6812,-3.5892,-3.4911,-3.4,-3.3155,-3.2527,-3.1869,-3.1482,-3.1482,-3.1482,-3.1482,-3.1482,-3.1482,-3.1482,-3.1482,-3.1482,-3.1482,-3.1482,-3.1482,-3.1482,-3.1482,-3.1482,-3.1482,-3.1482,-3.1482,-3.1452,-3.142,-3.13,-3.121,-3.1091,-3.0761,-3.0402,-2.9924,-2.9415,-2.8823,-2.8204,-2.7401,-2.6397,-2.5687,-2.53,-2.4654,-2.3644,-2.3009,-2.2824,-2.2639,-2.2523,-2.2498,-2.2472,-2.2305,-2.2197,-2.2038,-2.1801,-2.1423,-2.0966,-2.0564,-2.0162,-1.9836,-1.9811,-1.9861,-1.9836,-1.9811,-1.978,-1.98,-2.0129,-2.0489,-2.0891,-2.1117,-2.1292,-2.1101,-2.0342,-1.9713,-4.3314,-4.324,-4.3314,-4.324,-4.3387,-4.3351,-4.3387,-4.3497,-4.3497,-4.2922,-4.2144,-4.1853,-4.1286,-4.0672,-4.0254,-4.0138,-4.0087,-4.0087,-4.0087,-4.0087,-4.0087,-4.0087,-4.0087,-4.0087,-4.0087,-4.0087,-4.0087,-4.0087,-4.0087,-4.0087,-4.0087,-4.0087,-4.0087,-4.0087,-4.0087,-4.0087,-4.0087,-3.9952,-3.9506,-3.8962,-3.8414,-3.8051,-3.779,-3.7488,-3.6833,-3.6013,-3.5123,-3.4182,-3.3156,-3.2437,-3.2075,-3.1655,-3.1539,-3.1482,-3.1482,-3.1482,-3.1482,-3.1482,-3.1482,-3.1482,-3.1482,-3.1482,-3.1482,-3.1482,-3.1482,-3.1482,-3.1482,-3.1482,-3.1482,-3.1482,-3.145,-3.1061,-3.0821,-3.0642,-3.0342,-2.9834,-2.9265,-2.8764,-2.8181,-2.7713,-2.7388,-2.6365,-2.5245,-2.4824,-2.4436,-2.3475,-2.2749,-2.2523,-2.2372,-2.2146,-2.202,-2.1995,-2.1813,-2.1581,-2.1312,-2.1071,-2.0718,-2.0288,-2.0037,-1.9911,-1.9811,-1.9811,-1.9811,-1.9811,-1.9811,-1.9811,-1.9859,-2.0213,-2.0338,-2.0213,-2.0413,-2.0561,-2.0192,-1.9534,-1.9104,-4.2249,-4.1699,-4.1662,-4.2029,-4.2543,-4.258,-4.2947,-4.3461,-4.3497,-4.3284,-4.2922,-4.2185,-4.1639,-4.1196,-4.0368,-4.0087,-4.0087,-4.0087,-4.0087,-4.0087,-4.0087,-4.0087,-4.0087,-4.0087,-4.0087,-4.0087,-4.0087,-4.0087,-4.0087,-4.0087,-4.0087,-4.0087,-4.0087,-4.0087,-4.0087,-4.0087,-4.0054,-3.9952,-3.9716,-3.941,-3.9082,-3.8581,-3.8307,-3.7327,-3.6353,-3.5118,-3.4294,-3.3594,-3.267,-3.1983,-3.2257,-3.2023,-3.1539,-3.1539,-3.1482,-3.1482,-3.1452,-3.1452,-3.1392,-3.1392,-3.1509,-3.1452,-3.1452,-3.1452,-3.1482,-3.1482,-3.1482,-3.1482,-3.1482,-3.1482,-3.136,-3.0881,-3.0402,-3.0163,-2.9834,-2.9205,-2.8607,-2.8114,-2.7594,-2.7321,-2.7159,-2.6283,-2.5106,-2.4403,-2.4015,-2.3192,-2.2192,-2.1744,-2.1644,-2.1468,-2.1217,-2.1142,-2.1091,-2.0891,-2.0668,-2.0514,-2.0313,-2.0213,-2.0062,-1.9911,-1.9811,-1.9811,-1.9811,-1.9811,-1.9811,-1.9811,-1.9936,-2.0288,-2.0313,-2.0012,-1.9803,-1.9994,-1.9438,-1.8651,-1.8428,-4.1515,-4.1148,-4.1079,-4.1368,-4.1735,-4.1772,-4.2029,-4.2359,-4.2433,-4.2514,-4.2559,-4.2011,-4.1682,-4.1375,-4.0466,-4.0087,-4.0087,-4.0087,-4.0087,-4.0087,-4.0087,-4.0087,-4.0087,-4.0087,-4.0087,-4.0087,-4.0087,-4.0087,-4.0087,-4.0087,-4.0087,-4.0087,-4.0087,-4.0054,-4.0054,-4.0054,-3.9851,-3.958,-3.958,-3.9445,-3.9309,-3.8789,-3.8388,-3.7319,-3.6254,-3.5005,-3.4084,-3.3557,-3.3048,-3.2511,-3.2602,-3.2135,-3.1682,-3.1539,-3.1482,-3.1482,-3.1452,-3.1362,-3.13,-3.133,-3.139,-3.1273,-3.1422,-3.1452,-3.1482,-3.1482,-3.1482,-3.1482,-3.1482,-3.1452,-3.118,-3.0761,-3.0193,-2.9834,-2.9056,-2.8278,-2.8038,-2.7808,-2.7292,-2.687,-2.6443,-2.5742,-2.4681,-2.393,-2.3541,-2.3321,-2.2221,-2.1594,-2.1368,-2.0941,-2.0614,-2.0439,-2.0489,-2.0363,-2.0188,-2.0162,-2.0137,-2.0062,-2.0037,-1.9911,-1.9811,-1.9811,-1.9811,-1.9811,-1.9811,-1.9811,-1.9987,-2.026,-2.0213,-1.9911,-1.9648,-1.9478,-1.8743,-1.802,-1.7756,-4.0928,-4.0965,-4.0818,-4.0855,-4.0965,-4.0965,-4.1075,-4.1185,-4.1115,-4.1209,-4.1286,-4.1385,-4.1183,-4.0874,-4.0368,-4.0204,-4.0087,-4.0087,-4.0087,-4.0087,-4.0087,-4.0087,-4.0087,-4.0087,-4.0087,-4.0087,-4.0087,-4.0087,-4.0087,-4.0087,-4.0087,-4.0054,-3.9986,-3.9918,-3.9918,-3.9749,-3.9377,-3.9005,-3.8768,-3.8531,-3.8464,-3.8333,-3.7902,-3.7378,-3.6757,-3.5779,-3.4665,-3.3941,-3.3603,-3.3029,-3.2524,-3.1995,-3.149,-3.1204,-3.121,-3.118,-3.124,-3.1091,-3.1001,-3.13,-3.112,-3.1031,-3.133,-3.148,-3.1422,-3.1452,-3.1422,-3.148,-3.1422,-3.124,-3.0911,-3.0402,-2.9834,-2.9325,-2.8397,-2.773,-2.7619,-2.759,-2.7152,-2.6602,-2.6068,-2.5356,-2.4567,-2.3754,-2.3289,-2.3094,-2.2573,-2.202,-2.1418,-2.0765,-2.0288,-2.0188,-2.0213,-2.0037,-1.9861,-1.9911,-1.9987,-1.9936,-1.9886,-1.9836,-1.9811,-1.9811,-1.9811,-1.9836,-1.9836,-1.9962,-1.9907,-2.0002,-1.988,-1.9756,-1.9076,-1.8689,-1.8441,-1.7757,-1.7191,-4.012,-4.0084,-3.946,-3.9533,-4.0047,-4.012,-4.0487,-4.1075,-4.1042,-4.0915,-4.0455,-4.0139,-4.0165,-4.0839,-4.0319,-4.0138,-4.0087,-4.0087,-4.0087,-4.0087,-4.0087,-4.0087,-4.0087,-4.0087,-4.0087,-4.0054,-4.002,-4.0054,-3.9817,-3.9918,-4.002,-3.9918,-3.9343,-3.9174,-3.9106,-3.8836,-3.843,-3.8159,-3.8091,-3.7922,-3.7663,-3.7367,-3.6704,-3.6069,-3.5383,-3.4607,-3.393,-3.3686,-3.3256,-3.2609,-3.1835,-3.1542,-3.1141,-3.0769,-3.0548,-3.0821,-3.0851,-3.0791,-3.0851,-3.112,-3.1001,-3.0851,-3.112,-3.133,-3.136,-3.1332,-3.133,-3.127,-3.115,-3.0791,-3.0372,-2.9624,-2.9026,-2.8697,-2.8008,-2.7739,-2.759,-2.756,-2.7408,-2.6967,-2.6549,-2.5823,-2.4993,-2.4257,-2.3456,-2.3051,-2.2146,-2.1594,-2.1192,-2.0589,-1.9987,-1.9987,-1.9987,-1.9911,-1.9811,-1.9811,-1.9861,-1.9811,-1.9811,-1.9811,-1.9811,-1.9811,-1.9811,-1.9836,-2.0112,-2.0363,-2.0282,-1.9842,-1.9653,-1.9341,-1.8402,-1.781,-1.7712,-1.7431,-1.6817]},{"header":{"parameterUnit":"m.s-1","parameterCategory":1,"la1":31.0,"la2":29.5877,"lo1":-88.7671,"lo2":-86.6584,"dy":0.0162,"dx":0.0185,"nx":115,"ny":88,"refTime":"2023-08-17T06:00:00:Z","depth":0,"parameterNumber":3,"parameterNumberName":"V-component_of_WINDS"},"data":[0.0,0.0,0.0,0.0,0.0,0.0,0.0,0.0,0.0,0.0,0.0,0.0,0.0,0.0,0.0,0.0,0.0,0.0,0.0,0.0,0.0,0.0,0.0,0.0,0.0,0.0,0.0,0.0,0.0,0.0,0.0,0.0,0.0,0.0,0.0,0.0,0.0,0.0,0.0,0.0,0.0,0.0,0.0,0.0,0.0,0.0,0.0,0.0,0.0,0.0,0.0,0.0,0.0,0.0,0.0,0.0,0.0,0.0,0.0,0.0,0.0,0.0,0.0,0.0,0.0,0.0,0.0,0.0,0.0,0.0,0.0,0.0,0.0,0.0,0.0,0.0,0.0,0.0,0.0,0.0,0.0,0.0,0.0,0.0,0.0,0.0,0.0,0.0,0.0,0.0,0.0,0.0,0.0,0.0,0.0,0.0,0.0,0.0,0.0,0.0,0.0,0.0,0.0,0.0,0.0,0.0,0.0,0.0,0.0,0.0,0.0,0.0,0.0,0.0,0.0,0.0,0.0,0.0,0.0,0.0,0.0,0.0,0.0,0.0,0.0,0.0,0.0,0.0,0.0,0.0,0.0,0.0,0.0,0.0,0.0,0.0,0.0,0.0,0.0,0.0,0.0,0.0,0.0,0.0,0.0,0.0,0.0,0.0,0.0,0.0,0.0,0.0,0.0,0.0,0.0,0.0,0.0,0.0,0.0,0.0,0.0,0.0,0.0,0.0,0.0,0.0,0.0,0.0,0.0,0.0,0.0,0.0,0.0,0.0,0.0,0.0,0.0,0.0,0.0,0.0,0.0,0.0,0.0,0.0,0.0,0.0,0.0,0.0,0.0,0.0,0.0,0.0,0.0,0.0,0.0,0.0,0.0,0.0,0.0,0.0,0.0,0.0,0.0,0.0,0.0,0.0,0.0,0.0,0.0,0.0,0.0,0.0,0.0,0.0,0.0,0.0,0.0,0.0,0.0,0.0,0.0,0.0,0.0,0.0,0.0,0.0,0.0,0.0,0.0,0.0,0.0,0.0,0.0,0.0,0.0,0.0,0.0,0.0,0.0,0.0,0.0,0.0,0.0,0.0,0.0,0.0,0.0,0.0,0.0,0.0,0.0,0.0,0.0,0.0,0.0,0.0,0.0,0.0,0.0,0.0,0.0,0.0,0.0,0.0,0.0,0.0,0.0,0.0,0.0,0.0,0.0,0.0,0.0,0.0,0.0,0.0,0.0,0.0,0.0,0.0,0.0,0.0,0.0,0.0,0.0,0.0,0.0,0.0,0.0,0.0,0.0,0.0,0.0,0.0,0.0,0.0,0.0,0.0,0.0,0.0,0.0,0.0,0.0,0.0,0.0,0.0,0.0,0.0,0.0,0.0,0.0,0.0,0.0,0.0,0.0,0.0,0.0,0.0,0.0,0.0,0.0,0.0,0.0,0.0,0.0,0.0,0.0,0.0,0.0,0.0,0.0,0.0,0.0,0.0,0.0,0.0,0.0,0.0,0.0,0.0,0.0,0.0,0.0,0.0,0.0,0.0,0.0,0.0,0.0,0.0,0.0,0.0,0.0,0.0,0.0,0.0,0.0,0.0,0.0,0.0,0.0,0.0,0.0,0.0,0.0,0.0,0.0,0.0,0.0,0.0,0.0,0.0,0.0,0.0,0.0,0.0,0.0,0.0,0.0,0.0,0.0,0.0,0.0,0.0,0.0,0.0,0.0,0.0,0.0,0.0,0.0,0.0,0.0,0.0,0.0,0.0,0.0,0.0,0.0,0.0,0.0,0.0,0.0,0.0,0.0,0.0,0.0,0.0,0.0,0.0,0.0,0.0,0.0,0.0,0.0,0.0,0.0,0.0,0.0,0.0,0.0,0.0,0.0,0.0,0.0,0.0,0.0,0.0,0.0,0.0,0.0,0.0,0.0,0.0,0.0,0.0,0.0,0.0,0.0,0.0,0.0,0.0,0.0,0.0,0.0,0.0,0.0,0.0,0.0,0.0,0.0,0.0,0.0,0.0,0.0,0.0,0.0,0.0,0.0,0.0,0.0,0.0,0.0,0.0,0.0,0.0,0.0,0.0,0.0,0.0,0.0,0.0,0.0,0.0,0.0,0.0,0.0,0.0,0.0,0.0,0.0,0.0,0.0,0.0,0.0,0.0,0.0,0.0,0.0,0.0,0.0,0.0,0.0,0.0,0.0,0.0,0.0,0.0,0.0,0.0,0.0,0.0,0.0,0.0,0.0,0.0,0.0,0.0,0.0,0.0,0.0,0.0,0.0,0.0,0.0,0.0,0.0,0.0,0.0,0.0,0.0,0.0,0.0,0.0,0.0,0.0,0.0,0.0,0.0,0.0,0.0,0.0,0.0,0.0,0.0,0.0,0.0,0.0,0.0,0.0,0.0,0.0,0.0,0.0,0.0,0.0,0.0,0.0,0.0,0.0,0.0,0.0,0.0,0.0,0.0,0.0,0.0,0.0,0.0,0.0,0.0,0.0,0.0,0.0,0.0,0.0,0.0,0.0,0.0,0.0,0.0,0.0,0.0,0.0,0.0,0.0,0.0,0.0,0.0,0.0,0.0,0.0,0.0,0.0,0.0,0.0,0.0,0.0,0.0,0.0,0.0,0.0,0.0,0.0,0.0,0.0,0.0,0.0,0.0,0.0,0.0,0.0,0.0,0.0,0.0,0.0,0.0,0.0,0.0,0.0,0.0,0.0,0.0,0.0,0.0,0.0,0.0,0.0,0.0,0.0,0.0,0.0,0.0,0.0,0.0,0.0,0.0,0.0,0.0,0.0,0.0,0.0,0.0,0.0,0.0,0.0,0.0,0.0,0.0,0.0,0.0,0.0,0.0,0.0,0.0,0.0,0.0,0.0,0.0,0.0,0.0,0.0,0.0,0.0,0.0,0.0,0.0,0.0,0.0,0.0,0.0,0.0,0.0,0.0,0.0,0.0,0.0,0.0,0.0,0.0,0.0,0.0,0.0,0.0,0.0,0.0,0.0,0.0,0.0,0.0,0.0,0.0,0.0,0.0,0.0,0.0,0.0,0.0,0.0,0.0,0.0,0.0,0.0,0.0,0.0,0.0,0.0,0.0,0.0,0.0,0.0,0.0,0.0,0.0,0.0,0.0,0.0,0.0,0.0,0.0,0.0,0.0,0.0,0.0,0.0,0.0,0.0,0.0,0.0,0.0,0.0,0.0,0.0,0.0,0.0,0.0,0.0,0.0,0.0,0.0,0.0,0.0,0.0,0.0,0.0,0.0,0.0,0.0,0.0,0.0,0.0,0.0,0.0,0.0,0.0,0.0,0.0,0.0,0.0,0.0,0.0,0.0,0.0,0.0,0.0,0.0,0.0,0.0,0.0,0.0,0.0,0.0,0.0,0.0,0.0,0.0,0.0,0.0,0.0,0.0,0.0,0.0,0.0,0.0,0.0,0.0,0.0,0.0,0.0,0.0,0.0,0.0,0.0,0.0,0.0,0.0,0.0,0.0,0.0,0.0,0.0,0.0,0.0,0.0,0.0,0.0,0.0,0.0,0.0,0.0,0.0,0.0,0.0,0.0,0.0,0.0,0.0,0.0,0.0,0.0,0.0,0.0,0.0,0.0,0.0,0.0,0.0,0.0,0.0,0.0,0.0,0.0,0.0,0.0,0.0,0.0,0.0,0.0,0.0,0.0,0.0,0.0,0.0,0.0,0.0,0.0,0.0,0.0,0.0,0.0,0.0,0.0,0.0,0.0,0.0,0.0,0.0,0.0,0.0,0.0,0.0,0.0,0.0,0.0,0.0,0.0,0.0,0.0,0.0,0.0,0.0,0.0,0.0,0.0,0.0,0.0,0.0,0.0,0.0,0.0,0.0,0.0,0.0,0.0,0.0,0.0,0.0,0.0,0.0,0.0,0.0,0.0,0.0,0.0,0.0,0.0,0.0,0.0,0.0,0.0,0.0,0.0,0.0,0.0,0.0,0.0,0.0,0.0,0.0,0.0,0.0,0.0,0.0,0.0,0.0,0.0,0.0,0.0,0.0,0.0,0.0,0.0,0.0,0.0,0.0,0.0,0.0,0.0,0.0,0.0,0.0,0.0,0.0,0.0,0.0,0.0,0.0,0.0,0.0,0.0,0.0,0.0,0.0,0.0,0.0,0.0,0.0,0.0,0.0,0.0,0.0,0.0,0.0,0.0,0.0,0.0,0.0,0.0,0.0,0.0,0.0,0.0,0.0,0.0,0.0,0.0,0.0,0.0,0.0,0.0,0.0,0.0,0.0,0.0,0.0,0.0,-0.7511,0.0,0.0,0.0,0.0,0.0,0.0,0.0,0.0,0.0,0.0,0.0,0.0,0.0,0.0,0.0,0.0,0.0,0.0,0.0,0.0,0.0,0.0,0.0,0.0,0.0,0.0,0.0,0.0,0.0,0.0,0.0,0.0,0.0,0.0,0.0,0.0,0.0,0.0,0.0,0.0,0.0,0.0,0.0,0.0,0.0,0.0,0.0,0.0,0.0,0.0,0.0,0.0,0.0,0.0,0.0,0.0,0.0,0.0,0.0,0.0,0.0,0.0,0.0,0.0,0.0,0.0,0.0,0.0,0.0,0.0,0.0,0.0,0.0,0.0,0.0,0.0,0.0,0.0,0.0,0.0,0.0,0.0,0.0,0.0,0.0,0.0,0.0,0.0,0.0,0.0,0.0,0.0,0.0,0.0,0.0,0.0,0.0,0.0,0.0,0.0,0.0,0.0,0.0,0.0,0.0,0.0,0.0,0.0,0.0,0.0,-0.84,-0.8596,-0.7302,-0.6853,-0.7408,0.0,0.0,0.0,0.0,0.0,0.0,0.0,0.0,0.0,0.0,0.0,0.0,0.0,0.0,0.0,0.0,0.0,0.0,0.0,0.0,0.0,0.0,0.0,0.0,0.0,0.0,0.0,0.0,0.0,0.0,0.0,0.0,0.0,0.0,0.0,0.0,0.0,0.0,0.0,0.0,0.0,0.0,0.0,0.0,0.0,0.0,0.0,0.0,0.0,0.0,0.0,0.0,0.0,0.0,0.0,0.0,0.0,0.0,0.0,0.0,0.0,0.0,0.0,0.0,0.0,0.0,0.0,0.0,0.0,0.0,0.0,0.0,0.0,0.0,0.0,0.0,0.0,0.0,0.0,0.0,0.0,0.0,0.0,0.0,0.0,0.0,0.0,0.0,0.0,0.0,0.0,0.0,0.0,0.0,0.0,0.0,0.0,0.0,0.0,0.0,0.0,0.0,0.0,0.0,0.0,0.0,0.0,0.0,0.0,0.0,0.0,0.0,-0.8201,-0.7528,-0.7579,0.0,0.0,0.0,0.0,0.0,0.0,0.0,0.0,0.0,0.0,0.0,0.0,0.0,0.0,0.0,0.0,0.0,0.0,0.0,0.0,0.0,0.0,0.0,0.0,0.0,0.0,0.0,0.0,0.0,0.0,0.0,0.0,0.0,0.0,0.0,0.0,0.0,0.0,0.0,0.0,0.0,0.0,0.0,0.0,0.0,0.0,0.0,0.0,0.0,0.0,0.0,0.0,0.0,0.0,0.0,0.0,0.0,0.0,0.0,0.0,0.0,0.0,0.0,0.0,0.0,0.0,0.0,0.0,0.0,0.0,0.0,0.0,0.0,0.0,0.0,0.0,0.0,0.0,0.0,0.0,0.0,0.0,0.0,0.0,0.0,0.0,0.0,0.0,0.0,0.0,0.0,0.0,0.0,0.0,0.0,0.0,0.0,0.0,0.0,0.0,0.0,0.0,0.0,0.0,0.0,0.0,0.0,0.0,0.0,0.0,-1.0784,-1.3255,-1.1154,0.0,-0.9127,0.0,0.0,0.0,0.0,0.0,0.0,0.0,0.0,0.0,0.0,0.0,0.0,0.0,0.0,0.0,0.0,0.0,0.0,0.0,0.0,0.0,0.0,0.0,0.0,0.0,0.0,0.0,0.0,0.0,0.0,0.0,0.0,0.0,0.0,0.0,0.0,0.0,0.0,0.0,0.0,0.0,0.0,0.0,0.0,0.0,0.0,0.0,0.0,0.0,0.0,0.0,0.0,0.0,0.0,0.0,0.0,0.0,0.0,0.0,0.0,0.0,0.0,0.0,0.0,0.0,0.0,0.0,0.0,0.0,0.0,0.0,0.0,0.0,0.0,0.0,0.0,0.0,0.0,0.0,0.0,0.0,0.0,0.0,0.0,0.0,0.0,0.0,0.0,0.0,0.0,0.0,0.0,0.0,0.0,0.0,0.0,0.0,0.0,0.0,0.0,0.0,0.0,0.0,0.0,0.0,0.0,0.0,0.0,0.0,0.0,-1.0629,-1.2112,-1.129,-1.0192,0.0,0.0,0.0,0.0,0.0,0.0,0.0,0.0,0.0,0.0,0.0,0.0,0.0,0.0,0.0,0.0,0.0,0.0,0.0,0.0,0.0,0.0,0.0,0.0,0.0,0.0,0.0,0.0,0.0,0.0,0.0,0.0,0.0,0.0,0.0,0.0,0.0,0.0,0.0,0.0,0.0,0.0,0.0,0.0,0.0,0.0,0.0,0.0,0.0,0.0,0.0,0.0,0.0,0.0,0.0,0.0,0.0,0.0,0.0,0.0,0.0,0.0,0.0,0.0,0.0,0.0,0.0,0.0,0.0,0.0,0.0,0.0,0.0,0.0,0.0,0.0,0.0,0.0,0.0,0.0,0.0,0.0,0.0,0.0,0.0,0.0,0.0,0.0,0.0,0.0,0.0,0.0,0.0,0.0,0.0,0.0,0.0,0.0,0.0,0.0,0.0,0.0,0.0,0.0,0.0,0.0,0.0,0.0,0.0,0.0,-1.0962,-1.0955,-1.165,-1.1329,-1.0614,-0.9643,0.0,0.0,0.0,0.0,0.0,0.0,0.0,0.0,0.0,0.0,0.0,0.0,0.0,0.0,0.0,0.0,0.0,0.0,0.0,0.0,0.0,0.0,0.0,0.0,0.0,0.0,0.0,0.0,0.0,0.0,0.0,0.0,0.0,0.0,0.0,0.0,0.0,0.0,0.0,0.0,0.0,0.0,0.0,0.0,0.0,0.0,0.0,0.0,0.0,0.0,0.0,0.0,0.0,0.0,0.0,0.0,0.0,0.0,0.0,0.0,0.0,0.0,0.0,0.0,0.0,0.0,0.0,0.0,0.0,0.0,0.0,0.0,0.0,0.0,0.0,0.0,0.0,0.0,0.0,0.0,0.0,0.0,0.0,0.0,0.0,0.0,0.0,0.0,0.0,0.0,0.0,0.0,0.0,0.0,0.0,0.0,0.0,0.0,0.0,0.0,0.0,0.0,0.0,0.0,0.0,0.0,0.0,0.0,-1.5141,-1.3053,-1.2331,-1.332,-1.2144,-1.165,0.0,0.0,0.0,0.0,0.0,0.0,0.0,0.0,0.0,0.0,0.0,0.0,0.0,0.0,0.0,0.0,0.0,0.0,0.0,0.0,0.0,0.0,0.0,0.0,0.0,0.0,0.0,0.0,0.0,0.0,0.0,0.0,0.0,0.0,0.0,0.0,0.0,0.0,0.0,0.0,0.0,0.0,0.0,0.0,0.0,0.0,0.0,0.0,0.0,0.0,0.0,0.0,0.0,0.0,0.0,0.0,0.0,0.0,0.0,0.0,0.0,0.0,0.0,0.0,0.0,0.0,0.0,0.0,0.0,0.0,0.0,0.0,0.0,0.0,0.0,0.0,0.0,0.0,0.0,0.0,0.0,0.0,0.0,0.0,0.0,0.0,0.0,0.0,0.0,0.0,0.0,0.0,0.0,0.0,0.0,0.0,0.0,0.0,0.0,0.0,0.0,0.0,0.0,0.0,0.0,0.0,0.0,0.0,0.0,-1.2358,-1.2066,-1.2251,-1.2986,-1.1997,-1.1818,0.0,0.0,0.0,0.0,0.0,0.0,0.0,0.0,0.0,0.0,0.0,0.0,0.0,0.0,0.0,0.0,0.0,0.0,0.0,0.0,0.0,0.0,0.0,0.0,0.0,0.0,0.0,0.0,0.0,0.0,0.0,0.0,0.0,0.0,0.0,0.0,0.0,0.0,0.0,0.0,0.0,0.0,0.0,0.0,0.0,0.0,0.0,0.0,0.0,0.0,0.0,0.0,0.0,0.0,0.0,0.0,0.0,0.0,0.0,0.0,0.0,0.0,0.0,0.0,0.0,0.0,0.0,0.0,0.0,0.0,0.0,0.0,0.0,0.0,0.0,0.0,0.0,0.0,0.0,0.0,0.0,0.0,0.0,0.0,0.0,0.0,0.0,0.0,0.0,0.0,0.0,0.0,0.0,0.0,0.0,0.0,0.0,0.0,0.0,0.0,0.0,0.0,0.0,0.0,0.0,0.0,0.0,0.0,0.0,-1.2077,0.0,-1.4018,-1.4117,-1.3172,-1.2898,0.0,0.0,0.0,0.0,0.0,0.0,0.0,0.0,0.0,0.0,0.0,0.0,0.0,0.0,0.0,0.0,0.0,0.0,0.0,0.0,0.0,0.0,0.0,0.0,0.0,0.0,0.0,0.0,0.0,0.0,0.0,0.0,0.0,0.0,0.0,0.0,0.0,0.0,0.0,0.0,0.0,0.0,0.0,0.0,0.0,0.0,0.0,0.0,0.0,0.0,0.0,0.0,0.0,0.0,0.0,0.0,0.0,0.0,0.0,0.0,0.0,0.0,0.0,0.0,0.0,0.0,0.0,0.0,0.0,0.0,0.0,0.0,0.0,0.0,0.0,0.0,0.0,0.0,0.0,0.0,0.0,0.0,0.0,0.0,0.0,0.0,0.0,0.0,0.0,0.0,0.0,0.0,0.0,0.0,0.0,0.0,0.0,0.0,0.0,0.0,0.0,0.0,0.0,0.0,0.0,0.0,0.0,0.0,-1.2388,-1.4912,-1.6944,-1.7465,-1.6901,-1.5773,-1.478,0.0,0.0,0.0,0.0,0.0,0.0,0.0,0.0,0.0,0.0,0.0,0.0,0.0,0.0,0.0,0.0,0.0,0.0,0.0,0.0,0.0,0.0,0.0,0.0,0.0,0.0,0.0,0.0,0.0,0.0,0.0,0.0,0.0,0.0,0.0,0.0,0.0,0.0,0.0,0.0,0.0,0.0,0.0,0.0,0.0,0.0,0.0,0.0,0.0,0.0,0.0,0.0,0.0,0.0,0.0,0.0,0.0,0.0,0.0,0.0,0.0,0.0,0.0,0.0,0.0,0.0,0.0,0.0,0.0,0.0,0.0,0.0,0.0,0.0,0.0,0.0,0.0,0.0,0.0,0.0,0.0,0.0,0.0,0.0,0.0,0.0,0.0,0.0,0.0,0.0,0.0,0.0,0.0,0.0,0.0,0.0,0.0,0.0,0.0,0.0,0.0,0.0,0.0,0.0,0.0,0.0,0.0,0.0,0.0,-1.5773,-1.6451,-1.7265,-1.8112,-1.5869,-1.5445,0.0,0.0,0.0,0.0,0.0,0.0,0.0,0.0,0.0,0.0,0.0,0.0,0.0,0.0,0.0,0.0,0.0,0.0,0.0,0.0,0.0,0.0,0.0,0.0,0.0,0.0,0.0,0.0,0.0,0.0,0.0,0.0,0.0,0.0,0.0,0.0,0.0,0.0,0.0,0.0,0.0,0.0,0.0,0.0,0.0,0.0,0.0,0.0,0.0,0.0,0.0,0.0,0.0,0.0,0.0,0.0,0.0,0.0,0.0,0.0,0.0,0.0,0.0,0.0,0.0,0.0,0.0,0.0,0.0,0.0,0.0,0.0,0.0,0.0,0.0,0.0,0.0,0.0,0.0,0.0,0.0,0.0,0.0,0.0,0.0,0.0,0.0,0.0,0.0,0.0,0.0,0.0,0.0,0.0,0.0,0.0,0.0,0.0,0.0,0.0,0.0,0.0,0.0,0.0,0.0,0.0,0.0,0.0,0.0,-1.8356,-1.876,-1.93,-1.9943,-1.7836,-1.7134,-1.8138,0.0,0.0,0.0,0.0,0.0,0.0,0.0,0.0,0.0,0.0,0.0,0.0,0.0,0.0,0.0,0.0,0.0,0.0,0.0,0.0,0.0,0.0,0.0,0.0,0.0,0.0,0.0,0.0,0.0,0.0,0.0,0.0,0.0,0.0,0.0,0.0,0.0,0.0,0.0,0.0,0.0,0.0,0.0,0.0,0.0,0.0,0.0,0.0,0.0,0.0,0.0,0.0,0.0,0.0,0.0,0.0,0.0,0.0,0.0,0.0,0.0,0.0,0.0,0.0,0.0,0.0,0.0,0.0,0.0,0.0,0.0,0.0,0.0,0.0,0.0,0.0,0.0,0.0,0.0,0.0,0.0,0.0,0.0,0.0,0.0,0.0,0.0,0.0,0.0,0.0,0.0,0.0,0.0,0.0,0.0,0.0,0.0,0.0,0.0,0.0,0.0,0.0,0.0,0.0,0.0,0.0,0.0,0.0,-2.1997,-2.3223,-2.3301,-2.2129,-2.1074,-1.9609,0.0,0.0,0.0,0.0,0.0,0.0,0.0,0.0,0.0,0.0,0.0,0.0,0.0,0.0,0.0,0.0,0.0,0.0,0.0,0.0,0.0,0.0,0.0,0.0,0.0,0.0,0.0,0.0,0.0,0.0,0.0,0.0,0.0,0.0,0.0,0.0,0.0,0.0,0.0,0.0,0.0,0.0,0.0,0.0,0.0,0.0,0.0,0.0,0.0,0.0,0.0,0.0,0.0,0.0,0.0,0.0,0.0,0.0,0.0,0.0,0.0,0.0,0.0,0.0,0.0,0.0,0.0,0.0,0.0,0.0,0.0,0.0,0.0,0.0,0.0,0.0,0.0,0.0,0.0,0.0,0.0,0.0,0.0,0.0,0.0,0.0,0.0,0.0,0.0,0.0,0.0,0.0,0.0,0.0,0.0,0.0,0.0,0.0,0.0,0.0,0.0,0.0,0.0,0.0,0.0,0.0,0.0,0.0,0.0,-2.3266,-2.4584,-2.4902,-2.4219,-2.1855,-2.0312,0.0,0.0,0.0,0.0,0.0,0.0,0.0,0.0,0.0,0.0,0.0,0.0,0.0,0.0,0.0,0.0,0.0,0.0,0.0,0.0,0.0,0.0,0.0,0.0,0.0,0.0,0.0,0.0,0.0,0.0,0.0,0.0,0.0,0.0,0.0,0.0,0.0,0.0,0.0,0.0,0.0,0.0,0.0,0.0,0.0,0.0,0.0,0.0,0.0,0.0,0.0,0.0,0.0,0.0,0.0,0.0,0.0,0.0,0.0,0.0,0.0,0.0,0.0,0.0,0.0,0.0,0.0,0.0,0.0,0.0,0.0,0.0,0.0,0.0,0.0,0.0,0.0,0.0,0.0,0.0,0.0,0.0,0.0,0.0,0.0,0.0,0.0,0.0,0.0,0.0,0.0,0.0,0.0,0.0,0.0,0.0,0.0,0.0,0.0,0.0,0.0,0.0,0.0,0.0,0.0,0.0,0.0,0.0,-2.2669,-2.4923,-2.6357,-2.6996,-2.6734,-2.4791,-2.2737,0.0,0.0,0.0,0.0,0.0,0.0,0.0,0.0,0.0,0.0,0.0,0.0,0.0,0.0,0.0,0.0,0.0,0.0,0.0,0.0,0.0,0.0,0.0,0.0,0.0,0.0,0.0,0.0,0.0,0.0,0.0,0.0,0.0,0.0,0.0,0.0,0.0,0.0,0.0,0.0,0.0,0.0,0.0,0.0,0.0,0.0,0.0,0.0,0.0,0.0,0.0,0.0,0.0,0.0,0.0,0.0,0.0,0.0,0.0,0.0,0.0,0.0,0.0,0.0,0.0,0.0,0.0,0.0,0.0,0.0,0.0,0.0,0.0,0.0,0.0,0.0,0.0,0.0,0.0,0.0,0.0,0.0,0.0,0.0,0.0,0.0,0.0,0.0,0.0,0.0,0.0,0.0,0.0,0.0,0.0,0.0,0.0,0.0,0.0,0.0,0.0,0.0,0.0,0.0,0.0,0.0,0.0,0.0,-2.3856,-2.6922,-2.838,-2.9261,-2.9282,-2.8433,-2.5892,0.0,0.0,0.0,0.0,0.0,0.0,0.0,0.0,0.0,0.0,0.0,0.0,0.0,0.0,0.0,0.0,0.0,0.0,0.0,0.0,0.0,0.0,0.0,0.0,0.0,0.0,0.0,0.0,0.0,0.0,0.0,0.0,0.0,0.0,0.0,0.0,0.0,0.0,0.0,0.0,0.0,0.0,0.0,0.0,0.0,0.0,0.0,0.0,0.0,0.0,0.0,0.0,0.0,0.0,0.0,0.0,0.0,0.0,0.0,0.0,0.0,0.0,0.0,0.0,0.0,0.0,0.0,0.0,0.0,0.0,0.0,0.0,0.0,0.0,0.0,0.0,0.0,0.0,0.0,0.0,0.0,0.0,0.0,0.0,0.0,0.0,0.0,0.0,0.0,0.0,0.0,0.0,0.0,0.0,0.0,0.0,0.0,0.0,0.0,0.0,0.0,0.0,0.0,0.0,0.0,0.0,0.0,0.0,-2.6229,-2.8769,-2.9933,-3.0688,-3.114,-2.9098,-2.6719,0.0,0.0,0.0,0.0,0.0,0.0,0.0,0.0,0.0,0.0,0.0,0.0,0.0,0.0,0.0,0.0,0.0,0.0,0.0,0.0,0.0,0.0,0.0,0.0,0.0,0.0,0.0,0.0,0.0,0.0,0.0,0.0,0.0,0.0,0.0,0.0,0.0,0.0,0.0,0.0,0.0,0.0,0.0,0.0,0.0,0.0,0.0,0.0,-1.5494,0.0,0.0,0.0,0.0,0.0,0.0,0.0,0.0,0.0,0.0,0.0,0.0,0.0,0.0,0.0,0.0,0.0,0.0,0.0,0.0,0.0,0.0,0.0,0.0,0.0,0.0,0.0,0.0,0.0,0.0,0.0,0.0,0.0,0.0,0.0,0.0,0.0,0.0,0.0,0.0,0.0,0.0,0.0,0.0,0.0,0.0,0.0,0.0,0.0,0.0,0.0,0.0,0.0,0.0,0.0,0.0,0.0,0.0,0.0,-2.7355,-3.0461,-3.1368,-3.2199,-3.2845,-3.1616,-2.9248,0.0,0.0,0.0,0.0,0.0,0.0,0.0,0.0,0.0,0.0,0.0,0.0,0.0,0.0,0.0,0.0,0.0,0.0,0.0,0.0,0.0,0.0,0.0,0.0,0.0,0.0,0.0,0.0,0.0,0.0,0.0,0.0,0.0,0.0,0.0,0.0,0.0,0.0,0.0,0.0,0.0,0.0,0.0,0.0,0.0,0.0,0.0,0.0,0.0,0.0,0.0,0.0,0.0,0.0,0.0,0.0,0.0,0.0,0.0,0.0,0.0,0.0,0.0,0.0,0.0,0.0,0.0,0.0,0.0,0.0,0.0,0.0,0.0,0.0,0.0,0.0,0.0,0.0,0.0,0.0,0.0,0.0,0.0,0.0,0.0,0.0,0.0,0.0,0.0,0.0,0.0,0.0,0.0,0.0,0.0,0.0,0.0,0.0,0.0,0.0,0.0,0.0,0.0,0.0,0.0,0.0,0.0,-2.645,-2.83,-3.195,-3.2855,-3.3789,-3.463,-3.4107,-3.1843,-2.7687,0.0,0.0,0.0,0.0,0.0,0.0,0.0,0.0,0.0,0.0,0.0,0.0,0.0,0.0,0.0,0.0,0.0,0.0,0.0,0.0,0.0,0.0,0.0,0.0,0.0,0.0,0.0,0.0,0.0,0.0,0.0,0.0,0.0,0.0,0.0,0.0,0.0,0.0,-1.6176,-1.4917,0.0,0.0,0.0,0.0,0.0,0.0,0.0,0.0,-1.8732,0.0,0.0,0.0,0.0,0.0,0.0,0.0,0.0,0.0,0.0,0.0,0.0,0.0,0.0,0.0,0.0,0.0,0.0,0.0,0.0,0.0,0.0,0.0,0.0,0.0,0.0,0.0,0.0,0.0,0.0,0.0,0.0,0.0,0.0,0.0,0.0,0.0,0.0,0.0,0.0,0.0,0.0,0.0,0.0,0.0,0.0,0.0,0.0,0.0,0.0,0.0,0.0,0.0,0.0,0.0,0.0,-2.7703,-2.9118,-3.0827,-3.2884,-3.4379,-3.5425,-3.5974,-3.4209,-3.2006,-2.9521,0.0,0.0,0.0,0.0,0.0,0.0,0.0,0.0,0.0,0.0,0.0,0.0,0.0,0.0,0.0,0.0,0.0,0.0,0.0,0.0,0.0,0.0,0.0,0.0,0.0,0.0,0.0,0.0,0.0,0.0,0.0,0.0,0.0,0.0,0.0,0.0,0.0,0.0,0.0,-1.6378,-1.5981,0.0,0.0,0.0,0.0,0.0,0.0,0.0,0.0,-2.0178,0.0,0.0,0.0,0.0,0.0,0.0,0.0,0.0,0.0,0.0,0.0,0.0,0.0,0.0,0.0,0.0,0.0,0.0,0.0,0.0,0.0,0.0,0.0,0.0,0.0,0.0,0.0,0.0,0.0,0.0,0.0,0.0,0.0,0.0,0.0,0.0,0.0,0.0,0.0,0.0,0.0,0.0,0.0,0.0,0.0,0.0,0.0,0.0,0.0,0.0,0.0,0.0,0.0,0.0,0.0,-2.7623,-2.9628,-3.1411,-3.3043,-3.4424,-3.5253,-3.5454,-3.337,-3.1311,0.0,0.0,0.0,0.0,0.0,0.0,0.0,0.0,0.0,0.0,0.0,0.0,0.0,0.0,0.0,0.0,0.0,0.0,0.0,0.0,0.0,0.0,0.0,0.0,0.0,0.0,0.0,0.0,0.0,0.0,0.0,0.0,0.0,0.0,0.0,0.0,0.0,0.0,0.0,0.0,-1.7877,-1.7533,-1.7149,0.0,0.0,0.0,0.0,0.0,0.0,-2.0957,-2.1313,0.0,0.0,0.0,0.0,0.0,0.0,0.0,0.0,0.0,0.0,0.0,0.0,0.0,0.0,0.0,0.0,0.0,0.0,0.0,0.0,0.0,0.0,0.0,0.0,0.0,0.0,0.0,0.0,0.0,0.0,0.0,0.0,0.0,0.0,0.0,0.0,0.0,0.0,0.0,0.0,0.0,0.0,0.0,0.0,0.0,0.0,0.0,0.0,0.0,0.0,0.0,0.0,0.0,0.0,0.0,-2.7143,-2.9428,-3.1361,-3.2867,-3.4098,-3.4675,-3.4525,-3.2491,-3.0557,0.0,0.0,0.0,0.0,0.0,0.0,0.0,0.0,0.0,0.0,0.0,0.0,0.0,0.0,0.0,0.0,0.0,0.0,0.0,0.0,0.0,0.0,0.0,0.0,0.0,0.0,0.0,0.0,0.0,0.0,0.0,0.0,0.0,0.0,0.0,0.0,0.0,0.0,0.0,0.0,0.0,-1.9316,-1.9082,-1.9902,0.0,0.0,0.0,0.0,-2.1808,-2.2714,0.0,0.0,0.0,0.0,0.0,0.0,0.0,0.0,0.0,0.0,0.0,0.0,0.0,0.0,0.0,0.0,0.0,0.0,0.0,0.0,0.0,0.0,0.0,0.0,0.0,0.0,0.0,0.0,0.0,0.0,0.0,0.0,0.0,0.0,0.0,0.0,0.0,0.0,0.0,0.0,0.0,0.0,0.0,0.0,0.0,0.0,0.0,0.0,0.0,0.0,0.0,0.0,0.0,0.0,0.0,0.0,-2.6615,-2.9227,-3.116,-3.2315,-3.3897,-3.45,-3.3997,-3.229,-3.0382,0.0,0.0,0.0,0.0,0.0,0.0,0.0,0.0,0.0,0.0,0.0,0.0,0.0,0.0,0.0,0.0,0.0,0.0,0.0,0.0,0.0,0.0,0.0,0.0,0.0,0.0,0.0,0.0,0.0,0.0,0.0,0.0,0.0,0.0,0.0,0.0,0.0,0.0,0.0,0.0,0.0,-2.1641,-2.0508,-2.1738,-2.2539,0.0,0.0,-2.4051,-2.3886,-2.6387,0.0,0.0,0.0,0.0,0.0,0.0,0.0,0.0,0.0,0.0,0.0,0.0,0.0,0.0,0.0,0.0,0.0,0.0,0.0,0.0,0.0,0.0,0.0,0.0,0.0,0.0,0.0,0.0,0.0,0.0,0.0,0.0,0.0,0.0,0.0,0.0,0.0,0.0,0.0,0.0,0.0,0.0,0.0,0.0,0.0,0.0,0.0,0.0,0.0,0.0,0.0,0.0,0.0,0.0,0.0,-2.5661,-2.6584,-2.89,-3.0532,-3.1311,-3.2616,-3.3018,-3.2491,-3.0557,-2.8925,0.0,0.0,0.0,0.0,0.0,0.0,0.0,0.0,0.0,0.0,0.0,0.0,0.0,0.0,0.0,0.0,0.0,0.0,0.0,0.0,0.0,0.0,0.0,0.0,0.0,0.0,0.0,0.0,0.0,0.0,0.0,0.0,0.0,0.0,0.0,0.0,0.0,0.0,0.0,0.0,0.0,0.0,-2.1998,-2.3719,0.0,0.0,0.0,-2.6135,-2.599,0.0,0.0,0.0,0.0,0.0,0.0,0.0,0.0,0.0,0.0,0.0,0.0,0.0,0.0,0.0,0.0,0.0,0.0,0.0,0.0,0.0,0.0,0.0,0.0,0.0,0.0,0.0,0.0,0.0,0.0,0.0,0.0,0.0,0.0,0.0,0.0,0.0,0.0,0.0,0.0,0.0,0.0,0.0,0.0,0.0,0.0,0.0,0.0,0.0,0.0,0.0,0.0,0.0,0.0,0.0,0.0,0.0,-2.6465,-2.8373,-2.9779,-3.0608,-3.1537,-3.1738,-3.1185,-2.9302,0.0,0.0,0.0,0.0,0.0,0.0,0.0,0.0,0.0,0.0,0.0,0.0,0.0,0.0,0.0,0.0,0.0,0.0,0.0,0.0,0.0,0.0,0.0,0.0,0.0,0.0,0.0,-1.9058,0.0,0.0,0.0,0.0,0.0,0.0,0.0,0.0,0.0,0.0,0.0,0.0,0.0,0.0,-2.3932,-2.4039,-2.5842,-2.7054,0.0,0.0,-2.8149,-2.7752,-2.8395,-2.8467,0.0,0.0,0.0,0.0,0.0,0.0,0.0,0.0,0.0,0.0,0.0,0.0,0.0,0.0,0.0,0.0,0.0,0.0,0.0,0.0,0.0,0.0,0.0,0.0,0.0,0.0,0.0,0.0,0.0,0.0,0.0,0.0,0.0,0.0,0.0,0.0,0.0,0.0,0.0,0.0,0.0,0.0,0.0,0.0,0.0,0.0,0.0,0.0,0.0,0.0,0.0,0.0,0.0,0.0,0.0,-2.6508,-2.762,-2.9001,-3.0557,-3.116,-3.1185,-3.0683,-2.9503,-2.8348,0.0,0.0,0.0,0.0,0.0,0.0,0.0,0.0,0.0,0.0,0.0,0.0,0.0,0.0,0.0,0.0,0.0,0.0,0.0,0.0,0.0,0.0,0.0,0.0,0.0,0.0,0.0,0.0,0.0,0.0,0.0,0.0,0.0,0.0,0.0,0.0,0.0,0.0,0.0,0.0,0.0,-2.6483,-2.7099,-2.8046,-2.8677,0.0,0.0,-3.001,-2.8929,-3.1418,-3.2222,-2.855,0.0,0.0,0.0,0.0,0.0,0.0,0.0,0.0,0.0,0.0,0.0,0.0,0.0,0.0,0.0,0.0,0.0,0.0,0.0,0.0,0.0,0.0,0.0,0.0,0.0,0.0,0.0,0.0,0.0,0.0,0.0,0.0,0.0,0.0,0.0,0.0,0.0,0.0,0.0,0.0,0.0,0.0,0.0,0.0,0.0,0.0,0.0,0.0,0.0,0.0,0.0,0.0,0.0,-2.4808,-2.644,-2.7218,-2.8423,-3.003,-3.0306,-3.0306,-3.0105,-2.9026,-2.7745,0.0,0.0,0.0,0.0,0.0,0.0,0.0,0.0,0.0,0.0,0.0,0.0,0.0,0.0,0.0,0.0,0.0,0.0,0.0,0.0,0.0,0.0,0.0,0.0,0.0,0.0,0.0,0.0,-1.9635,-1.9786,-2.0464,0.0,0.0,0.0,0.0,0.0,0.0,0.0,0.0,0.0,0.0,-2.7088,-2.821,-2.9487,0.0,0.0,-3.0636,-3.086,-3.004,-3.0767,-3.0633,-2.8448,-2.7795,0.0,0.0,0.0,0.0,0.0,0.0,0.0,0.0,0.0,0.0,0.0,0.0,0.0,0.0,0.0,0.0,0.0,0.0,0.0,0.0,0.0,0.0,0.0,0.0,0.0,0.0,0.0,0.0,0.0,0.0,0.0,0.0,0.0,0.0,0.0,0.0,0.0,0.0,0.0,0.0,0.0,0.0,0.0,0.0,0.0,0.0,0.0,0.0,0.0,0.0,0.0,0.0,-2.4707,-2.6666,-2.6917,-2.7946,-2.9754,-2.9779,-2.9779,-2.9754,-2.885,-2.7645,0.0,0.0,0.0,0.0,0.0,0.0,0.0,0.0,0.0,0.0,0.0,0.0,0.0,0.0,0.0,0.0,0.0,0.0,0.0,0.0,0.0,0.0,0.0,0.0,0.0,0.0,0.0,0.0,-2.0238,-2.0439,-2.1393,0.0,0.0,0.0,0.0,0.0,0.0,0.0,0.0,0.0,0.0,-2.8232,-2.9706,-3.0869,-3.1562,-3.1386,-3.1386,-3.126,-3.0909,-3.0256,-2.9352,-2.8072,0.0,0.0,0.0,0.0,0.0,0.0,0.0,0.0,0.0,0.0,0.0,0.0,0.0,0.0,0.0,0.0,0.0,0.0,0.0,0.0,0.0,0.0,0.0,0.0,0.0,0.0,0.0,0.0,0.0,0.0,0.0,0.0,0.0,0.0,0.0,0.0,0.0,0.0,0.0,0.0,0.0,0.0,0.0,0.0,0.0,0.0,0.0,0.0,0.0,0.0,0.0,0.0,0.0,-2.4531,-2.7193,-2.6766,-2.757,-2.9704,-2.9779,-2.9779,-2.9779,-2.9227,-2.8373,-2.7243,0.0,0.0,0.0,0.0,0.0,0.0,0.0,0.0,0.0,0.0,0.0,0.0,0.0,0.0,0.0,0.0,0.0,0.0,0.0,0.0,0.0,0.0,0.0,0.0,0.0,0.0,-2.2121,-2.1292,-2.0945,0.0,0.0,0.0,0.0,0.0,0.0,0.0,0.0,0.0,0.0,-2.9051,-3.0331,-3.1805,-3.2164,-3.229,-3.2842,-3.2039,-3.1361,-3.1311,-3.0457,-2.9227,0.0,0.0,0.0,0.0,0.0,0.0,0.0,0.0,0.0,0.0,0.0,0.0,0.0,0.0,0.0,0.0,0.0,0.0,0.0,0.0,0.0,0.0,0.0,0.0,0.0,0.0,0.0,-2.3144,-2.3144,0.0,0.0,0.0,0.0,0.0,0.0,0.0,0.0,0.0,0.0,0.0,-2.3837,-2.4597,0.0,0.0,0.0,0.0,0.0,0.0,0.0,0.0,0.0,0.0,0.0,0.0,-2.4883,-2.7143,-2.7092,-2.7896,-2.9729,-2.9779,-2.9779,-2.9779,-2.9227,-2.8047,-2.6214,0.0,0.0,0.0,0.0,0.0,0.0,0.0,0.0,0.0,0.0,0.0,0.0,0.0,0.0,0.0,0.0,0.0,0.0,0.0,0.0,0.0,0.0,0.0,0.0,0.0,-2.2447,0.0,0.0,0.0,0.0,0.0,0.0,0.0,0.0,0.0,0.0,0.0,-2.7333,-2.9392,-2.9757,-3.0131,-3.1035,-3.116,-3.121,0.0,0.0,0.0,0.0,0.0,0.0,0.0,0.0,0.0,0.0,0.0,0.0,0.0,0.0,-3.3118,-3.136,-3.0689,-3.0514,-3.0748,0.0,0.0,0.0,0.0,0.0,0.0,0.0,0.0,0.0,0.0,0.0,0.0,0.0,0.0,0.0,0.0,-2.3828,0.0,0.0,0.0,0.0,0.0,0.0,0.0,0.0,-2.2715,-2.3912,-2.5352,-2.6044,-2.7099,0.0,-2.8256,-2.7287,0.0,0.0,0.0,0.0,0.0,0.0,0.0,0.0,-2.5285,-2.7193,-2.7293,-2.8097,-2.9704,-2.9779,-2.9779,-2.9779,-2.885,-2.757,-2.5937,-2.4155,-2.2924,0.0,0.0,0.0,0.0,0.0,0.0,0.0,0.0,0.0,0.0,0.0,0.0,0.0,0.0,0.0,0.0,0.0,0.0,0.0,0.0,0.0,0.0,0.0,-2.3674,0.0,0.0,0.0,0.0,0.0,0.0,0.0,0.0,0.0,-2.9998,-2.9356,-2.9605,-3.1567,-3.1404,-3.1215,-3.1419,0.0,0.0,0.0,0.0,0.0,0.0,0.0,-2.9448,-2.8707,-2.9777,-3.0856,-3.1197,-3.2777,-3.3908,-3.3674,0.0,0.0,-3.3185,-3.2706,-3.2557,-3.2557,-3.2527,-3.2617,-3.3006,-3.2946,-3.2886,0.0,0.0,0.0,0.0,0.0,0.0,0.0,0.0,-2.2924,-2.4648,0.0,-2.4023,0.0,0.0,0.0,0.0,0.0,0.0,0.0,0.0,-2.3879,-2.5496,-2.7267,-2.7738,-2.8654,-2.9877,-3.0834,-3.0181,-2.8021,-2.5937,0.0,0.0,0.0,0.0,0.0,0.0,-2.5661,-2.7268,-2.7344,-2.8147,-2.9704,-2.9779,-2.9779,-2.9754,-2.8197,-2.7067,-2.649,-2.536,-2.4029,-2.2498,-2.3351,0.0,0.0,0.0,0.0,0.0,0.0,0.0,0.0,0.0,0.0,0.0,0.0,0.0,0.0,0.0,0.0,0.0,0.0,0.0,0.0,-2.413,0.0,0.0,0.0,0.0,0.0,0.0,0.0,0.0,0.0,0.0,-3.1898,-3.2444,-3.3306,-3.4529,0.0,0.0,0.0,0.0,-3.1577,-3.0716,-3.0583,-3.0557,-3.0532,-3.088,-3.0797,-2.9663,0.0,0.0,-3.4375,-3.504,-3.528,-3.4622,-3.4409,-3.4528,-3.531,-3.4771,-3.4415,-3.4322,-3.3395,-3.3036,-3.3849,-3.3036,-3.2168,-1.8651,0.0,0.0,0.0,0.0,-2.2247,-2.3978,-2.4751,-2.6053,-2.6426,-2.6152,-2.5352,0.0,0.0,0.0,0.0,0.0,0.0,-2.2637,-2.2663,-2.4771,-2.6555,-2.7933,-2.9473,-3.0481,-3.0959,-3.0859,-2.9905,-2.8122,-2.7067,-2.6289,-2.5762,0.0,0.0,0.0,0.0,-2.6189,-2.777,-2.8247,-2.8875,-2.9779,-2.9779,-2.9779,-2.9779,-2.8549,-2.762,-2.7067,-2.5234,-2.4205,-2.4079,-2.2899,0.0,0.0,0.0,0.0,0.0,0.0,0.0,0.0,0.0,0.0,0.0,0.0,0.0,0.0,0.0,0.0,0.0,0.0,0.0,-2.418,-2.4047,-2.4557,0.0,0.0,0.0,0.0,0.0,0.0,0.0,0.0,0.0,-3.5477,-3.4473,-3.4256,0.0,0.0,-3.3419,-3.4039,-3.2014,-3.0599,-3.1005,0.0,0.0,0.0,-2.9834,-3.0188,-3.0145,-3.2166,-3.4051,-3.5061,-3.537,-3.5429,-3.522,-3.519,-3.525,-3.537,-3.4838,-3.4177,-3.3875,-3.3814,-3.3993,-3.4265,-3.4355,-3.4233,-2.016,-1.93,-1.9585,-2.0136,-2.0849,-2.3408,-2.5144,-2.6243,-2.7036,-2.7402,-2.7324,-2.6406,-2.5352,-2.4258,-2.3574,0.0,0.0,0.0,-2.3359,-2.3644,-2.5098,-2.6716,-2.8363,-2.955,-3.0659,-3.1386,-3.0859,-3.0105,-2.9076,-2.8323,-2.777,-2.7394,0.0,0.0,-2.6264,-2.6465,-2.7092,-2.8072,-2.8649,-2.9202,-2.9779,-2.9779,-2.9679,-2.9428,-2.8574,-2.7745,-2.6967,-2.5259,-2.4155,-2.3828,-2.2548,-2.192,0.0,0.0,0.0,0.0,0.0,0.0,0.0,0.0,0.0,0.0,0.0,-2.1493,-2.0794,0.0,0.0,0.0,-2.172,-2.327,-2.4464,-2.4839,0.0,0.0,0.0,0.0,0.0,0.0,0.0,-3.181,-3.2706,-3.3991,-3.5968,-3.5436,-3.5605,-3.7344,-3.5356,-3.3936,-3.4159,0.0,-3.0419,-3.062,-3.0139,-2.9807,-2.9806,-3.0387,-3.1156,-3.1889,-3.2978,-3.4097,-3.4912,-3.4891,-3.4801,-3.5011,-3.504,-3.4921,-3.4741,-3.4143,-3.3784,-3.3844,-3.3963,-3.4083,-3.4083,-3.4412,-3.4592,-2.143,-2.1155,-2.0615,-2.0619,-2.137,-2.4054,-2.5541,-2.6078,-2.6883,-2.7832,-2.873,-2.7148,-2.6602,-2.6758,-2.5195,0.0,-2.4414,-2.4453,-2.4648,-2.5019,-2.5153,-2.6403,-2.8522,-2.8612,-2.9589,-3.1311,-3.0859,-3.0583,-3.0482,-2.9503,-2.9001,-2.8976,-2.7996,-2.7444,-2.7369,-2.7846,-2.8122,-2.8172,-2.8725,-2.9252,-2.9779,-2.9754,-2.9453,-2.8875,-2.8273,-2.7444,-2.6433,-2.5259,-2.3954,-2.2422,-2.2221,-2.1719,-2.0819,0.0,0.0,0.0,0.0,0.0,0.0,0.0,0.0,0.0,0.0,0.0,0.0,0.0,0.0,0.0,-2.2315,0.0,-2.4305,-2.6054,0.0,0.0,0.0,-3.0835,-3.1483,-3.0924,-3.1043,-3.2408,0.0,0.0,-3.4532,0.0,-3.6866,-3.8063,-3.6307,-3.4611,-3.3851,-3.2253,-3.0843,-3.0037,-2.9807,-3.0063,-3.0655,-3.1703,-3.2666,-3.3651,-3.3811,-3.3784,-3.4233,-3.3963,-3.3814,-3.4292,-3.4203,-3.3963,-3.3574,-3.306,-3.2966,-3.3963,-3.3844,-3.3514,-3.3544,-3.3604,-3.3574,-2.1844,-2.1697,-2.1203,-2.1534,-2.2734,-2.4662,-2.6377,-2.7767,-2.8592,-2.8769,-2.8379,-2.7324,-2.6367,-2.5508,-2.5098,-2.4727,-2.4434,-2.4766,-2.4785,-2.4683,-2.591,-2.704,-2.8119,-2.9074,-2.9941,-3.0728,-3.0683,-3.0407,-2.998,-2.9729,-2.9578,-2.9578,-2.9327,-2.8775,-2.7946,-2.8047,-2.8323,-2.8725,-2.9302,-2.9654,-2.9779,-2.9352,-2.8875,-2.8298,-2.7369,-2.6339,-2.5234,-2.4067,-2.315,-2.2347,-2.1518,-2.0941,-2.0743,-2.1192,0.0,0.0,0.0,0.0,0.0,0.0,0.0,0.0,0.0,-2.202,-2.1343,0.0,-2.2171,0.0,-2.1951,-2.3384,-2.4807,-2.6495,0.0,0.0,-3.1513,-3.2615,-3.2288,-3.2945,-3.3393,-3.3275,-3.3724,-3.4562,-3.5848,-3.5848,-3.6028,-3.6806,-3.5235,-3.4253,-3.511,-3.2482,-3.0388,-3.0241,-2.9855,-2.9614,-2.9971,-3.1171,-3.2319,-3.2593,-3.3111,-3.3574,-3.3694,-3.3604,-3.3544,-3.3664,-3.3276,-3.3066,-3.3396,-3.2193,-3.1438,-3.2107,-3.2886,-3.3514,-3.3514,-3.3455,-3.3335,-2.1991,-2.1937,-2.1349,-2.1505,-2.2443,-2.4722,-2.6662,-2.8237,-2.9145,-2.9199,-2.8516,-2.7676,-2.6797,-2.5937,-2.5742,-2.543,-2.5039,-2.5254,-2.5137,-2.4727,-2.5691,-2.662,-2.7603,-2.8287,-2.9141,-3.0256,-3.0256,-3.008,-2.9804,-2.9779,-2.9779,-2.9779,-2.9779,-2.9478,-2.8875,-2.885,-2.9001,-2.9302,-2.9628,-2.9679,-2.9402,-2.9101,-2.8549,-2.7745,-2.6666,-2.5561,-2.4481,-2.3376,-2.2623,-2.2322,-2.1719,-2.1292,-2.1096,-2.1317,-2.1117,0.0,0.0,0.0,0.0,0.0,0.0,0.0,0.0,0.0,0.0,0.0,-2.2985,-2.3113,-2.358,-2.4613,-2.637,-2.7967,-2.9337,-3.028,-3.1753,-3.2587,-3.2527,-3.3607,-3.4209,-3.3847,-3.4115,-3.4655,-3.5379,-3.4985,-3.4741,-3.51,-3.3859,-3.3378,-3.4209,-3.2166,-3.0422,-3.0492,-3.0153,-3.0119,-3.0528,-3.1269,-3.1831,-3.1833,-3.1812,-3.1839,-3.2078,-3.1928,-3.1839,-3.2048,-3.1657,-3.1384,-3.1865,-3.1011,-3.0189,-3.0372,-3.1093,-3.1689,-3.1749,-3.1749,-3.1629,-2.1964,-2.1884,-2.1336,-2.1109,-2.1348,-2.4593,-2.6594,-2.7633,-2.9069,-2.9258,-2.8711,-2.7988,-2.7402,-2.6914,-2.6562,-2.6152,-2.5742,-2.5723,-2.5488,-2.5078,-2.5,-2.5706,-2.7115,-2.7048,-2.7988,-2.9727,-2.9779,-2.9779,-2.9779,-2.9779,-2.9779,-2.9779,-2.9779,-2.9779,-2.9779,-2.9779,-2.9779,-2.9779,-2.9779,-2.9553,-2.9051,-2.89,-2.8298,-2.7193,-2.6088,-2.4933,-2.3728,-2.2723,-2.2146,-2.1995,-2.1995,-2.1769,-2.1317,-2.1343,-2.1167,0.0,-2.0869,0.0,0.0,0.0,0.0,0.0,0.0,0.0,0.0,-2.2317,-2.3633,-2.5761,-2.5743,-2.6301,-2.8053,-2.9599,-3.0552,-3.0642,-3.124,-3.187,-3.2587,-3.3517,-3.4151,-3.409,-3.4085,-3.4115,-3.4119,-3.3757,-3.3514,-3.3543,-3.2864,-3.2478,-3.2667,-3.1509,-3.0455,-3.0443,-3.0372,-3.0313,-3.1019,-3.1218,-3.1213,-3.1093,-3.0492,-2.9804,-3.0372,-3.0043,-2.9804,-3.0253,-2.9993,-2.9694,-3.0027,-2.9773,-2.9245,-2.9015,-2.9158,-2.9385,-2.9684,-2.9834,-2.9594,-2.1857,-2.1603,-2.1256,-2.1109,-2.1335,-2.4221,-2.5791,-2.6439,-2.8595,-2.8945,-2.791,-2.7734,-2.7246,-2.6523,-2.6426,-2.6152,-2.5742,-2.5723,-2.5488,-2.5059,-2.4707,-2.5399,-2.7008,-2.6797,-2.7719,-2.9702,-2.9779,-2.9779,-2.9779,-2.9779,-2.9779,-2.9779,-2.9779,-2.9779,-2.9779,0.0,0.0,0.0,-2.9779,-2.9729,-2.9603,-2.8725,-2.7745,-2.671,-2.5536,0.0,-2.2096,-2.1744,-2.1217,-2.0338,-2.0263,0.0,0.0,0.0,0.0,0.0,0.0,0.0,0.0,0.0,0.0,0.0,-2.2221,-2.2433,-2.3001,-2.3168,-2.3678,-2.4589,-2.5625,-2.661,-2.7535,-2.9418,-3.0731,-3.13,-3.1928,-3.2587,-3.3215,-3.3547,-3.3607,-3.3606,-3.3637,-3.3607,-3.3546,-3.3514,-3.3455,-3.3365,-3.2885,-3.2287,-3.1842,-3.0881,-2.9995,-2.9315,-2.9077,-2.8881,-2.8971,-2.9631,-3.0013,-2.9894,-2.9804,-2.9594,-2.9684,-2.9654,-2.9564,-2.9714,-2.9212,-2.8973,-2.9559,-2.8801,-2.815,-2.8554,-2.7889,-2.7649,-2.9235,-2.9564,-2.9594,-2.1897,0.0,-2.1296,-2.1109,0.0,-2.4159,-2.5419,-2.5791,-2.8201,-2.8769,-2.7988,-2.7988,-2.75,-2.6699,-2.6699,-2.6348,-2.5723,-2.5508,-2.5156,-2.4727,-2.4297,-2.4743,-2.5977,-2.6346,-2.7383,-2.8949,-2.9546,-2.9779,-2.9779,-2.9779,-2.9779,-2.9779,-2.9779,-2.9779,-2.9779,-2.9779,-2.9779,-2.9779,-2.9503,-2.9252,-2.895,-2.8147,-2.7168,-2.6063,0.0,0.0,0.0,0.0,0.0,0.0,0.0,0.0,0.0,0.0,0.0,-2.1117,-2.1594,-2.1895,-2.192,-2.2422,-2.2623,-2.2347,-2.2898,-2.3327,-2.3408,-2.3306,-2.3822,-2.5273,-2.5993,-2.6863,-2.7939,-2.9228,-3.0313,-3.0941,-3.133,-3.1659,-3.1988,-3.2616,-3.2826,-3.2554,-3.2465,-3.2377,-3.193,-3.1988,-3.2018,-3.2018,-3.1749,-3.142,-3.1063,-3.06,-2.9988,-2.9317,-2.903,-2.8931,-2.8958,-2.8912,-2.9086,-2.9086,-2.8816,-2.8607,-2.8577,-2.8577,-2.8577,-2.8577,-2.8308,-2.8218,-2.8427,-2.806,-2.756,-2.7449,-2.7021,-2.6841,-2.7919,-2.8098,-2.8098,-2.1924,-2.179,-2.1309,-2.1109,-2.1321,-2.3733,-2.5038,-2.5578,0.0,0.0,0.0,-2.8105,-2.7637,-2.6894,-2.6816,-2.6406,-2.5723,-2.5273,-2.4824,-2.4394,-2.3984,-2.4155,-2.4808,-2.5797,-2.6871,-2.8084,-2.9028,-2.9624,-2.9779,-2.9779,-2.9779,-2.9779,-2.9779,-2.9779,-2.9779,-2.9779,-2.9779,-2.9754,-2.9327,-2.8825,-2.8247,-2.772,-2.6892,-2.5787,-2.4782,-2.3929,-2.309,-2.2272,-2.2121,-2.2739,-2.2849,-2.2849,-2.2849,-2.279,-2.2447,-2.1594,-2.1568,-2.1644,-2.1644,-2.2146,-2.2472,-2.2472,-2.3463,-2.3922,-2.3398,-2.3321,-2.4105,-2.5932,-2.6302,-2.6919,-2.8261,-2.9152,-2.9774,-3.0283,-3.0342,-3.0342,-3.0432,-3.139,-3.1837,-3.1343,-3.1384,-3.1183,-3.047,-3.0503,-3.0503,-3.0615,-3.0562,-3.0261,-3.0167,-3.0078,-2.9784,-2.9217,-2.8979,-2.9146,-2.9146,-2.8786,-2.8457,-2.8397,-2.7949,-2.764,-2.756,-2.756,-2.756,-2.7679,-2.755,-2.741,-2.741,-2.726,-2.7021,-2.6296,-2.6195,-2.6243,-2.6243,-2.6243,-2.6422,-2.1697,-2.1229,-2.1136,-2.1109,-2.1182,-2.2447,-2.4053,-2.6095,-2.8005,-2.8476,-2.7734,-2.7363,-2.6934,-2.6445,-2.6094,-2.5859,-2.5703,-2.5273,-2.4824,0.0,-2.3984,-2.4155,-2.4787,-2.4957,-2.6108,-2.8004,-2.8267,-2.8846,-2.9702,-2.9779,-2.9779,-2.9779,-2.9779,-2.9779,-2.9779,-2.9779,-2.9779,-2.9779,-2.9729,-2.9402,-2.8825,-2.8273,-2.7469,-2.6389,-2.5711,-2.4657,-2.3201,-2.294,-2.2523,-2.1769,-2.1719,-2.1719,-2.1719,-2.1769,-2.1644,-2.1518,-2.192,-2.2196,-2.2221,-2.2698,-2.2965,-2.2965,-2.3135,-2.322,-2.3204,-2.3787,-2.4279,-2.465,-2.5709,-2.675,-2.7614,-2.8823,-2.9594,-2.9684,-2.9714,-2.9714,-2.9714,-3.0342,-3.0582,-2.9978,-3.0851,-3.1153,-3.041,-3.0279,-3.0426,-3.0923,-3.0129,-2.9316,-2.9015,-2.8876,-2.8577,-2.8038,-2.791,-2.791,-2.803,-2.7829,-2.782,-2.776,-2.7649,-2.756,-2.756,-2.756,-2.756,-2.758,-2.7111,-2.6811,-2.6722,-2.6243,-2.5974,-2.5657,-2.5329,-2.5,-2.5046,-2.5076,-2.5525,-2.1737,-2.1349,-2.1176,-2.1109,-2.1182,-2.2977,-2.5188,-2.7616,-2.825,-2.8242,-2.7676,-2.7461,-2.7012,-2.6387,-2.6191,-2.5957,-2.5703,-2.5019,-2.4609,-2.4375,-2.373,-2.3584,-2.3907,-2.4553,-2.5608,-2.7197,-2.7844,-2.8688,-2.9702,-2.9779,-2.9779,-2.9779,-2.9779,-2.9779,-2.9779,-2.9779,-2.9779,-2.9779,-2.9478,-2.9202,-2.885,-2.8097,-2.7268,-2.6533,-2.5887,-2.5134,-2.4104,-2.4054,-2.3803,-2.3326,-2.3,-2.2849,-2.2849,-2.2548,-2.2372,-2.2397,-2.2623,-2.2774,-2.2749,-2.2915,-2.3125,-2.315,-2.3427,-2.3477,-2.315,-2.3424,-2.3839,-2.4305,-2.5265,-2.6302,-2.7417,-2.8473,-2.9026,-2.9056,-2.9355,-2.9265,-2.8757,-2.9415,-2.9714,-2.9152,-2.9208,-2.9222,-2.8899,-2.9087,-2.9175,-2.9342,-2.8934,-2.871,-2.8136,-2.8038,-2.7949,-2.77,-2.756,-2.756,-2.756,-2.756,-2.756,-2.756,-2.756,-2.756,-2.756,-2.756,-2.746,-2.7111,-2.6752,-2.6452,-2.6153,-2.5854,-2.5525,-2.5106,-2.4851,-2.4582,-2.4612,-2.4896,-2.5495,-2.1777,-2.143,-2.1203,-2.1029,-2.1118,-2.3619,-2.5926,-2.7729,-2.8095,-2.8008,-2.7559,-2.7519,-2.709,-2.6426,-2.6289,-2.5996,-2.5527,-2.4785,-2.4375,-2.4199,-2.3477,-2.3144,-2.3232,-2.4039,-2.5126,-2.6483,-2.736,-2.845,-2.9624,-2.9779,-2.9779,-2.9779,-2.9779,-2.9779,-2.9779,-2.9779,-2.9779,-2.9754,-2.9352,-2.9076,-2.89,-2.8097,-2.7344,-2.6666,-2.6214,-2.5661,-2.5059,-2.5008,-2.4958,-2.4808,-2.4406,-2.413,-2.4004,-2.3577,-2.3215,-2.3115,-2.3251,-2.3326,-2.3326,-2.314,-2.3125,-2.3065,-2.3552,-2.3602,-2.3165,-2.319,-2.3492,-2.4041,-2.4986,-2.6106,-2.714,-2.8248,-2.8816,-2.8846,-2.9116,-2.8966,-2.8128,-2.8757,-2.9092,-2.8449,-2.7969,-2.7674,-2.742,-2.7739,-2.7968,-2.7761,-2.8154,-2.8308,-2.7739,-2.756,-2.756,-2.756,-2.756,-2.756,-2.756,-2.756,-2.756,-2.756,-2.756,-2.756,-2.753,-2.752,-2.725,-2.6692,-2.6303,-2.5914,-2.5495,-2.5196,-2.4926,-2.4477,-2.4328,-2.4358,-2.4313,-2.4657,-2.5255,-2.1657,-2.1189,-2.1122,-2.0802,-2.0713,-2.3417,-2.4646,-2.483,-2.706,-2.7832,-2.7129,-2.709,-2.6836,-2.6367,-2.5977,-2.5586,-2.5156,-2.4629,-2.4238,-2.3848,-2.3359,-2.3144,-2.3144,-2.3212,-2.4382,-2.6318,-2.6648,-2.781,-2.9702,-2.9779,-2.9779,-2.9779,-2.9779,-2.9779,-2.9779,-2.9779,-2.9779,-2.9779,-2.9754,-2.9453,-2.895,-2.8825,-2.8273,-2.7243,-2.7168,-2.6615,-2.5611,-2.5536,-2.531,-2.4883,-2.4782,-2.4531,-2.4079,-2.3954,-2.3678,-2.3226,-2.3627,-2.3929,-2.3879,-2.3427,-2.3175,-2.3125,-2.3215,-2.3276,-2.314,-2.3627,-2.3678,-2.3739,-2.5105,-2.6297,-2.6609,-2.8272,-2.9366,-2.9337,-2.9086,-2.8637,-2.8517,-2.8607,-2.839,-2.7777,-2.7871,-2.7767,-2.6608,-2.689,-2.7312,-2.7504,-2.8036,-2.8278,-2.776,-2.756,-2.756,-2.756,-2.756,-2.756,-2.756,-2.756,-2.756,-2.756,-2.756,-2.758,-2.746,-2.7051,-2.6602,-2.6213,-2.5615,-2.4986,-2.4717,-2.4268,-2.3879,-2.4029,-2.3909,-2.3729,-2.3699,-2.3849,-2.4298,-2.1483,-2.1109,-2.1109,-2.1479,-2.2175,-2.3952,-2.5074,-2.5722,-2.7233,-2.7578,-2.7031,-2.6758,-2.6406,-2.5996,-2.5801,-2.5625,-2.543,-2.5,-2.457,-2.4141,-2.3711,-2.3398,-2.3164,-2.3144,-2.4317,-2.6318,-2.6483,-2.7626,-2.9443,-2.9779,-2.9955,-3.0206,-2.998,-2.9779,-2.9779,-2.9779,-2.9779,-2.9779,-2.9779,-2.9679,-2.9428,-2.9101,-2.8725,-2.8273,-2.7946,-2.7419,-2.6691,-2.659,-2.6339,-2.5812,-2.546,-2.5184,-2.4958,-2.4356,-2.4054,-2.413,-2.4356,-2.433,-2.4004,-2.4079,-2.3979,-2.3678,-2.423,-2.4356,-2.3753,-2.4431,-2.4707,-2.4381,-2.5336,-2.6243,-2.6776,-2.8307,-2.9432,-2.94,-2.9292,-2.9026,-2.8637,-2.8125,-2.7598,-2.706,-2.6666,-2.6378,-2.5883,-2.6301,-2.7138,-2.7735,-2.8122,-2.7889,-2.759,-2.756,-2.756,-2.756,-2.756,-2.756,-2.756,-2.756,-2.756,-2.756,-2.756,-2.755,-2.7081,-2.6841,-2.6393,-2.5644,-2.5046,-2.4612,-2.4642,-2.4118,-2.367,-2.3849,-2.3759,-2.361,-2.361,-2.361,-2.4059,-2.1376,-2.1122,-2.1109,-2.1631,-2.2447,-2.4086,-2.5107,-2.5998,-2.7207,-2.7422,-2.6992,-2.6562,-2.6152,-2.5781,-2.5723,-2.5684,-2.5508,-2.5098,-2.4668,-2.4219,-2.3809,-2.3437,-2.3164,-2.3262,-2.442,-2.6257,-2.6617,-2.7836,-2.977,-3.003,-3.0231,-3.0507,-3.0206,-2.9955,-2.9804,-2.9779,-2.9779,-2.9779,-2.9779,-2.9779,-2.9729,-2.9377,-2.9101,-2.8925,-2.8549,-2.8072,-2.7544,-2.7519,-2.7268,-2.6716,-2.6289,-2.5912,-2.5586,-2.4858,-2.4607,-2.4958,-2.4883,-2.4732,-2.4456,-2.4682,-2.4582,-2.4155,-2.4883,-2.4983,-2.4406,-2.4983,-2.5385,-2.5174,-2.5627,-2.6335,-2.6913,-2.8502,-2.9518,-2.9608,-2.9628,-2.9355,-2.8936,-2.8135,-2.7432,-2.6755,-2.6189,-2.5325,-2.5269,-2.5907,-2.6915,-2.763,-2.7735,-2.756,-2.756,-2.756,-2.756,-2.756,-2.756,-2.756,-2.756,-2.756,-2.756,-2.756,-2.756,-2.741,-2.6871,-2.6782,-2.6363,-2.5644,-2.5016,-2.4433,-2.4238,-2.3849,-2.3699,-2.4029,-2.3969,-2.364,-2.361,-2.361,-2.3789,-2.1376,-2.1122,-2.1109,-2.0775,-2.0604,-2.3386,-2.4384,-2.43,-2.6523,-2.7402,-2.6992,-2.6543,-2.6133,-2.5742,-2.5723,-2.5508,-2.5117,-2.4746,-2.4336,-2.3926,-2.3477,-2.3184,-2.3164,-2.3555,-2.4728,-2.6346,-2.6847,-2.8244,-3.0503,-3.0583,-3.0583,-3.0633,-3.0583,-3.0281,-2.9905,-2.9804,-2.9779,-2.9779,-2.9779,-2.9779,-2.9779,-2.9754,-2.9478,-2.9026,-2.89,-2.8649,-2.8147,-2.8072,-2.7821,-2.7268,-2.7168,-2.6691,-2.5737,-2.5561,-2.5511,-2.546,-2.5109,-2.5059,-2.5335,-2.5109,-2.4682,-2.423,-2.4707,-2.4682,-2.4305,-2.5084,-2.5611,-2.5561,-2.6123,-2.656,-2.705,-2.865,-2.9883,-2.9947,-2.9778,-2.9516,-2.948,-2.8669,-2.8113,-2.7229,-2.6414,-2.5564,-2.4589,-2.5632,-2.6365,-2.6823,-2.7181,-2.756,-2.756,-2.756,-2.756,-2.756,-2.756,-2.756,-2.756,-2.756,-2.756,-2.756,-2.756,-2.755,-2.732,-2.7021,-2.6333,-2.5674,-2.5136,-2.4537,-2.3909,-2.367,-2.3729,-2.3849,-2.3909,-2.3729,-2.364,-2.361,-2.3819,-2.1203,-2.1096,-2.0909,-2.0601,-2.0456,-2.223,-2.3257,-2.39,-2.5254,-2.6305,-2.6812,-2.6289,-2.5879,-2.5723,-2.5723,-2.5644,-2.5488,-2.5332,-2.5039,-2.4629,-2.4434,-2.4219,-2.3965,-2.3867,-2.4492,-2.5722,-2.6771,-2.8724,-3.129,-3.1286,-3.1286,-3.1436,-3.0934,-3.0507,-3.0281,-2.9955,-2.9779,-2.9779,-2.9779,-2.9779,-2.9779,-2.9779,-2.9679,-2.9503,-2.9478,-2.9227,-2.8649,-2.8649,-2.8222,-2.7318,-2.7293,-2.6942,-2.6264,-2.6138,-2.5812,-2.5259,-2.5586,-2.5787,-2.5636,-2.5787,-2.5636,-2.5134,-2.5536,-2.5586,-2.5285,-2.5686,-2.6138,-2.6189,-2.6314,-2.6722,-2.7394,-2.819,-2.862,-2.8675,-2.8734,-2.8995,-2.8999,-2.8052,-2.6918,-2.661,-2.5823,-2.4838,-2.4647,-2.5189,-2.596,-2.639,-2.6707,-2.71,-2.7458,-2.756,-2.756,-2.756,-2.756,-2.756,-2.756,-2.756,-2.756,-2.756,-2.753,-2.726,-2.7081,-2.6961,-2.6393,-2.5764,-2.5272,-2.5106,-2.4657,-2.4448,-2.4358,-2.3819,-2.3849,-2.3939,-2.367,-2.3939,-2.4148,-2.0962,-2.0922,-2.0655,-2.0361,-2.0307,-2.195,-2.313,-2.3978,-2.5004,-2.605,-2.6754,-2.6113,-2.5723,-2.5723,-2.5723,-2.5723,-2.5703,-2.5586,-2.5352,-2.5059,-2.4922,-2.4707,-2.4414,-2.4121,-2.4596,-2.5643,-2.6845,-2.8905,-3.1283,-3.123,-3.1506,-3.2114,-3.1461,-3.0959,-3.0608,-3.0231,-3.0005,-2.9829,-2.9779,-2.9779,-2.9779,-2.9779,-2.9779,-2.9779,-2.9779,-2.9628,-2.9227,-2.9202,-2.88,-2.7946,-2.7645,-2.7218,-2.6565,-2.6533,-2.6138,-2.5561,-2.6038,-2.6314,-2.5988,-2.6239,-2.6257,-2.5686,-2.6088,-2.6214,-2.5711,-2.6138,-2.6483,-2.6533,-2.6533,-2.6782,-2.7162,-2.7364,-2.7604,-2.8255,-2.8335,-2.8509,-2.9086,-2.7816,-2.6817,-2.6253,-2.5222,-2.4385,-2.4047,-2.4624,-2.5273,-2.6068,-2.6283,-2.6788,-2.7408,-2.756,-2.756,-2.756,-2.756,-2.756,-2.756,-2.756,-2.756,-2.756,-2.756,-2.726,-2.7081,-2.6931,-2.6572,-2.5914,-2.5644,-2.5674,-2.5478,-2.5239,-2.4731,-2.4088,-2.4178,-2.4388,-2.4358,-2.4448,-2.4537,-2.0695,-2.0655,-2.0361,-2.008,-2.0196,-2.2528,-2.3909,-2.4072,-2.5761,-2.6481,-2.6793,-2.6113,-2.5723,-2.5723,-2.5723,-2.5723,-2.5664,-2.5371,-2.5195,-2.5098,-2.4746,-2.457,-2.4531,-2.4473,-2.5128,-2.6283,-2.7239,-2.871,-3.0659,-3.0831,-3.1284,-3.2072,-3.2164,-3.1612,-3.0683,-3.0608,-3.0306,-2.9955,-2.9829,-2.9779,-2.9779,-2.9779,-2.9779,-2.9779,-2.9779,-2.9779,-2.9729,-2.9754,-2.9428,-2.885,-2.8348,-2.757,-2.664,-2.6533,-2.6483,-2.6339,-2.6508,-2.6508,-2.6483,-2.6508,-2.6282,-2.5862,-2.6163,-2.6239,-2.5887,-2.6163,-2.6533,-2.6533,-2.6533,-2.6577,-2.6714,-2.6782,-2.7537,-2.9543,-2.868,-2.8316,-2.8845,-2.8456,-2.7448,-2.6081,-2.4853,-2.4008,-2.3543,-2.393,-2.4738,-2.5356,-2.6068,-2.6736,-2.7306,-2.7509,-2.756,-2.756,-2.756,-2.756,-2.756,-2.756,-2.756,-2.756,-2.756,-2.744,-2.741,-2.729,-2.6961,-2.6422,-2.6225,-2.6195,-2.5418,-2.5179,-2.497,-2.4522,-2.4701,-2.4926,-2.4986,-2.5016,-2.4731,-2.0668,-2.0615,-2.0134,-1.988,-1.9891,-2.0611,-2.1904,-2.3628,-2.4029,-2.5099,-2.6531,-2.6113,-2.5723,-2.5723,-2.5723,-2.5723,-2.5723,-2.5586,-2.5527,-2.5488,-2.5371,-2.5293,-2.5254,-2.5,-2.5941,-2.7651,-2.8277,-2.9764,-3.1785,-3.2167,-3.2536,-3.2742,-3.239,-3.2064,-3.1662,-3.1009,-3.0507,-3.0357,-2.998,-2.9779,-2.9779,-2.9779,-2.9779,-2.9779,-2.9779,-2.9779,-2.9779,-2.9779,-2.9503,-2.8976,-2.8398,-2.7595,-2.676,-2.6533,-2.6533,-2.6533,-2.6533,-2.6533,-2.6533,-2.6508,-2.6458,-2.6239,-2.6364,-2.6433,-2.6307,-2.6339,-2.6533,-2.6533,-2.6508,-2.685,-2.7868,-2.767,-2.771,-2.84,-2.7845,-2.7781,-2.8463,-2.7584,-2.5985,-2.4416,-2.3688,-2.339,-2.3305,-2.3754,-2.4337,-2.4738,-2.5687,-2.6549,-2.6811,-2.7203,-2.759,-2.756,-2.756,-2.7458,-2.7408,-2.7408,-2.7458,-2.7509,-2.756,-2.756,-2.756,-2.753,-2.72,-2.6882,-2.6713,-2.6325,-2.555,-2.5239,-2.509,-2.5193,-2.5478,-2.5568,-2.5644,-2.5465,-2.5226,-2.0454,-2.0307,-1.984,-1.9639,-1.973,-1.9993,-2.1185,-2.2767,-2.3211,-2.4366,-2.5692,-2.5838,-2.5723,-2.5723,-2.5723,-2.5723,-2.5723,-2.5723,-2.5723,-2.5723,-2.5723,-2.5723,-2.5703,-2.5469,-2.6215,-2.7774,-2.8247,-2.9736,-3.2239,-3.2438,-3.2612,-3.2907,-3.2717,-3.239,-3.2164,-3.1361,-3.0834,-3.0583,-3.008,-2.9779,-2.9779,-2.9779,-2.9779,-2.9779,-2.9779,-2.9779,-2.9779,-2.9779,-2.9628,-2.9176,-2.8524,-2.7595,-2.659,-2.6533,-2.6533,-2.6533,-2.6533,-2.6533,-2.6533,-2.6533,-2.6533,-2.6533,-2.6533,-2.6508,-2.6533,-2.6533,-2.6533,-2.6533,-2.6533,-2.6892,-2.771,-2.7668,-2.7354,-2.7419,-2.7166,-2.7112,-2.7327,-2.6406,-2.5174,-2.3851,-2.3301,-2.3175,-2.3245,-2.3424,-2.3989,-2.4337,-2.505,-2.5906,-2.6068,-2.6496,-2.6759,-2.6864,-2.6654,-2.6707,-2.71,-2.7203,-2.7306,-2.7458,-2.756,-2.756,-2.756,-2.756,-2.738,-2.6832,-2.6574,-2.616,-2.5479,-2.567,-2.5704,-2.5956,-2.6147,-2.6135,-2.6093,-2.5884,-2.5585,-2.0054,-1.9773,-1.9492,-1.9386,-1.9604,-2.0659,-2.1151,-2.1616,-2.3381,-2.4396,-2.4583,-2.5328,-2.5723,-2.5723,-2.5723,-2.5723,-2.5723,-2.5723,-2.5723,-2.5723,-2.5723,-2.5723,-2.5723,-2.5664,-2.631,-2.7374,-2.7721,-2.919,-3.1689,-3.1777,-3.1865,-3.2957,-3.3018,-3.2817,-3.229,-3.1712,-3.1135,-3.0708,-3.0105,-2.9779,-2.9779,-2.9779,-2.9779,-2.9779,-2.9779,-2.9779,-2.9779,-2.9779,-2.9754,-2.9553,-2.8624,-2.7695,-2.681,-2.6533,-2.6565,-2.6559,-2.6533,-2.6533,-2.6533,-2.6533,-2.6533,-2.6533,-2.6533,-2.6533,-2.6533,-2.6533,-2.6533,-2.6533,-2.6533,-2.6552,-2.6739,-2.6804,-2.6854,-2.676,-2.6728,-2.6369,-2.5218,-2.4988,-2.4469,-2.3979,-2.3502,-2.3125,-2.3125,-2.3245,-2.3662,-2.3989,-2.4452,-2.5245,-2.5412,-2.5797,-2.5632,-2.5851,-2.6283,-2.6549,-2.71,-2.7255,-2.7357,-2.7458,-2.756,-2.756,-2.756,-2.756,-2.753,-2.6981,-2.6555,-2.6081,-2.5963,-2.6266,-2.6422,-2.6602,-2.6692,-2.6662,-2.6561,-2.6429,-2.6029,-1.9867,-1.9773,-1.9492,-1.9372,-1.9448,-1.959,-2.0202,-2.1113,-2.2282,-2.3444,-2.4289,-2.529,-2.5723,-2.5723,-2.5723,-2.5723,-2.5723,-2.5723,-2.5723,-2.5723,-2.5723,-2.5723,-2.5723,-2.5723,-2.6778,-2.8413,-2.8778,-3.0237,-3.2413,-3.2525,-3.2723,-3.3068,-3.3068,-3.3018,-3.2742,-3.1863,-3.1361,-3.106,-3.0231,-2.9779,-2.9779,-2.9779,-2.9779,-2.9779,-2.9779,-2.9779,-2.9779,-2.9779,-2.9352,-2.8649,-2.8725,-2.7996,-2.6716,-2.6816,-2.6866,-2.6584,-2.6533,-2.6533,-2.6533,-2.6533,-2.6533,-2.6533,-2.6533,-2.6533,-2.6533,-2.6533,-2.6533,-2.6533,-2.6533,-2.6536,-2.6686,-2.6778,-2.6522,-2.5845,-2.6083,-2.6109,-2.5633,-2.4839,-2.413,-2.3954,-2.3502,-2.3251,-2.3185,-2.3595,-2.3747,-2.378,-2.4567,-2.5467,-2.5217,-2.5494,-2.5494,-2.639,-2.6864,-2.6916,-2.71,-2.7306,-2.7408,-2.7509,-2.756,-2.756,-2.756,-2.756,-2.756,-2.733,-2.7181,-2.6763,-2.6932,-2.72,-2.726,-2.7141,-2.6841,-2.6711,-2.7067,-2.7073,-2.6596,-1.984,-1.9599,-1.9439,-1.9372,-1.9332,-1.9052,-1.9289,-2.0163,-2.1534,-2.2415,-2.3485,-2.5036,-2.5723,-2.5723,-2.5723,-2.5723,-2.5723,-2.5723,-2.5723,-2.5723,-2.5723,-2.5723,-2.5723,-2.5723,-2.6744,-2.8495,-2.9143,-3.0418,-3.2064,-3.2785,-3.3068,-3.3093,-3.3093,-3.3093,-3.2968,-3.1989,-3.1386,-3.1185,-3.0357,-2.9779,-2.9779,-2.9779,-2.9779,-2.9779,-2.9779,-2.9779,-2.9779,-2.9779,-2.9352,-2.8725,-2.8699,-2.8273,-2.7017,-2.7092,-2.7042,-2.6584,-2.6533,-2.6533,-2.6533,-2.6533,-2.6533,-2.6533,-2.6533,-2.6533,-2.6533,-2.6533,-2.6533,-2.6533,-2.6264,-2.6333,-2.6631,-2.6531,-2.6149,-2.5795,-2.559,-2.5537,-2.5349,-2.4705,-2.4268,-2.4004,-2.3728,-2.3376,-2.314,-2.3748,-2.3662,-2.3501,-2.3989,-2.4368,-2.4425,-2.4993,-2.5439,-2.604,-2.6361,-2.6254,-2.6549,-2.6864,-2.7357,-2.7509,-2.756,-2.756,-2.756,-2.756,-2.756,-2.756,-2.756,-2.756,-2.756,-2.756,-2.75,-2.726,-2.6901,-2.6651,-2.6904,-2.713,-2.6702,-1.984,-1.9372,-1.9372,-1.9372,-1.9319,-1.9052,-1.8771,-1.9016,-2.1121,-2.2006,-2.2451,-2.4609,-2.5625,-2.5723,-2.5723,-2.5723,-2.5723,-2.5723,-2.5723,-2.5723,-2.5723,-2.5723,-2.5723,-2.5723,-2.6648,-2.7955,-2.8958,-2.9943,-3.1223,-3.2413,-3.2785,-3.276,-3.2821,-3.2968,-3.2667,-3.1813,-3.1361,-3.1085,-3.0306,-2.9804,-2.9779,-2.9779,-2.9779,-2.9779,-2.9779,-2.9779,-2.9779,-2.9754,-2.9528,-2.9051,-2.9026,-2.8473,-2.757,-2.7394,-2.7168,-2.6741,-2.6684,-2.6659,-2.6533,-2.6533,-2.6533,-2.6533,-2.6533,-2.6533,-2.6533,-2.6533,-2.6533,-2.6533,-2.5988,-2.608,-2.6173,-2.5879,-2.5666,-2.5659,-2.5277,-2.4734,-2.4381,-2.4556,-2.4657,-2.423,-2.413,-2.3728,-2.3552,-2.3527,-2.3703,-2.3296,-2.3754,-2.4105,-2.4221,-2.4597,-2.4768,-2.4797,-2.5106,-2.5217,-2.5769,-2.639,-2.7049,-2.7458,-2.756,-2.756,-2.756,-2.756,-2.756,-2.756,-2.756,-2.756,-2.756,-2.756,-2.756,-2.738,-2.6991,-2.6501,-2.6193,-2.6474,-2.6336,-1.9479,-1.9372,-1.9372,-1.9372,-1.9319,-1.9052,-1.8758,-1.8685,-2.1015,-2.187,-2.2316,-2.451,-2.5625,-2.5723,-2.5723,-2.5723,-2.5723,-2.5723,-2.5723,-2.5723,-2.5723,-2.5723,-2.5723,-2.5723,-2.6935,-2.8215,-2.8143,-2.9143,-3.0777,-3.1488,-3.1665,-3.1816,-3.235,-3.2416,-3.2315,-3.1512,-3.0783,-3.0683,-3.0131,-2.9854,-2.9829,-2.9804,-2.9779,-2.9779,-2.9779,-2.9779,-2.9779,-2.9779,-2.9729,-2.9628,-2.9528,-2.9026,-2.8222,-2.8273,-2.7996,-2.7268,-2.7042,-2.6892,-2.6634,-2.6533,-2.6533,-2.6533,-2.6533,-2.6533,-2.6533,-2.6533,-2.6533,-2.6508,-2.6339,-2.6063,-2.5787,-2.531,-2.5242,-2.5256,-2.5408,-2.5385,-2.5234,-2.4983,-2.4958,-2.4983,-2.4506,-2.3954,-2.3828,-2.3466,-2.3452,-2.3236,-2.3484,-2.3956,-2.4105,-2.4221,-2.4253,-2.4253,-2.505,-2.5384,-2.5877,-2.6549,-2.71,-2.7458,-2.756,-2.756,-2.756,-2.756,-2.756,-2.756,-2.756,-2.756,-2.756,-2.756,-2.756,-2.732,-2.71,-2.6645,-2.6336,-2.6329,-2.6461,-1.9492,-1.9372,-1.9372,-1.9372,-1.9292,-1.8918,-1.8624,-1.8851,-2.0212,-2.1226,-2.208,-2.3881,-2.5118,-2.5645,-2.5723,-2.5723,-2.5723,-2.5723,-2.5723,-2.5723,-2.5723,-2.5723,-2.5917,-2.6284,-2.722,-2.784,-2.8402,-2.9304,-3.0305,-3.14,-3.2239,-3.204,-3.2461,-3.2717,-3.2466,-3.1512,-3.1235,-3.1135,-3.0306,-2.9905,-3.0131,-2.9905,-2.9779,-2.9779,-2.9779,-2.9779,-2.9779,-2.9779,-2.9779,-2.9779,-2.9754,-2.9428,-2.8699,-2.8725,-2.8348,-2.7519,-2.7293,-2.7017,-2.6684,-2.6533,-2.6533,-2.6533,-2.6533,-2.6533,-2.6533,-2.6533,-2.6533,-2.6389,-2.6189,-2.5812,-2.5335,-2.5661,-2.546,-2.531,-2.5661,-2.5988,-2.5912,-2.5536,-2.5259,-2.546,-2.5109,-2.4707,-2.4356,-2.3791,-2.3678,-2.3664,-2.315,-2.3543,-2.3484,-2.3636,-2.393,-2.4195,-2.5217,-2.5877,-2.6254,-2.6811,-2.7357,-2.756,-2.756,-2.756,-2.756,-2.756,-2.756,-2.756,-2.756,-2.756,-2.756,-2.756,-2.753,-2.735,-2.709,-2.6836,-2.6412,-2.5908,-2.6449,-1.9586,-1.9372,-1.9372,-1.9345,-1.9225,-1.8784,-1.8517,-1.855,-1.955,-2.0838,-2.1845,-2.3285,-2.4865,-2.5431,-2.5605,-2.5625,-2.5644,-2.5723,-2.5723,-2.5723,-2.5723,-2.5723,-2.5917,-2.6476,-2.6668,-2.6014,-2.7767,-2.905,-2.9943,-3.1311,-3.1977,-3.2587,-3.2832,-3.2767,-3.2616,-3.1888,-3.1361,-3.1587,-3.0482,-3.0055,-3.0357,-3.008,-2.9804,-2.9779,-2.9779,-2.9779,-2.9779,-2.9779,-2.9779,-2.9779,-2.9779,-2.9528,-2.9227,-2.9001,-2.8574,-2.7544,-2.7469,-2.7143,-2.6684,-2.6533,-2.6533,-2.6533,-2.6533,-2.6533,-2.6533,-2.6533,-2.6533,-2.6339,-2.6113,-2.5737,-2.5209,-2.5762,-2.6063,-2.5937,-2.6189,-2.6483,-2.6364,-2.5963,-2.5661,-2.5711,-2.536,-2.4908,-2.4657,-2.428,-2.4155,-2.3954,-2.3477,-2.315,-2.315,-2.3458,-2.3989,-2.4654,-2.5769,-2.6443,-2.6864,-2.6967,-2.7509,-2.756,-2.756,-2.756,-2.756,-2.756,-2.756,-2.756,-2.756,-2.756,-2.756,-2.756,-2.755,-2.74,-2.7048,-2.6714,-2.6106,-2.5423,-2.6334,-1.9412,-1.9372,-1.9372,-1.9225,-1.8998,-1.8878,-1.8544,-1.8577,-2.0393,-2.1615,-2.1979,-2.4196,-2.5024,-2.5312,-2.5176,-2.5176,-2.5312,-2.5547,-2.5723,-2.5723,-2.5723,-2.5723,-2.582,-2.6187,-2.611,-2.611,-2.7315,-2.8495,-2.9143,-2.9875,-3.0956,-3.1504,-3.2129,-3.2297,-3.2215,-3.1386,-3.1235,-3.1612,-3.0583,-3.0206,-3.0457,-3.0131,-2.9779,-2.9779,-2.9779,-2.9779,-2.9779,-2.9779,-2.9779,-2.9779,-2.9779,-2.9729,-2.9603,-2.9578,-2.8976,-2.8197,-2.7871,-2.7469,-2.671,-2.6533,-2.6533,-2.6533,-2.6533,-2.6533,-2.6533,-2.6533,-2.6533,-2.6508,-2.6364,-2.6214,-2.6282,-2.6408,-2.6458,-2.6408,-2.6408,-2.6533,-2.6433,-2.6063,-2.5862,-2.6088,-2.5561,-2.4983,-2.4732,-2.4481,-2.418,-2.3954,-2.3627,-2.3472,-2.3542,-2.4093,-2.4824,-2.5605,-2.6496,-2.7019,-2.7458,-2.7408,-2.756,-2.756,-2.756,-2.756,-2.756,-2.756,-2.756,-2.756,-2.756,-2.756,-2.756,-2.756,-2.741,-2.723,-2.6868,-2.6485,-2.6218,-2.5891,-2.6134,-1.9145,-1.9118,-1.8985,-1.8838,-1.8691,-1.8531,-1.8317,-1.8158,-1.9324,-2.0488,-2.1794,-2.3067,-2.4398,-2.5083,-2.5137,-2.5078,-2.5176,-2.5527,-2.5723,-2.5723,-2.5723,-2.5723,-2.582,-2.6284,-2.6207,-2.6284,-2.6935,-2.7861,-2.8495,-2.9143,-2.9966,-3.0998,-3.1574,-3.2019,-3.2406,-3.1964,-3.1788,-3.1838,-3.0984,-3.0457,-3.0834,-3.0231,-2.9829,-2.9779,-2.9779,-2.9779,-2.9779,-2.9779,-2.9779,-2.9779,-2.9779,-2.9779,-2.9704,-2.9428,-2.9001,-2.8298,-2.8072,-2.762,-2.676,-2.6533,-2.6533,-2.6533,-2.6533,-2.6533,-2.6533,-2.6533,-2.6533,-2.6533,-2.6533,-2.6533,-2.6483,-2.6533,-2.6533,-2.6533,-2.6533,-2.6533,-2.6389,-2.6163,-2.6214,-2.6239,-2.546,-2.4933,-2.4833,-2.4531,-2.4155,-2.3904,-2.3678,-2.3735,-2.379,-2.4495,-2.5161,-2.5932,-2.6654,-2.71,-2.7509,-2.756,-2.756,-2.756,-2.756,-2.756,-2.756,-2.756,-2.756,-2.756,-2.756,-2.756,-2.756,-2.753,-2.735,-2.71,-2.6728,-2.6427,-2.6472,-2.6509,-2.6582,-1.8918,-1.8891,-1.8611,-1.8464,-1.837,-1.8156,-1.8009,-1.7916,-1.8112,-1.9332,-2.1135,-2.2047,-2.343,-2.4714,-2.5158,-2.5078,-2.5117,-2.5527,-2.5723,-2.5723,-2.5723,-2.5723,-2.6014,-2.6476,-2.6572,-2.5917,-2.6476,-2.741,-2.7861,-2.8495,-2.9601,-3.0485,-3.0932,-3.1601,-3.2241,-3.2172,-3.2557,-3.2265,-3.1486,-3.0884,-3.0758,-3.0281,-2.9779,-2.9779,-2.9779,-2.9779,-2.9779,-2.9779,-2.9779,-2.9779,-2.9779,-2.9779,-2.9704,-2.9252,-2.8674,-2.8197,-2.8021,-2.7394,-2.6766,-2.6533,-2.6533,-2.6533,-2.6533,-2.6533,-2.6533,-2.6533,-2.6533,-2.6533,-2.6533,-2.6533,-2.6533,-2.6533,-2.6533,-2.6533,-2.6533,-2.644,-2.6389,-2.6239,-2.6063,-2.5787,-2.5159,-2.4883,-2.4782,-2.4155,-2.3666,-2.3616,-2.3416,-2.3513,-2.3773,-2.4469,-2.5189,-2.5986,-2.6654,-2.7071,-2.7408,-2.756,-2.756,-2.756,-2.756,-2.756,-2.756,-2.756,-2.756,-2.756,-2.756,-2.756,-2.756,-2.738,-2.7111,-2.6808,-2.6489,-2.6368,-2.6344,-2.6361,-2.6396,-1.8918,-1.8905,-1.8597,-1.8343,-1.8116,-1.805,-1.7876,-1.7754,-1.8826,-1.942,-2.0287,-2.2214,-2.3332,-2.3777,-2.4756,-2.5078,-2.5176,-2.5508,-2.5723,-2.5723,-2.5723,-2.5723,-2.5723,-2.5839,-2.6014,-2.5723,-2.5917,-2.6572,-2.722,-2.7673,-2.8495,-2.9579,-3.0598,-3.14,-3.1904,-3.2226,-3.2265,-3.2114,-3.121,-3.0353,-2.9924,-2.9802,-2.9804,-2.9702,-2.9779,-2.9779,-2.9779,-2.9779,-2.9779,-2.9779,-2.9779,-2.9779,-2.9704,-2.9252,-2.8674,-2.8147,-2.7645,-2.7118,-2.6659,-2.6533,-2.6533,-2.6533,-2.6533,-2.6533,-2.6533,-2.6533,-2.6533,-2.6533,-2.6533,-2.6533,-2.6533,-2.6533,-2.6533,-2.6533,-2.6533,-2.6533,-2.6414,-2.6289,-2.6113,-2.5686,-2.5184,-2.4908,-2.4643,-2.3891,-2.3215,-2.324,-2.3301,-2.3508,-2.3994,-2.4932,-2.5605,-2.6467,-2.6864,-2.7255,-2.7408,-2.756,-2.756,-2.756,-2.756,-2.756,-2.756,-2.756,-2.756,-2.756,-2.756,-2.735,-2.7081,-2.6901,-2.6752,-2.6494,-2.6153,-2.6119,-2.6227,-2.6243,-2.6236,-1.8531,-1.8637,-1.817,-1.7903,-1.7796,-1.7782,-1.7716,-1.7884,-1.8729,-1.975,-2.0596,-2.2114,-2.3085,-2.3598,-2.483,-2.5137,-2.4961,-2.543,-2.5723,-2.5723,-2.5723,-2.5723,-2.5723,-2.5742,-2.5723,-2.5703,-2.5723,-2.5936,-2.6476,-2.6744,-2.7389,-2.9212,-3.0056,-3.1045,-3.1865,-3.2475,-3.2431,-3.2039,-3.1104,-2.9671,-2.8778,-2.9028,-2.9521,-2.8949,-2.9443,-2.9702,-2.9779,-2.9779,-2.9779,-2.9779,-2.9779,-2.9603,-2.9277,-2.8775,-2.8197,-2.767,-2.7118,-2.6785,-2.6559,-2.6533,-2.6533,-2.6533,-2.6533,-2.6533,-2.6533,-2.6533,-2.6533,-2.6533,-2.6533,-2.6533,-2.6533,-2.6533,-2.6533,-2.6533,-2.6533,-2.6533,-2.6414,-2.6289,-2.6088,-2.5636,-2.5209,-2.4753,-2.4429,-2.3917,-2.3502,-2.3563,-2.3952,-2.4491,-2.5175,-2.6212,-2.6741,-2.7225,-2.7408,-2.7509,-2.7509,-2.756,-2.756,-2.756,-2.756,-2.756,-2.756,-2.756,-2.753,-2.753,-2.756,-2.723,-2.6692,-2.6752,-2.6931,-2.6404,-2.5773,-2.5932,-2.6091,-2.614,-2.6264,-1.8103,-1.833,-1.7809,-1.7582,-1.7582,-1.7582,-1.7542,-1.7539,-1.8161,-1.9004,-2.0146,-2.1298,-2.2647,-2.3944,-2.498,-2.5176,-2.4687,-2.5391,-2.5664,-2.5723,-2.5723,-2.5723,-2.5723,-2.5723,-2.5664,-2.5586,-2.5684,-2.5722,-2.5586,-2.5935,-2.6935,-2.8844,-2.9326,-3.0508,-3.1977,-3.2426,-3.2068,-3.1255,-3.0294,-2.91,-2.8179,-2.9052,-2.9209,-2.9106,-2.9287,-2.9779,-2.9779,-2.9779,-2.9779,-2.9779,-2.9578,-2.9327,-2.8976,-2.8323,-2.7795,-2.7318,-2.6841,-2.6609,-2.6533,-2.6533,-2.6533,-2.6533,-2.6533,-2.6533,-2.6533,-2.6533,-2.6533,-2.6533,-2.6533,-2.6533,-2.6533,-2.6533,-2.6533,-2.6533,-2.6533,-2.6533,-2.644,-2.6314,-2.6214,-2.5937,-2.5303,-2.432,-2.4038,-2.3879,-2.3753,-2.3851,-2.446,-2.5293,-2.6106,-2.6939,-2.7218,-2.7509,-2.756,-2.756,-2.756,-2.756,-2.756,-2.756,-2.756,-2.756,-2.756,-2.75,-2.744,-2.747,-2.744,-2.6662,-2.5836,-2.6542,-2.713,-2.63,-2.5681,-2.5815,-2.5945,-2.6031,-2.6352,-1.7796,-1.805,-1.7716,-1.7582,-1.7569,-1.7582,-1.7422,-1.7284,-1.7333,-1.7535,-1.8247,-1.9684,-2.2308,-2.3951,-2.4727,-2.5039,-2.498,-2.5508,-2.5605,-2.5664,-2.5723,-2.5703,-2.5684,-2.5644,-2.5527,-2.5332,-2.5391,-2.5332,-2.5273,-2.543,-2.6431,-2.7673,-2.8615,-3.0011,-3.0814,-3.1065,-3.0462,-2.9677,-2.875,-2.8778,-2.8633,-2.9287,-2.9468,-2.9546,-2.9624,-2.9779,-2.9779,-2.9779,-2.9779,-2.9779,-2.9377,-2.9026,-2.8674,-2.7946,-2.7419,-2.7092,-2.6741,-2.6559,-2.6533,-2.6533,-2.6533,-2.6533,-2.6533,-2.6533,-2.6533,-2.6533,-2.6533,-2.6533,-2.6533,-2.6533,-2.6533,-2.6533,-2.6533,-2.6533,-2.6533,-2.6533,-2.6483,-2.6314,-2.6214,-2.6138,-2.5428,-2.431,-2.3663,-2.348,-2.3466,-2.3538,-2.4478,-2.5347,-2.6242,-2.698,-2.7211,-2.7408,-2.756,-2.756,-2.756,-2.756,-2.756,-2.756,-2.756,-2.756,-2.756,-2.747,-2.744,-2.7171,-2.7021,-2.6063,-2.5388,-2.6105,-2.6471,-2.5908,-2.5665,-2.6037,-2.6314,-2.6479,-2.6743,-1.7649,-1.7742,-1.7622,-1.7475,-1.7315,-1.7315,-1.7154,-1.7076,-1.747,-1.8535,-1.9458,-2.0967,-2.2189,-2.3505,-2.4336,-2.4512,-2.4375,-2.4727,-2.5039,-2.5273,-2.5332,-2.5488,-2.5527,-2.5488,-2.5352,-2.5312,-2.5176,-2.5078,-2.5117,-2.5059,-2.5724,-2.6731,-2.78,-2.8763,-2.9353,-2.927,-2.8327,-2.7685,-2.7114,-2.7221,-2.6871,-2.8187,-2.8767,-2.8767,-2.9624,-2.9702,-2.9779,-2.9779,-2.9779,-2.9628,-2.9202,-2.8825,-2.8423,-2.7645,-2.7168,-2.6866,-2.6634,-2.6559,-2.6533,-2.6533,-2.6533,-2.6533,-2.6533,-2.6533,-2.6533,-2.6533,-2.6533,-2.6533,-2.6533,-2.6533,-2.6533,-2.6533,-2.6533,-2.6533,-2.6533,-2.6533,-2.6433,-2.6239,-2.5895,-2.5585,-2.4863,-2.3927,-2.3468,-2.3145,-2.3155,-2.321,-2.4337,-2.5384,-2.639,-2.7049,-2.7255,-2.7408,-2.7509,-2.756,-2.756,-2.756,-2.756,-2.756,-2.756,-2.75,-2.747,-2.756,-2.744,-2.7111,-2.6632,-2.5819,-2.555,-2.5878,-2.5824,-2.5348,-2.5785,-2.6491,-2.6757,-2.6872,-2.7138,-1.7448,-1.7448,-1.7448,-1.7395,-1.7261,-1.7284,-1.6981,-1.6887,-1.7274,-1.8801,-2.0782,-2.1154,-2.197,-2.3044,-2.3848,-2.4102,-2.4023,-2.4277,-2.459,-2.4785,-2.4922,-2.5078,-2.5137,-2.5078,-2.4902,-2.5039,-2.4824,-2.459,-2.459,-2.4473,-2.4953,-2.5666,-2.6392,-2.7189,-2.821,-2.7347,-2.6518,-2.6301,-2.6165,-2.673,-2.6543,-2.7867,-2.8767,-2.8846,-2.9546,-2.9702,-2.9779,-2.9779,-2.9779,-2.9528,-2.9101,-2.8549,-2.8021,-2.7469,-2.6892,-2.6659,-2.6533,-2.6533,-2.6533,-2.6533,-2.6533,-2.6533,-2.6533,-2.6533,-2.6533,-2.6533,-2.6533,-2.6533,-2.6533,-2.6533,-2.6533,-2.6533,-2.6533,-2.6533,-2.6533,-2.6508,-2.6332,-2.6113,-2.551,-2.5054,-2.435,-2.3829,-2.3591,-2.3437,-2.3916,-2.3989,-2.4597,-2.5769,-2.6916,-2.7357,-2.7458,-2.7509,-2.756,-2.756,-2.756,-2.756,-2.756,-2.756,-2.753,-2.735,-2.732,-2.735,-2.6901,-2.6123,-2.5657,-2.5456,-2.5235,-2.503,-2.4924,-2.4865,-2.5636,-2.6621,-2.6978,-2.7131,-2.7367,-1.7154,-1.7257,-1.7154,-1.7301,-1.7435,-1.7248,-1.6941,-1.6593,-1.6535,-1.7669,-1.9604,-1.9837,-2.1087,-2.2782,-2.3652,-2.373,-2.3789,-2.4082,-2.4355,-2.4394,-2.4434,-2.4473,-2.4512,-2.4492,-2.4414,-2.4043,-2.4043,-2.4062,-2.3945,-2.4082,-2.4401,-2.4441,-2.4866,-2.5694,-2.7633,-2.6411,-2.6174,-2.6771,-2.6412,-2.7267,-2.8371,-2.8949,-2.9184,-2.9521,-2.9624,-2.9779,-2.9779,-2.9654,-2.9603,-2.9478,-2.8624,-2.8122,-2.7921,-2.7067,-2.659,-2.6533,-2.6533,-2.6533,-2.6533,-2.6533,-2.6533,-2.6533,-2.6533,-2.6533,-2.6533,-2.6533,-2.6533,-2.6533,-2.6533,-2.6533,-2.6533,-2.6533,-2.6533,-2.6533,-2.6533,-2.6483,-2.6264,-2.5762,-2.5162,-2.4747,-2.424,-2.3816,-2.3725,-2.3773,-2.4589,-2.4937,-2.5217,-2.6094,-2.7225,-2.756,-2.756,-2.756,-2.756,-2.756,-2.756,-2.756,-2.756,-2.756,-2.738,-2.7111,-2.6841,-2.6662,-2.6033,-2.5166,-2.497,-2.5014,-2.4433,-2.3819,-2.4462,-2.5252,-2.5777,-2.6542,-2.6977,-2.7357,-2.7578,-1.686,-1.6847,-1.686,-1.6914,-1.6954,-1.6687,-1.6406,-1.6139,-1.6211,-1.7305,-1.9147,-1.9497,-2.0854,-2.2568,-2.3262,-2.3398,-2.3418,-2.3437,-2.3652,-2.3984,-2.4004,-2.4219,-2.4258,-2.4121,-2.4043,-2.4043,-2.3945,-2.3769,-2.3828,-2.3769,-2.3594,-2.3574,-2.3711,-2.4177,-2.4751,-2.4371,-2.4196,-2.4502,-2.502,-2.6047,-2.7545,-2.845,-2.9106,-2.9702,-2.9702,-2.9779,-2.9651,-2.9426,-2.9302,-2.9151,-2.8222,-2.767,-2.7519,-2.6791,-2.6559,-2.6533,-2.6533,-2.6533,-2.6533,-2.6533,-2.6533,-2.6533,-2.6533,-2.6533,-2.6533,-2.6533,-2.6533,-2.6533,-2.6533,-2.6533,-2.6533,-2.6533,-2.6533,-2.6533,-2.6533,-2.6533,-2.6239,-2.5485,-2.4843,-2.4478,-2.4092,-2.4019,-2.3901,-2.4204,-2.4878,-2.5659,-2.6014,-2.6414,-2.7408,-2.756,-2.756,-2.756,-2.756,-2.756,-2.756,-2.741,-2.7111,-2.6901,-2.6782,-2.6572,-2.6303,-2.6004,-2.5704,-2.5106,-2.4837,-2.4567,-2.4208,-2.4148,-2.5166,-2.5944,-2.6063,-2.6559,-2.7271,-2.7551,-2.764,-1.6553,-1.6553,-1.6553,-1.6486,-1.6406,-1.6299,-1.6099,-1.5858,-1.5927,-1.7203,-1.9131,-1.9588,-2.0854,-2.2511,-2.3144,-2.3144,-2.3144,-2.3164,-2.3203,-2.3555,-2.3574,-2.3691,-2.3769,-2.375,-2.3672,-2.3769,-2.3555,-2.332,-2.3516,-2.3281,-2.3203,-2.3223,-2.3144,-2.3428,-2.3595,-2.3369,-2.3841,-2.4529,-2.5546,-2.6461,-2.7706,-2.845,-2.8846,-2.9184,-2.9443,-2.9624,-2.9294,-2.9048,-2.89,-2.8599,-2.8021,-2.7318,-2.7118,-2.6816,-2.6559,-2.6533,-2.6533,-2.6533,-2.6533,-2.6533,-2.6533,-2.6533,-2.6533,-2.6533,-2.6533,-2.6533,-2.6533,-2.6533,-2.6533,-2.6533,-2.6533,-2.6533,-2.6533,-2.6533,-2.6533,-2.6533,-2.5988,-2.5259,-2.4707,-2.4381,-2.3904,-2.3885,-2.4279,-2.4681,-2.5161,-2.596,-2.6707,-2.7122,-2.7479,-2.75,-2.747,-2.752,-2.749,-2.746,-2.734,-2.7111,-2.6752,-2.6303,-2.6123,-2.6004,-2.5585,-2.5255,-2.5136,-2.4986,-2.4477,-2.4148,-2.4298,-2.4597,-2.5076,-2.5465,-2.5674,-2.6443,-2.7515,-2.7529,-2.7314,-1.6259,-1.6259,-1.6259,-1.6099,-1.5912,-1.6126,-1.6072,-1.5832,-1.5832,-1.7203,-1.9405,-1.9405,-2.0674,-2.2599,-2.3057,-2.3144,-2.3144,-2.3144,-2.3164,-2.3184,-2.3262,-2.3281,-2.3262,-2.3242,-2.332,-2.3242,-2.3144,-2.3164,-2.3164,-2.3164,-2.3144,-2.3144,-2.3144,-2.3203,-2.3203,-2.3359,-2.3973,-2.4808,-2.563,-2.6543,-2.7626,-2.8791,-2.8609,-2.8767,-2.8949,-2.9032,-2.8811,-2.862,-2.865,-2.8398,-2.777,-2.7394,-2.7067,-2.681,-2.6634,-2.6533,-2.6533,-2.6533,-2.6533,-2.6533,-2.6533,-2.6533,-2.6533,-2.6533,-2.6533,-2.6533,-2.6533,-2.6533,-2.6533,-2.6533,-2.6533,-2.6533,-2.6533,-2.6533,-2.6533,-2.6163,-2.5711,-2.5159,-2.4696,-2.4155,-2.3577,-2.3654,-2.4624,-2.5161,-2.5494,-2.6357,-2.6983,-2.7136,-2.741,-2.732,-2.737,-2.737,-2.731,-2.725,-2.71,-2.6811,-2.6452,-2.6033,-2.5615,-2.5405,-2.4956,-2.4567,-2.4448,-2.4238,-2.3849,-2.3759,-2.4176,-2.4282,-2.4418,-2.4807,-2.5435,-2.6008,-2.701,-2.6566,-2.6351,-1.5952,-1.5965,-1.5965,-1.5912,-1.5845,-1.5925,-1.5899,-1.5832,-1.5832,-1.6749,-1.8226,-1.9131,-2.0494,-2.1836,-2.2668,-2.3057,-2.3144,-2.3144,-2.3144,-2.3144,-2.3144,-2.3144,-2.3144,-2.3144,-2.3144,-2.3144,-2.3144,-2.3144,-2.3144,-2.3144,-2.3144,-2.3144,-2.3144,-2.3144,-2.3144,-2.3144,-2.3647,-2.4317,-2.5062,-2.5964,-2.6707,-2.7464,-2.7545,-2.8108,-2.8426,-2.8464,-2.8617,-2.8375,-2.8323,-2.772,-2.7118,-2.6716,-2.6735,-2.6609,-2.6533,-2.6533,-2.6533,-2.6533,-2.6533,-2.6533,-2.6533,-2.6533,-2.6533,-2.6533,-2.6533,-2.6533,-2.6533,-2.6533,-2.6533,-2.6533,-2.6389,-2.6389,-2.6339,-2.6289,-2.6214,-2.5862,-2.541,-2.4958,-2.452,-2.4016,-2.3437,-2.4067,-2.4964,-2.5412,-2.5823,-2.6666,-2.7199,-2.73,-2.731,-2.7141,-2.7081,-2.713,-2.707,-2.703,-2.6692,-2.6434,-2.6075,-2.5717,-2.5255,-2.4747,-2.4298,-2.3969,-2.3819,-2.3699,-2.361,-2.3919,-2.4364,-2.4354,-2.4298,-2.4926,-2.5555,-2.5974,-2.6231,-2.5863,-2.5922,-1.5832,-1.5832,-1.5832,-1.5832,-1.5832,-1.5832,-1.5832,-1.5832,-1.5832,-1.6763,-1.8411,-1.9222,-2.0404,-2.2031,-2.2775,-2.3144,-2.3144,-2.3144,-2.3144,-2.3144,-2.3144,-2.3144,-2.3144,-2.3144,-2.3144,-2.3144,-2.3144,-2.3144,-2.3144,-2.3144,-2.3144,-2.3144,-2.3144,-2.3144,-2.3144,-2.3144,-2.3144,-2.3627,-2.4211,-2.4872,-2.5546,-2.6047,-2.6789,-2.7418,-2.774,-2.8168,-2.827,-2.8027,-2.7821,-2.7293,-2.6741,-2.6533,-2.6533,-2.6533,-2.6533,-2.6533,-2.6533,-2.6533,-2.6533,-2.6533,-2.6533,-2.6533,-2.6533,-2.6533,-2.6533,-2.6533,-2.6533,-2.6533,-2.6533,-2.6508,-2.6364,-2.6264,-2.6189,-2.6088,-2.5812,-2.5511,-2.5109,-2.4682,-2.4293,-2.3876,-2.403,-2.4616,-2.5133,-2.5522,-2.6094,-2.696,-2.73,-2.72,-2.71,-2.6841,-2.6811,-2.6782,-2.6819,-2.6808,-2.6381,-2.5866,-2.5418,-2.4986,-2.4507,-2.4029,-2.364,-2.361,-2.367,-2.364,-2.361,-2.3889,-2.4126,-2.431,-2.4418,-2.4896,-2.5166,-2.5375,-2.5484,-2.5346,-2.5691,-1.5765,-1.5738,-1.5765,-1.5738,-1.5792,-1.5778,-1.5792,-1.5832,-1.5832,-1.7016,-1.8764,-1.9405,-2.0584,-2.1854,-2.2775,-2.3057,-2.3144,-2.3144,-2.3144,-2.3144,-2.3144,-2.3144,-2.3144,-2.3144,-2.3144,-2.3144,-2.3144,-2.3144,-2.3144,-2.3144,-2.3144,-2.3144,-2.3144,-2.3144,-2.3144,-2.3144,-2.3144,-2.3299,-2.3973,-2.4702,-2.5546,-2.6152,-2.6461,-2.6617,-2.7255,-2.7885,-2.7565,-2.7557,-2.7698,-2.7218,-2.6677,-2.6327,-2.6465,-2.6533,-2.6533,-2.6533,-2.6533,-2.6533,-2.6533,-2.6533,-2.6533,-2.6533,-2.6533,-2.6533,-2.6533,-2.6533,-2.6533,-2.6533,-2.6533,-2.6533,-2.6389,-2.6063,-2.5862,-2.5711,-2.546,-2.5034,-2.4556,-2.4243,-2.3963,-2.3669,-2.3808,-2.4478,-2.5577,-2.5932,-2.5977,-2.7004,-2.7111,-2.6841,-2.6662,-2.6393,-2.6243,-2.6213,-2.6111,-2.5948,-2.5511,-2.5,-2.4582,-2.4178,-2.3879,-2.3729,-2.361,-2.361,-2.361,-2.361,-2.361,-2.361,-2.3773,-2.4088,-2.4238,-2.4088,-2.4328,-2.4612,-2.4714,-2.4891,-2.5467,-1.5378,-1.5177,-1.5164,-1.5297,-1.5484,-1.5498,-1.5631,-1.5818,-1.5832,-1.6183,-1.7016,-1.8672,-1.9861,-2.0764,-2.2492,-2.3144,-2.3144,-2.3144,-2.3144,-2.3144,-2.3144,-2.3144,-2.3144,-2.3144,-2.3144,-2.3144,-2.3144,-2.3144,-2.3144,-2.3144,-2.3144,-2.3144,-2.3144,-2.3144,-2.3144,-2.3144,-2.3125,-2.3066,-2.3394,-2.368,-2.4067,-2.4935,-2.5355,-2.5895,-2.6655,-2.7191,-2.6914,-2.6602,-2.6692,-2.6482,-2.5773,-2.5816,-2.6465,-2.6465,-2.6533,-2.6533,-2.6508,-2.6508,-2.6458,-2.6458,-2.644,-2.6508,-2.6508,-2.6508,-2.6533,-2.6533,-2.6533,-2.6533,-2.6533,-2.6533,-2.6314,-2.5912,-2.5511,-2.531,-2.5034,-2.4506,-2.4004,-2.3801,-2.3568,-2.3646,-2.3713,-2.4509,-2.5659,-2.6169,-2.6208,-2.6213,-2.6098,-2.5914,-2.5794,-2.5585,-2.5285,-2.5196,-2.5136,-2.4896,-2.4522,-2.4448,-2.4208,-2.4088,-2.3909,-2.3729,-2.361,-2.361,-2.361,-2.361,-2.361,-2.361,-2.3759,-2.4178,-2.4208,-2.3849,-2.4023,-2.4472,-2.4768,-2.4977,-2.548,-1.511,-1.4977,-1.5053,-1.5057,-1.519,-1.5204,-1.5297,-1.5418,-1.5444,-1.579,-1.6657,-1.8485,-1.977,-2.0404,-2.2315,-2.3144,-2.3144,-2.3144,-2.3144,-2.3144,-2.3144,-2.3144,-2.3144,-2.3144,-2.3144,-2.3144,-2.3144,-2.3144,-2.3144,-2.3144,-2.3144,-2.3144,-2.3144,-2.3125,-2.3125,-2.3125,-2.3008,-2.2852,-2.2852,-2.2773,-2.2695,-2.3422,-2.4221,-2.4935,-2.5385,-2.5784,-2.6036,-2.5633,-2.5589,-2.5515,-2.5016,-2.5676,-2.6233,-2.6465,-2.6533,-2.6533,-2.6508,-2.6433,-2.6264,-2.6289,-2.6339,-2.6357,-2.6483,-2.6508,-2.6533,-2.6533,-2.6533,-2.6533,-2.6533,-2.6508,-2.6163,-2.5812,-2.5335,-2.5034,-2.4381,-2.3728,-2.3527,-2.3437,-2.362,-2.3982,-2.4337,-2.5077,-2.6122,-2.6811,-2.6843,-2.6828,-2.6482,-2.5734,-2.5465,-2.4956,-2.4567,-2.4358,-2.4418,-2.4268,-2.4059,-2.4029,-2.3999,-2.3909,-2.3879,-2.3729,-2.361,-2.361,-2.361,-2.361,-2.361,-2.361,-2.3819,-2.4252,-2.4088,-2.3729,-2.4048,-2.4487,-2.476,-2.5147,-2.5715,-1.4897,-1.491,-1.4856,-1.487,-1.491,-1.491,-1.495,-1.499,-1.5066,-1.5819,-1.7101,-1.8643,-2.0086,-2.1391,-2.2492,-2.2862,-2.3144,-2.3144,-2.3144,-2.3144,-2.3144,-2.3144,-2.3144,-2.3144,-2.3144,-2.3144,-2.3144,-2.3144,-2.3144,-2.3144,-2.3144,-2.3125,-2.3086,-2.3047,-2.3047,-2.2949,-2.2734,-2.2519,-2.2383,-2.2246,-2.2207,-2.2355,-2.3227,-2.3698,-2.387,-2.3794,-2.4385,-2.4659,-2.4526,-2.4776,-2.4732,-2.5223,-2.5728,-2.5952,-2.6189,-2.6163,-2.6214,-2.6088,-2.6013,-2.6264,-2.6113,-2.6038,-2.6289,-2.6414,-2.6483,-2.6508,-2.6483,-2.6414,-2.6483,-2.6214,-2.5937,-2.5511,-2.5034,-2.4607,-2.3828,-2.3165,-2.3175,-2.315,-2.3603,-2.4163,-2.4738,-2.5467,-2.6229,-2.6967,-2.7268,-2.728,-2.6901,-2.6243,-2.5525,-2.4747,-2.4178,-2.4059,-2.4088,-2.3879,-2.367,-2.3729,-2.3819,-2.3759,-2.3699,-2.364,-2.361,-2.361,-2.361,-2.364,-2.364,-2.3789,-2.3936,-2.4264,-2.401,-2.3859,-2.4307,-2.4801,-2.5035,-2.5477,-2.6096,-1.4603,-1.4589,-1.4362,-1.4389,-1.4576,-1.4603,-1.4736,-1.495,-1.504,-1.5603,-1.6861,-1.8081,-1.959,-2.1373,-2.258,-2.3057,-2.3144,-2.3144,-2.3144,-2.3144,-2.3144,-2.3144,-2.3144,-2.3144,-2.3144,-2.3125,-2.3105,-2.3125,-2.2988,-2.3047,-2.3105,-2.3047,-2.2715,-2.2617,-2.2578,-2.2422,-2.2187,-2.2031,-2.1992,-2.1894,-2.2185,-2.2452,-2.2936,-2.3424,-2.3754,-2.3785,-2.3868,-2.3807,-2.4273,-2.4684,-2.4985,-2.4978,-2.5105,-2.5252,-2.5519,-2.5862,-2.5887,-2.5837,-2.5887,-2.6113,-2.6013,-2.5887,-2.6113,-2.6289,-2.6314,-2.6408,-2.6289,-2.6239,-2.6138,-2.5837,-2.5485,-2.4858,-2.4356,-2.4079,-2.3502,-2.3276,-2.315,-2.3125,-2.3305,-2.3754,-2.4221,-2.4937,-2.5769,-2.6357,-2.6865,-2.6751,-2.6393,-2.5734,-2.5255,-2.4537,-2.3819,-2.3819,-2.3819,-2.3729,-2.361,-2.361,-2.367,-2.361,-2.361,-2.361,-2.361,-2.361,-2.361,-2.364,-2.3969,-2.4268,-2.4387,-2.4394,-2.4597,-2.4645,-2.4869,-2.5201,-2.5413,-2.5843,-2.6524]}]]